[[{"header":{"parameterUnit":"m.s-1","parameterCategory":1,"la1":30.6,"la2":29.2853,"lo1":-89.7004,"lo2":-87.6739,"dy":0.0162,"dx":0.0183,"nx":112,"ny":82,"refTime":"2023-06-26T12:00:00:Z","depth":0,"parameterNumber":2,"parameterNumberName":"U-component_of_WINDS"},"data":[0.0,0.0,0.0,0.0,0.0,0.0,0.0,0.0,0.0,0.0,0.0,0.0,0.0,0.0,0.0,0.0,0.0,0.0,0.0,0.0,0.0,0.0,0.0,0.0,0.0,0.0,0.0,0.0,0.0,0.0,0.0,0.0,0.0,0.0,0.0,0.0,0.0,0.0,0.0,0.0,0.0,0.0,0.0,0.0,0.0,0.0,0.0,0.0,0.0,0.0,0.0,0.0,0.0,0.0,0.0,0.0,0.0,0.0,0.0,0.0,0.0,0.0,0.0,0.0,0.0,0.0,0.0,0.0,0.0,0.0,0.0,0.0,0.0,0.0,0.0,0.0,0.0,0.0,0.0,0.0,0.0,0.0,0.0,0.0,0.0,0.0,0.0,0.0,0.0,0.0,-2.0974,-2.2002,-2.2075,-2.1776,-2.096,-2.0411,-1.964,-1.8487,0.0,0.0,0.0,0.0,0.0,0.0,0.0,0.0,0.0,0.0,0.0,0.0,0.0,0.0,0.0,0.0,0.0,0.0,0.0,0.0,0.0,0.0,0.0,0.0,0.0,0.0,0.0,0.0,0.0,0.0,0.0,0.0,0.0,0.0,0.0,0.0,0.0,0.0,0.0,0.0,0.0,0.0,0.0,0.0,0.0,0.0,0.0,0.0,0.0,0.0,0.0,0.0,0.0,0.0,0.0,0.0,0.0,0.0,0.0,0.0,0.0,0.0,0.0,0.0,0.0,0.0,0.0,0.0,0.0,0.0,0.0,0.0,0.0,0.0,0.0,0.0,0.0,0.0,0.0,0.0,0.0,0.0,0.0,0.0,0.0,0.0,0.0,0.0,0.0,0.0,0.0,0.0,0.0,0.0,0.0,0.0,0.0,0.0,0.0,0.0,0.0,0.0,0.0,0.0,-2.1227,-2.2763,-2.2944,-2.2751,-2.2432,-2.1538,-2.079,-2.0383,0.0,0.0,0.0,0.0,0.0,0.0,0.0,0.0,0.0,0.0,0.0,0.0,0.0,0.0,0.0,0.0,0.0,0.0,0.0,0.0,0.0,0.0,0.0,0.0,0.0,0.0,0.0,0.0,0.0,0.0,0.0,0.0,0.0,0.0,0.0,0.0,0.0,0.0,0.0,0.0,0.0,0.0,0.0,0.0,0.0,0.0,0.0,0.0,0.0,0.0,0.0,0.0,0.0,0.0,0.0,0.0,0.0,0.0,0.0,0.0,0.0,0.0,0.0,0.0,0.0,0.0,0.0,0.0,0.0,0.0,0.0,0.0,0.0,0.0,0.0,0.0,0.0,0.0,0.0,0.0,0.0,0.0,0.0,0.0,0.0,0.0,0.0,0.0,0.0,0.0,0.0,0.0,0.0,0.0,0.0,0.0,0.0,0.0,0.0,0.0,0.0,0.0,0.0,-2.1578,-2.2868,-2.3891,-2.3589,-2.3075,-2.237,-2.1683,-2.0917,-2.0063,-2.0014,0.0,0.0,0.0,0.0,0.0,0.0,0.0,0.0,0.0,0.0,0.0,0.0,0.0,0.0,0.0,0.0,0.0,0.0,0.0,0.0,0.0,0.0,0.0,0.0,0.0,0.0,0.0,0.0,0.0,0.0,0.0,0.0,0.0,0.0,0.0,0.0,0.0,0.0,0.0,0.0,0.0,0.0,0.0,0.0,0.0,0.0,0.0,0.0,0.0,0.0,0.0,0.0,0.0,0.0,0.0,0.0,0.0,0.0,0.0,0.0,0.0,0.0,0.0,0.0,0.0,0.0,0.0,0.0,0.0,0.0,0.0,0.0,0.0,0.0,0.0,0.0,0.0,0.0,0.0,0.0,0.0,0.0,0.0,0.0,0.0,0.0,0.0,0.0,0.0,0.0,0.0,0.0,0.0,0.0,0.0,0.0,0.0,0.0,0.0,0.0,0.0,0.0,-2.2775,-2.4013,-2.4422,-2.4054,-2.3482,-2.2628,-2.2007,-2.1178,-2.0022,-2.0348,0.0,0.0,0.0,0.0,0.0,0.0,0.0,0.0,0.0,0.0,0.0,0.0,0.0,0.0,0.0,0.0,0.0,0.0,0.0,0.0,0.0,0.0,0.0,0.0,0.0,0.0,0.0,0.0,0.0,0.0,0.0,0.0,0.0,0.0,0.0,0.0,0.0,0.0,0.0,0.0,0.0,0.0,0.0,0.0,0.0,0.0,0.0,0.0,0.0,0.0,0.0,0.0,0.0,0.0,0.0,0.0,0.0,0.0,0.0,0.0,0.0,0.0,0.0,0.0,0.0,0.0,0.0,0.0,0.0,0.0,0.0,0.0,0.0,0.0,0.0,0.0,0.0,0.0,0.0,0.0,0.0,0.0,0.0,0.0,0.0,0.0,0.0,0.0,0.0,0.0,0.0,0.0,0.0,0.0,0.0,0.0,0.0,0.0,0.0,0.0,0.0,0.0,-2.2343,-2.3532,-2.3411,-2.4198,-2.455,-2.4056,-2.3128,-2.239,-2.1837,-2.1048,0.0,0.0,0.0,0.0,0.0,0.0,0.0,0.0,0.0,0.0,0.0,0.0,0.0,0.0,0.0,0.0,0.0,0.0,0.0,0.0,0.0,0.0,0.0,0.0,0.0,0.0,0.0,0.0,0.0,0.0,0.0,0.0,0.0,0.0,0.0,0.0,0.0,0.0,0.0,0.0,0.0,0.0,0.0,0.0,0.0,0.0,0.0,0.0,0.0,0.0,0.0,0.0,0.0,0.0,0.0,0.0,0.0,0.0,0.0,0.0,0.0,0.0,0.0,0.0,0.0,0.0,0.0,0.0,0.0,0.0,0.0,0.0,0.0,0.0,0.0,0.0,0.0,0.0,0.0,0.0,0.0,0.0,0.0,0.0,0.0,0.0,0.0,0.0,0.0,0.0,0.0,0.0,0.0,0.0,0.0,0.0,0.0,0.0,0.0,0.0,0.0,0.0,-2.2587,-2.3341,-2.4224,-2.412,-2.3686,-2.286,-2.2505,-2.1924,-2.1145,0.0,0.0,0.0,0.0,0.0,0.0,0.0,0.0,0.0,0.0,0.0,0.0,0.0,0.0,0.0,0.0,0.0,0.0,0.0,0.0,0.0,0.0,0.0,0.0,0.0,0.0,0.0,0.0,0.0,0.0,0.0,0.0,0.0,0.0,0.0,0.0,0.0,0.0,0.0,0.0,0.0,0.0,0.0,0.0,0.0,0.0,0.0,0.0,0.0,0.0,0.0,0.0,0.0,0.0,0.0,0.0,0.0,0.0,0.0,0.0,0.0,0.0,0.0,0.0,0.0,0.0,0.0,0.0,0.0,0.0,0.0,0.0,0.0,0.0,0.0,0.0,0.0,0.0,0.0,0.0,0.0,0.0,0.0,0.0,0.0,0.0,0.0,0.0,0.0,0.0,0.0,0.0,0.0,0.0,0.0,0.0,0.0,0.0,0.0,0.0,0.0,0.0,-2.2091,-2.2661,-2.3217,-2.4002,-2.3745,-2.3073,-2.2103,-2.2027,-2.1593,-2.0644,0.0,0.0,0.0,0.0,0.0,0.0,0.0,0.0,0.0,0.0,0.0,0.0,0.0,0.0,0.0,0.0,0.0,0.0,0.0,0.0,0.0,0.0,0.0,0.0,0.0,0.0,0.0,0.0,0.0,0.0,0.0,0.0,0.0,0.0,0.0,0.0,0.0,0.0,0.0,0.0,0.0,0.0,0.0,0.0,0.0,0.0,0.0,0.0,0.0,0.0,0.0,0.0,0.0,0.0,0.0,0.0,0.0,0.0,0.0,0.0,0.0,0.0,0.0,0.0,0.0,0.0,0.0,0.0,0.0,0.0,0.0,0.0,0.0,0.0,0.0,0.0,0.0,0.0,0.0,0.0,0.0,0.0,0.0,0.0,0.0,0.0,0.0,0.0,0.0,0.0,0.0,0.0,0.0,0.0,0.0,0.0,0.0,0.0,0.0,0.0,0.0,0.0,-2.0712,-2.2264,-2.3073,-2.2103,-2.285,-2.3073,-2.2103,-2.1952,-2.1593,0.0,0.0,0.0,0.0,0.0,0.0,0.0,0.0,0.0,0.0,0.0,0.0,0.0,0.0,0.0,0.0,0.0,0.0,0.0,0.0,0.0,0.0,0.0,0.0,0.0,0.0,0.0,0.0,0.0,0.0,0.0,0.0,0.0,0.0,0.0,0.0,0.0,0.0,0.0,0.0,0.0,0.0,0.0,0.0,0.0,0.0,0.0,0.0,0.0,0.0,0.0,0.0,0.0,0.0,0.0,0.0,0.0,0.0,0.0,0.0,0.0,0.0,0.0,0.0,0.0,0.0,0.0,0.0,0.0,0.0,0.0,0.0,0.0,0.0,0.0,0.0,0.0,0.0,0.0,0.0,0.0,0.0,0.0,0.0,0.0,0.0,0.0,0.0,0.0,0.0,0.0,0.0,0.0,0.0,0.0,0.0,0.0,0.0,0.0,0.0,0.0,0.0,0.0,-2.1517,-2.1527,-2.1593,-2.1952,-2.1669,-2.1308,-2.1011,-2.1011,-2.0857,-2.0644,0.0,0.0,0.0,0.0,0.0,0.0,0.0,0.0,0.0,0.0,0.0,0.0,0.0,0.0,0.0,0.0,0.0,0.0,0.0,0.0,0.0,0.0,0.0,0.0,0.0,0.0,0.0,0.0,0.0,0.0,0.0,0.0,0.0,0.0,0.0,0.0,0.0,0.0,0.0,0.0,0.0,0.0,0.0,0.0,0.0,0.0,0.0,0.0,0.0,0.0,0.0,0.0,0.0,0.0,0.0,0.0,0.0,0.0,0.0,0.0,0.0,0.0,0.0,0.0,0.0,0.0,0.0,0.0,0.0,0.0,0.0,0.0,0.0,0.0,0.0,0.0,0.0,0.0,0.0,0.0,0.0,0.0,0.0,0.0,0.0,0.0,0.0,0.0,0.0,0.0,0.0,0.0,0.0,0.0,0.0,0.0,0.0,0.0,0.0,0.0,0.0,0.0,-2.1375,-2.0934,-2.0789,-2.1375,-2.0934,-2.0566,-2.0566,-2.0566,-2.0566,-2.0566,0.0,0.0,0.0,0.0,0.0,0.0,0.0,0.0,0.0,0.0,0.0,0.0,0.0,0.0,0.0,0.0,0.0,0.0,0.0,0.0,0.0,0.0,0.0,0.0,0.0,0.0,0.0,0.0,0.0,0.0,0.0,0.0,0.0,0.0,0.0,0.0,0.0,0.0,0.0,0.0,0.0,0.0,0.0,0.0,0.0,0.0,0.0,0.0,0.0,0.0,0.0,0.0,0.0,0.0,0.0,0.0,0.0,0.0,0.0,0.0,0.0,0.0,0.0,0.0,0.0,0.0,0.0,0.0,0.0,0.0,0.0,0.0,0.0,0.0,0.0,0.0,0.0,0.0,0.0,0.0,0.0,0.0,0.0,0.0,0.0,0.0,0.0,0.0,0.0,0.0,0.0,0.0,0.0,0.0,0.0,0.0,0.0,0.0,0.0,0.0,0.0,0.0,-2.0566,-2.0566,-2.0566,-2.0566,-2.0566,-2.0566,-2.0566,-2.0566,-2.0566,-2.0566,0.0,0.0,0.0,0.0,0.0,0.0,0.0,0.0,0.0,0.0,0.0,0.0,0.0,0.0,0.0,0.0,0.0,0.0,0.0,0.0,0.0,0.0,0.0,0.0,0.0,0.0,0.0,0.0,0.0,0.0,0.0,0.0,0.0,0.0,0.0,0.0,0.0,0.0,0.0,0.0,0.0,0.0,0.0,0.0,0.0,0.0,0.0,0.0,0.0,0.0,0.0,0.0,0.0,0.0,0.0,0.0,0.0,0.0,0.0,0.0,-2.0566,-2.0566,0.0,0.0,0.0,0.0,0.0,0.0,0.0,0.0,0.0,0.0,0.0,0.0,0.0,0.0,0.0,0.0,0.0,0.0,0.0,0.0,0.0,0.0,0.0,0.0,0.0,0.0,0.0,0.0,0.0,0.0,0.0,0.0,0.0,0.0,0.0,0.0,0.0,0.0,0.0,0.0,-2.0566,-2.0566,-2.0566,-2.0566,-2.0566,-2.0566,-2.0566,-2.0566,-2.0566,-2.0566,-2.0566,0.0,0.0,0.0,0.0,0.0,0.0,0.0,0.0,0.0,0.0,0.0,0.0,0.0,0.0,0.0,0.0,0.0,0.0,0.0,0.0,0.0,0.0,0.0,0.0,0.0,0.0,0.0,0.0,0.0,0.0,0.0,0.0,0.0,0.0,0.0,0.0,0.0,0.0,0.0,0.0,0.0,0.0,0.0,0.0,0.0,0.0,0.0,0.0,0.0,0.0,0.0,0.0,0.0,0.0,0.0,0.0,0.0,0.0,0.0,-2.0566,-2.0566,0.0,0.0,0.0,0.0,0.0,0.0,0.0,0.0,0.0,0.0,0.0,0.0,0.0,0.0,0.0,0.0,0.0,0.0,0.0,0.0,0.0,0.0,0.0,0.0,0.0,0.0,0.0,0.0,0.0,0.0,0.0,0.0,0.0,0.0,0.0,0.0,0.0,0.0,0.0,0.0,-2.0566,-2.0566,-2.0566,-2.0566,-2.0566,-2.0566,-2.0566,-2.0566,-2.0566,-2.0566,-2.0566,0.0,0.0,0.0,0.0,0.0,0.0,0.0,0.0,0.0,0.0,0.0,0.0,0.0,0.0,0.0,0.0,0.0,0.0,0.0,0.0,0.0,0.0,0.0,0.0,0.0,0.0,0.0,0.0,0.0,0.0,0.0,0.0,0.0,0.0,0.0,0.0,0.0,0.0,0.0,0.0,0.0,0.0,0.0,0.0,0.0,0.0,0.0,0.0,0.0,0.0,0.0,0.0,0.0,-2.0566,-2.0566,-2.0566,-2.0566,-2.0566,-2.0566,-2.0566,-2.0566,-2.0566,-2.0566,0.0,0.0,0.0,0.0,0.0,0.0,0.0,0.0,0.0,0.0,0.0,0.0,0.0,0.0,0.0,0.0,0.0,0.0,0.0,0.0,0.0,0.0,-2.0566,-2.0566,-2.0566,-2.0566,-2.0566,0.0,0.0,0.0,0.0,0.0,0.0,0.0,0.0,0.0,0.0,0.0,-2.0566,-2.0566,-2.0566,-2.0566,-2.0566,-2.0566,-2.0566,-2.0566,-2.0566,-2.0566,-2.0566,-2.0566,0.0,0.0,0.0,0.0,0.0,0.0,0.0,0.0,0.0,0.0,0.0,0.0,0.0,0.0,0.0,0.0,0.0,0.0,0.0,0.0,0.0,0.0,0.0,0.0,0.0,0.0,0.0,0.0,0.0,0.0,0.0,0.0,-1.4734,-1.5786,0.0,0.0,0.0,0.0,0.0,0.0,0.0,0.0,0.0,0.0,0.0,0.0,0.0,-2.0566,-2.0566,-2.0566,-2.0566,-2.0566,-2.0566,-2.0566,-2.0566,-2.0566,-2.0566,-2.0566,-2.0566,0.0,-2.0566,-2.0566,0.0,0.0,0.0,0.0,0.0,0.0,0.0,0.0,0.0,0.0,0.0,0.0,0.0,0.0,0.0,0.0,0.0,0.0,0.0,0.0,0.0,0.0,-2.0566,-2.0566,-2.0566,-2.0566,-2.0566,-2.0566,-2.0566,-2.0566,-2.0566,-2.0566,0.0,0.0,0.0,0.0,0.0,0.0,-2.0566,-2.0566,-2.0566,-2.0566,-2.0566,-2.0566,-2.0566,-2.0566,-2.0566,-2.0566,-2.0566,-2.0566,-2.0566,-2.0566,0.0,0.0,0.0,0.0,0.0,0.0,0.0,0.0,0.0,0.0,0.0,0.0,0.0,0.0,0.0,0.0,0.0,0.0,0.0,0.0,0.0,0.0,0.0,0.0,0.0,0.0,0.0,0.0,0.0,-1.5794,-1.6281,-1.7407,-1.8461,-1.9116,0.0,0.0,0.0,0.0,0.0,0.0,0.0,0.0,0.0,-2.0566,-2.0566,-2.0566,-2.0566,-2.0566,-2.0566,-2.0566,-2.0566,-2.0566,-2.0566,-2.0566,-2.0566,-2.0566,-2.0566,-2.0566,-2.0566,-2.0566,-2.0566,-2.0566,0.0,0.0,0.0,0.0,-2.0566,-2.0566,-2.0566,-2.0566,-2.0566,-2.0566,0.0,0.0,0.0,0.0,0.0,0.0,0.0,-2.0566,-2.0566,-2.0566,-2.0566,-2.0566,-2.0566,-2.0566,-2.0566,-2.0566,-2.0566,-2.0566,-2.0566,-2.0566,-2.0566,-2.0566,0.0,0.0,0.0,-2.0566,-2.0566,-2.0566,-2.0566,-2.0566,-2.0566,-2.0566,-2.0566,-2.0566,-2.0566,-2.0566,-2.0566,-2.0566,-2.0566,-2.0566,-2.0079,0.0,0.0,0.0,0.0,0.0,0.0,0.0,0.0,0.0,0.0,0.0,0.0,0.0,0.0,0.0,0.0,0.0,0.0,0.0,0.0,0.0,0.0,0.0,0.0,0.0,0.0,0.0,0.0,-1.6363,-1.7017,-1.839,-1.9274,-1.9432,0.0,0.0,0.0,0.0,0.0,0.0,-2.0566,-2.0566,-2.0566,-2.0566,-2.0566,-2.0566,-2.0566,-2.0566,-2.0625,-2.0732,-2.0732,-2.0801,-2.0898,-2.0898,-2.0898,-2.0898,-2.0898,-2.0898,-2.0889,-2.0654,-2.0566,-2.0566,-2.0566,-2.0566,-2.0566,-2.0566,-2.0566,-2.0566,-2.0566,-2.0566,-2.0566,-2.0566,-2.0644,-2.0732,-2.0732,0.0,0.0,0.0,0.0,-2.0898,-2.0898,-2.0898,-2.0898,-2.0898,-2.0898,-2.0898,-2.0898,-2.0898,-2.0869,-2.0762,-2.0732,-2.0771,-2.0889,-2.0898,0.0,-2.0898,-2.0898,-2.0898,-2.0898,-2.0898,-2.0898,-2.0898,-2.0898,-2.0859,-2.0742,-2.0732,-2.0684,-2.0576,-2.0323,-2.0157,-2.0157,-1.9923,-1.9265,-1.8141,0.0,0.0,0.0,0.0,0.0,0.0,0.0,0.0,0.0,0.0,0.0,0.0,0.0,0.0,0.0,0.0,0.0,0.0,0.0,0.0,0.0,0.0,0.0,0.0,0.0,0.0,0.0,0.0,0.0,-1.718,-1.7423,0.0,0.0,0.0,0.0,-1.9036,-1.9045,-1.952,-2.0566,-2.0566,-2.0566,-2.0566,-2.0566,-2.0566,-2.0566,-2.0566,-2.0781,-2.1201,-2.1201,-2.1416,-2.1816,-2.1816,-2.1816,-2.1816,-2.1816,-2.1816,-2.1758,-2.0908,-2.0566,-2.0566,-2.0566,-2.0566,-2.0566,-2.0566,-2.0566,-2.0566,-2.0566,-2.0566,-2.0566,-2.0566,-2.0859,-2.1201,-2.1201,-2.1494,0.0,0.0,-2.1816,-2.1816,-2.1816,-2.1816,-2.1816,-2.1816,-2.1816,-2.1816,-2.1816,-2.1816,-2.1699,-2.1289,-2.1201,-2.1328,-2.1748,0.0,-2.1816,-2.1816,-2.1816,-2.1816,-2.1816,-2.1816,-2.1816,-2.1816,-2.1816,-2.165,-2.124,-2.1201,-2.1016,-2.0596,-1.9599,-1.9116,-1.9116,-1.8069,-1.6927,-1.5861,-1.5779,0.0,0.0,0.0,0.0,0.0,0.0,0.0,0.0,0.0,0.0,0.0,0.0,0.0,0.0,0.0,0.0,0.0,0.0,0.0,0.0,0.0,0.0,0.0,0.0,0.0,0.0,0.0,0.0,-1.6191,-1.6846,0.0,-1.6355,-1.79,-1.8718,-1.7989,-1.9195,-2.0167,-2.0566,-2.0566,-2.037,-1.9811,-2.0579,-2.0703,-2.0199,-2.1063,-2.1494,-2.165,-2.078,-2.0948,-2.1885,-2.0232,-2.0409,-2.1885,-2.0996,-2.1172,-2.1865,-2.1543,-2.1416,-2.1416,-2.1416,-2.1416,-2.1416,-2.1416,-2.1416,-2.1416,-2.1416,-2.1416,-2.1416,-2.1416,-2.1523,-2.165,-2.165,-2.1768,-2.1885,-2.1885,-2.1885,-2.1885,-2.1885,-2.1885,-2.1885,-2.1885,-2.1885,-2.1885,-2.1885,-2.1885,-2.1924,-2.2031,-2.1836,-2.1699,-2.1855,-2.1885,-2.1885,-2.1885,-2.1885,-2.1885,-2.1885,-2.1885,-2.1885,-2.1885,-2.1885,-2.1816,-2.167,-2.165,-2.1236,-2.03,-1.9715,-1.9002,-1.8266,-1.7629,-1.6764,-1.5696,-1.5696,-1.5137,0.0,0.0,0.0,0.0,0.0,0.0,0.0,0.0,0.0,0.0,0.0,0.0,0.0,0.0,0.0,0.0,0.0,0.0,0.0,0.0,0.0,0.0,0.0,0.0,0.0,-1.4977,-1.5296,-1.5703,-1.6355,-1.6355,-1.5296,-1.6838,-1.7789,-1.7516,-1.8493,-1.9441,-2.032,-2.0419,-2.0121,-1.9641,-2.0765,-2.098,-2.0027,-2.0829,-2.1081,-2.0865,-1.9986,-2.0143,-2.1068,-1.9835,-1.9922,-2.1068,-2.0612,-2.0707,-2.1163,-2.1514,-2.1684,-2.174,-2.1826,-2.1885,-2.1885,-2.1885,-2.1885,-2.1885,-2.1885,-2.1885,-2.1885,-2.1885,-2.1982,-2.21,-2.21,-2.2197,-2.2305,-2.2305,-2.2305,-2.2305,-2.2305,-2.2305,-2.2305,-2.2305,-2.2305,-2.2305,-2.2305,-2.2305,-2.2393,-2.2676,-2.2383,-2.2139,-2.2285,-2.2305,-2.2305,-2.2305,-2.2305,-2.2305,-2.2305,-2.2305,-2.2305,-2.2305,-2.2305,-2.2246,-2.2109,-2.1745,-2.1062,-2.0036,-1.9115,-1.8221,-1.7467,-1.683,-1.6209,-1.5454,-1.5454,-1.5127,-1.4382,0.0,0.0,0.0,0.0,0.0,0.0,0.0,0.0,0.0,0.0,0.0,0.0,0.0,0.0,0.0,0.0,0.0,0.0,0.0,0.0,0.0,0.0,0.0,-1.5597,-1.4741,-1.4496,-1.5538,-1.5628,-1.5235,-1.4179,-1.5082,-1.636,-1.787,-1.6877,-1.7265,-1.984,-1.9943,-1.9951,-1.996,-2.1201,-2.121,-1.9978,-1.9978,-1.9566,-1.8782,-1.8888,-1.9077,-1.9588,-2.0657,-2.0567,-1.9579,-2.0666,-2.0576,-1.9579,-2.0755,-2.1203,-2.1309,-2.1796,-2.1924,-2.1924,-2.1924,-2.1924,-2.1924,-2.1924,-2.1924,-2.1924,-2.1924,-2.2197,-2.2529,-2.2529,-2.2812,-2.3135,-2.3135,-2.3135,-2.3135,-2.3135,-2.3135,-2.3135,-2.3135,-2.3135,-2.3135,-2.3135,-2.3135,-2.3135,-2.3135,-2.2812,-2.2656,-2.3066,-2.3135,-2.3135,-2.3135,-2.3135,0.0,-2.3135,-2.3135,-2.3135,-2.3135,-2.3047,-2.2892,-2.2483,-2.1358,-2.0485,-1.992,-1.7818,-1.6602,-1.6521,-1.5575,-1.4963,-1.4963,-1.4963,-1.4963,-1.4963,0.0,0.0,0.0,0.0,0.0,0.0,0.0,0.0,0.0,0.0,0.0,0.0,0.0,0.0,0.0,0.0,0.0,0.0,0.0,0.0,0.0,-1.5264,-1.506,-1.4888,-1.4379,-1.4166,-1.4489,-1.4682,-1.4733,-1.4402,-1.5598,-1.653,-1.6967,-1.7408,-1.7965,-1.8665,-1.8665,-1.879,-1.9138,-1.9504,-1.9641,-1.9639,-1.9639,-1.951,-1.934,-1.8454,-1.8593,-1.9488,-1.8025,-1.8118,-1.9497,-1.8956,-1.9047,-1.9497,-1.9852,-2.0034,-2.0198,-2.207,-2.2793,-2.2793,-2.2793,-2.2793,-2.2793,-2.2793,-2.2793,-2.2793,-2.2793,-2.2871,-2.2969,-2.2969,-2.3047,-2.3135,-2.3135,-2.3135,-2.3135,-2.3135,-2.3135,-2.3135,-2.3135,-2.3135,-2.3135,-2.3135,-2.3135,-2.3135,-2.3135,-2.3047,-2.2998,-2.3125,-2.3135,-2.3135,-2.3135,-2.3135,-2.3135,-2.3135,-2.3135,-2.3135,-2.3135,-2.2306,-2.171,-2.1599,-2.0508,-1.9397,-1.8403,-1.7522,-1.6674,-1.5805,-1.5251,-1.4963,-1.4963,-1.4963,-1.4963,0.0,0.0,0.0,0.0,0.0,0.0,0.0,0.0,0.0,0.0,0.0,0.0,0.0,0.0,0.0,0.0,0.0,0.0,0.0,0.0,0.0,0.0,-1.5478,-1.5277,-1.4937,-1.4636,-1.4456,-1.4456,-1.4603,-1.4703,-1.4703,-1.5457,-1.6219,-1.6781,-1.6973,-1.7308,-1.799,-1.7998,-1.8084,-1.8371,-1.8823,-1.9011,-1.8772,-1.8772,-1.8495,-1.794,-1.7217,-1.7304,-1.794,-1.703,-1.7124,-1.794,-1.7777,-1.777,-1.8025,-1.8495,-1.8772,-1.8956,0.0,0.0,0.0,0.0,-2.3135,-2.3135,-2.3135,-2.3135,-2.3135,-2.3135,-2.3135,-2.3135,-2.3135,-2.3135,-2.3135,-2.3135,-2.3135,-2.3135,-2.3135,-2.3135,-2.3135,-2.3135,-2.3135,-2.3135,-2.3135,-2.3135,-2.3135,-2.3135,-2.3135,0.0,-2.3135,-2.3135,-2.3135,-2.3135,-2.3135,-2.3135,-2.3135,-2.3135,-2.3135,-2.3135,-2.2031,-2.1293,-2.1293,-1.9761,0.0,0.0,0.0,-1.6295,-1.5578,-1.5418,0.0,0.0,0.0,-1.5331,-1.5331,-1.5331,0.0,0.0,-1.5077,-1.503,0.0,0.0,0.0,0.0,0.0,0.0,0.0,0.0,0.0,0.0,0.0,0.0,0.0,0.0,0.0,0.0,-1.5611,-1.5444,-1.5444,-1.5224,-1.5037,-1.497,-1.499,-1.5017,-1.5017,-1.5044,-1.5604,-1.6926,-1.6063,-1.6016,-1.7397,-1.7505,0.0,0.0,0.0,-1.868,-1.7692,-1.7598,-1.6943,-1.5832,-1.5832,-1.5832,-1.5825,-1.6943,-1.685,-1.5825,-1.7037,-1.685,-1.592,-1.7037,-1.7591,-1.7963,-2.0215,-2.1114,-2.1203,-2.2315,-2.2775,-2.2862,-2.2862,0.0,0.0,-2.3135,-2.3135,-2.3135,-2.3135,-2.3135,-2.3135,-2.3135,-2.3135,-2.3135,-2.3135,-2.3135,-2.3135,-2.3135,-2.3135,-2.3135,-2.3135,-2.3135,-2.3135,-2.3135,-2.3135,-2.3135,-2.3135,-2.3135,-2.3135,-2.3135,-2.3135,-2.3047,-2.295,-2.2862,-2.2862,-2.2687,-2.1578,0.0,-2.0935,-1.8772,-1.7505,-1.7505,-1.6386,-1.5832,-1.5832,-1.5832,-1.5832,-1.5832,-1.5832,-1.5832,-1.5832,-1.5832,-1.5832,-1.5818,-1.5304,-1.5197,0.0,0.0,0.0,0.0,0.0,0.0,0.0,0.0,0.0,0.0,0.0,0.0,0.0,0.0,0.0,-1.5832,-1.5785,-1.5745,-1.5745,-1.5698,-1.5484,-1.5017,-1.517,-1.5311,-1.5311,-1.5524,-1.5772,-1.6007,-1.5833,-1.5859,-1.6103,-1.6204,-1.6669,-1.7692,-1.6943,-1.6936,-1.7684,-1.6669,-1.6015,-1.5832,-1.5832,0.0,-1.5832,-1.6015,-1.6015,-1.5825,-1.6015,-1.6015,-1.5825,-1.6109,-1.6756,-1.787,-1.9314,-1.9852,-1.9852,-2.0133,-2.0845,-2.1667,-2.1667,-2.2306,-2.3135,-2.3135,-2.3135,-2.3135,-2.3135,-2.3135,0.0,-2.3135,-2.3135,-2.3135,-2.3135,-2.3135,-2.3135,-2.3135,-2.3135,-2.3135,-2.3135,-2.3135,-2.3135,-2.3135,-2.3135,-2.3135,-2.3135,-2.3135,-2.3135,-2.3135,-2.3135,-2.2775,-2.1756,-2.1667,-2.1302,-2.0314,-1.9139,-1.8411,-1.8411,-1.703,-1.6204,-1.6204,-1.592,-1.5832,-1.5832,-1.5832,-1.5832,-1.5832,-1.5832,-1.5832,-1.5832,-1.5832,-1.5832,-1.5825,-1.5712,-1.5691,0.0,0.0,0.0,0.0,0.0,0.0,0.0,0.0,0.0,0.0,0.0,-1.5832,-1.5832,0.0,-1.5832,-1.5832,-1.5832,-1.5832,-1.5832,-1.5832,-1.5718,-1.5431,-1.5524,-1.5611,-1.5611,-1.5745,-1.5832,-1.5832,-1.5832,-1.5832,-1.5832,-1.5832,-1.6109,-1.6763,-1.6109,-1.6109,-1.6756,-1.6109,-1.5832,-1.5832,-1.5832,-1.5832,-1.5832,-1.5832,-1.5832,-1.5832,-1.5832,-1.5832,-1.5832,-1.5832,-1.6197,-1.685,-1.739,-1.8395,-1.9497,-1.9497,-2.0305,-2.1293,-2.1293,-2.212,-2.3135,-2.3135,-2.3135,-2.3135,-2.3135,-2.3135,-2.3135,-2.3135,-2.3135,-2.3135,-2.3135,-2.3135,-2.3135,-2.3135,-2.3135,-2.3135,-2.3135,-2.3135,-2.3135,-2.3135,-2.3135,-2.3135,-2.3135,-2.2589,-2.2403,-2.3047,-2.2589,-2.1943,-2.1391,-2.0755,-2.0124,-1.9579,-1.8411,-1.7692,-1.7692,-1.6574,-1.5832,-1.5832,-1.5832,-1.5832,-1.5832,-1.5832,-1.5832,-1.5832,-1.5832,-1.5832,-1.5832,-1.5832,-1.5832,-1.5832,-1.5832,-1.5832,0.0,0.0,0.0,0.0,0.0,0.0,0.0,-1.5792,-1.5832,-1.5832,-1.5832,-1.5832,-1.5832,-1.5832,-1.5832,-1.5832,-1.5832,-1.5832,-1.5832,-1.5832,-1.5832,-1.5832,-1.5832,-1.5832,-1.5832,-1.5832,-1.5832,-1.5832,-1.5832,-1.5832,-1.5832,-1.5832,-1.5832,-1.5832,-1.5832,-1.5832,-1.5832,-1.5832,-1.5832,-1.5832,-1.5832,-1.5832,-1.5832,-1.5832,-1.5832,-1.5832,-1.5832,-1.5832,-1.5832,-1.5832,-1.5832,-1.5832,-1.5832,-1.7023,-1.8856,-1.9039,-1.9943,-2.1025,-2.1203,-2.212,-2.3135,-2.3135,-2.3135,-2.3135,-2.3135,-2.3135,-2.3135,-2.3135,-2.3135,-2.3135,-2.3135,-2.3135,-2.3135,-2.3135,-2.3135,-2.3135,-2.3135,-2.3135,-2.3135,-2.3135,-2.295,-2.2775,-2.2775,-2.1756,-2.1391,-2.2589,-2.1756,-2.0845,-2.0657,-1.9761,-1.9039,-1.8856,-1.7956,-1.7318,-1.7318,-1.6386,-1.5832,-1.5832,-1.5832,-1.5832,-1.5832,-1.5832,-1.5832,-1.5832,-1.5832,-1.5832,-1.5832,-1.5832,-1.5832,-1.5832,-1.5832,-1.5832,-1.2124,-1.3818,-1.488,-1.5003,-1.5204,-1.5404,0.0,-1.5645,-1.5832,-1.5832,-1.5832,-1.5832,-1.5832,-1.5832,-1.5832,-1.5832,-1.5832,-1.5832,-1.5832,-1.5832,-1.5832,-1.5832,-1.5832,-1.5832,-1.5832,-1.5832,-1.5832,-1.5832,-1.5832,-1.5832,-1.5832,-1.5832,-1.5832,-1.5832,-1.5832,-1.5832,-1.5832,-1.5832,-1.5832,-1.5832,-1.5832,-1.5832,-1.5832,-1.5832,-1.5832,-1.5832,-1.5832,-1.5832,-1.5832,-1.5832,-1.5832,-1.5832,-1.5832,-1.6015,-1.6379,-1.7498,-1.8688,-1.9852,-2.0935,-2.212,-2.3135,-2.3135,-2.3135,-2.3135,-2.3135,-2.3135,-2.3135,-2.3135,-2.3135,-2.3135,-2.3135,-2.3135,-2.3135,-2.3135,-2.3135,-2.3135,-2.3135,-2.3135,-2.3135,-2.3135,-2.2217,-2.148,-2.148,-2.0486,-2.0124,-2.1302,-2.0486,-1.9314,-1.8234,-1.7963,-1.7498,-1.6285,-1.6103,-1.6015,-1.6015,-1.5927,-1.5832,-1.5832,-1.5832,-1.5832,-1.5832,-1.5832,-1.5832,-1.5832,-1.5832,-1.5832,-1.5832,-1.5832,-1.5832,-1.5832,-1.5832,-1.5832,-1.0809,-1.2487,-1.3498,-1.3661,-1.3785,-1.3954,-1.4284,-1.454,-1.4766,-1.5602,-1.5832,-1.5832,-1.5832,-1.5832,-1.5832,-1.5832,-1.5832,-1.5832,-1.5832,-1.5832,-1.5832,-1.5832,-1.5832,-1.5832,-1.5832,-1.5832,-1.5832,-1.5832,-1.5832,-1.5832,-1.5832,-1.5832,-1.5832,-1.5832,-1.5832,-1.5832,-1.5832,-1.5832,-1.5919,-1.6086,-1.6086,-1.6172,-1.6339,-1.6339,-1.6339,-1.6339,-1.6339,-1.6339,-1.6339,-1.6339,-1.6339,-1.6339,-1.6339,-1.6339,-1.6397,-1.6517,-1.7855,-1.9579,-2.0124,-2.1489,-2.3135,-2.3135,-2.3135,-2.3135,-2.3135,-2.3135,-2.3135,-2.3135,-2.3135,-2.3135,-2.3135,-2.3135,-2.3135,-2.3135,-2.3135,-2.3135,-2.3135,-2.3135,-2.3135,-2.3135,-2.212,-2.1293,-2.1293,-1.9761,-1.8588,-1.9131,-1.8772,-1.8226,-1.7777,-1.7037,-1.6386,-1.5832,-1.5832,-1.5832,-1.5832,-1.5832,-1.5832,-1.5832,-1.5832,-1.5832,-1.5832,-1.5832,-1.5832,-1.5832,-1.5832,-1.5832,-1.5832,-1.5832,-1.5832,-1.5832,-1.5832,-1.5832,-0.9662,-1.095,-1.1854,-1.2122,-1.2218,-1.246,-1.2837,-1.3031,-1.3561,-1.4899,-1.5285,-1.5343,-1.573,-1.5832,-1.5832,-1.5832,-1.5832,-1.5832,-1.5832,-1.5832,-1.5832,-1.5832,-1.5832,-1.5832,-1.5832,-1.5832,-1.5832,-1.5832,-1.5832,-1.5832,-1.5832,-1.5832,-1.5832,-1.5832,-1.5832,-1.5832,-1.5832,-1.5912,-1.6059,-1.6273,-1.6353,-1.6506,-1.6707,-1.6707,-1.6707,-1.6707,-1.6707,-1.6707,-1.6707,-1.6707,-1.6707,-1.6707,-1.6707,-1.6707,-1.6653,-1.6601,-1.7938,-1.9886,-2.0623,-2.2006,-2.3496,-2.3496,-2.3496,-2.3496,-2.3496,-2.3496,-2.3496,-2.3496,-2.3496,-2.3496,-2.3496,-2.3496,-2.3496,-2.3496,-2.3496,-2.3496,-2.3496,-2.313,-2.2942,-2.2942,-2.1635,-2.0514,-2.0514,-1.8777,-1.7392,-1.7392,-1.7392,-1.7326,-1.7153,-1.6386,-1.5832,-1.5832,-1.5832,-1.5832,-1.5832,-1.5832,-1.5832,-1.5832,-1.5832,-1.5832,-1.5832,-1.5832,-1.5832,-1.5832,-1.5832,-1.5832,-1.5832,-1.5832,-1.5832,-1.5832,-1.5832,-1.5832,-0.889,-0.9749,-1.0611,-1.0621,-1.087,-1.1127,-1.1138,-1.1482,-1.2183,-1.352,-1.3903,-1.4364,-1.5534,-1.5832,-1.5832,-1.5832,-1.5832,-1.5832,-1.5832,-1.5832,-1.5832,-1.5832,-1.5832,-1.5832,-1.5832,-1.5832,-1.5832,-1.5832,-1.5832,-1.5832,-1.5832,-1.5832,-1.5832,-1.5832,-1.5832,-1.5832,-1.5832,-1.6112,-1.6266,-1.6279,-1.656,-1.67,-1.6707,-1.6707,-1.6707,-1.6707,-1.6707,-1.6707,-1.6707,-1.6707,-1.6707,-1.6707,-1.6707,-1.6707,-1.69,-1.8142,-1.9482,-2.092,-2.3411,-2.4283,-2.4375,-2.4375,-2.4375,-2.4375,-2.4375,-2.4375,-2.4375,-2.4375,-2.4375,-2.4375,-2.4375,-2.4375,-2.4375,-2.4375,-2.4375,-2.4375,-2.4375,-2.3327,-2.238,-2.238,-2.0352,-1.8618,-1.8618,-1.7556,-1.678,-1.678,-1.678,-1.6473,-1.5905,-1.5825,-1.5832,-1.5832,-1.5832,-1.5832,-1.5832,-1.5832,-1.5832,-1.5832,-1.5832,-1.5832,-1.5832,-1.5832,-1.5832,-1.5832,-1.5832,-1.5832,-1.5832,-1.5832,-1.5832,-1.5832,-1.5832,-1.5832,-0.889,-0.9148,-0.9492,-0.9492,-0.9547,-0.9716,-0.9848,-1.0076,-1.0679,-1.2052,-1.3222,-1.407,-1.4459,-1.5242,-1.5832,-1.5832,-1.5832,-1.5832,-1.5832,-1.5832,-1.5832,-1.5832,-1.5832,-1.5832,-1.5832,-1.5832,-1.5832,-1.5832,-1.5832,-1.5832,-1.5832,-1.5832,-1.5832,-1.5832,-1.5832,-1.5925,-1.6119,-1.6219,-1.6473,-1.686,-1.7148,-1.7288,-1.7288,-1.7288,-1.7288,-1.7288,-1.7288,-1.7288,-1.7288,-1.7288,-1.7288,-1.7288,-1.7288,-1.7288,-1.7488,-1.8796,-1.9595,-2.0224,-2.2491,-2.3177,-2.3177,-2.4127,-2.4414,-2.4414,-2.4414,-2.4414,-2.4414,-2.4414,-2.4414,-2.4414,-2.4414,-2.4414,-2.4414,-2.4414,-2.3746,-2.3271,-2.4229,-2.269,-2.1353,-2.2227,-2.0289,-1.8459,-1.8459,-1.7484,-1.6707,-1.6707,-1.6707,-1.6567,-1.6172,-1.6126,-1.6046,-1.5852,-1.5832,-1.5832,-1.5832,-1.5832,-1.5832,-1.5832,-1.5832,-1.5832,-1.5832,-1.5832,-1.5832,-1.5832,-1.5832,-1.5832,-1.5832,-1.5832,-1.5832,-1.5832,-1.5832,-1.5832,-0.8277,-0.8277,-0.8277,-0.8277,-0.8277,-0.8308,-0.8508,-0.8714,-0.9189,-1.0613,-1.1728,-1.2807,-1.368,-1.4555,-1.5242,-1.573,-1.5832,-1.5832,-1.5832,-1.5832,-1.5832,-1.5832,-1.5832,-1.5832,-1.5832,-1.5832,-1.5832,-1.5832,-1.5832,-1.5832,-1.5832,-1.5832,-1.5832,-1.5832,-1.5832,-1.5972,-1.6273,-1.638,-1.6727,-1.7308,-1.7495,-1.7582,-1.7582,-1.7582,-1.7582,-1.7582,-1.7582,-1.7582,-1.7582,-1.7582,-1.7582,-1.7582,-1.7582,-1.7582,-1.7786,-1.9117,-1.9627,-1.9979,-2.2212,-2.2934,-2.3126,-2.4402,-2.4883,-2.4883,-2.4883,-2.4883,-2.4883,-2.4883,-2.4883,-2.4883,-2.4883,-2.4883,-2.4694,-2.4288,-2.3509,-2.2934,-2.3308,-2.1641,-2.0375,-2.126,-1.969,-1.821,-1.821,-1.7516,-1.7021,-1.7021,-1.7021,-1.6874,-1.648,-1.6426,-1.6353,-1.6159,-1.6146,-1.6099,-1.5999,-1.5985,-1.5945,-1.5838,-1.5832,-1.5832,-1.5832,-1.5832,-1.5832,-1.5832,-1.5832,-1.5832,-1.5832,-1.5832,-1.5832,-1.5832,-1.5832,-1.5885,-0.7139,-0.7139,-0.7139,-0.7139,-0.7139,-0.7139,-0.7139,-0.738,-0.7966,-0.9153,-0.9731,-1.0774,-1.3199,-1.3776,-1.4268,-1.5534,-1.573,-1.573,-1.5825,-1.5832,-1.5832,-1.5832,-1.5832,-1.5832,-1.5832,-1.5832,-1.5832,-1.5832,-1.5832,-1.5832,-1.5832,-1.5832,-1.5832,-1.5832,-1.5845,-1.5992,-1.6293,-1.66,-1.7027,-1.7582,-1.7582,-1.7582,-1.7582,-1.7582,-1.7582,-1.7582,-1.7582,-1.7582,-1.7582,-1.7582,-1.7582,-1.7582,-1.7582,-1.7582,-1.7786,-1.9117,-1.9524,-1.993,-2.2676,-2.3692,-2.389,-2.5226,-2.5742,-2.5742,-2.5742,-2.5742,-2.5742,-2.5742,-2.5742,-2.5742,-2.5742,-2.5742,-2.5333,-2.3998,-2.3683,-2.3276,-2.1954,-2.0538,-1.9531,-1.9627,-1.8506,-1.7582,-1.7582,-1.7582,-1.7582,-1.7582,-1.7582,-1.7375,-1.68,-1.6727,-1.6727,-1.6707,-1.6707,-1.6593,-1.6319,-1.6293,-1.6172,-1.5892,-1.5872,-1.5872,-1.5872,-1.5872,-1.5872,-1.5872,-1.5872,-1.5872,-1.5872,-1.5872,-1.5872,-1.5872,-1.5872,-1.6025,-0.7139,-0.7139,-0.7139,-0.7139,-0.7139,-0.7139,-0.7139,-0.738,-0.7691,-0.8059,-0.9076,-1.019,-1.0872,-1.175,-1.2813,-1.4172,-1.4364,-1.4752,-1.5635,-1.5832,-1.5832,-1.5832,-1.5832,-1.5832,-1.5832,-1.5832,-1.5832,-1.5832,-1.5832,-1.5832,-1.5832,-1.5832,-1.5832,-1.5832,-1.6046,-1.6299,-1.6593,-1.7101,-1.7435,-1.7582,-1.7582,-1.7582,-1.7582,-1.7582,-1.7582,-1.7582,-1.7582,-1.7582,-1.7582,-1.7582,-1.7582,-1.7582,-1.7582,-1.7582,-1.7786,-1.9117,-1.9013,-1.8603,-2.2366,-2.3692,-2.389,-2.5226,-2.5742,-2.5742,-2.5742,-2.5742,-2.5742,-2.5742,-2.5742,-2.5742,-2.5742,-2.5742,-2.5333,-2.3998,-2.2968,-2.2156,-2.1752,-1.9826,-1.8401,-1.9428,-1.8506,-1.7582,-1.7582,-1.7582,-1.7582,-1.7582,-1.7582,-1.7448,-1.7081,-1.7034,-1.6947,-1.6727,-1.6707,-1.6673,-1.66,-1.6593,-1.6567,-1.6486,-1.648,-1.648,-1.648,-1.648,-1.648,-1.648,-1.648,-1.648,-1.648,-1.648,-1.648,-1.648,-1.648,-1.6526,-0.7139,-0.7139,-0.7139,-0.7139,-0.7139,-0.7139,-0.7139,-0.738,-0.76,-0.76,-0.8408,-0.9312,-0.9903,-1.0583,-1.1653,-1.3584,-1.3878,-1.4364,-1.5635,-1.5832,-1.5832,-1.5832,-1.5832,-1.5832,-1.5832,-1.5832,-1.5832,-1.5832,-1.5832,-1.5832,-1.5832,-1.5832,-1.5832,-1.5832,-1.5992,-1.6279,-1.67,-1.7288,-1.7582,-1.7582,-1.7582,-1.7582,-1.7582,-1.7582,-1.7582,-1.7582,-1.7582,-1.7582,-1.7582,-1.7582,-1.7582,-1.7582,-1.7582,-1.7582,-1.7687,-1.8401,-1.8603,-1.8909,-2.1853,-2.2868,-2.3176,-2.5118,-2.5742,-2.5742,-2.5742,-2.5742,-2.5742,-2.5742,-2.5742,-2.5742,-2.5742,-2.5742,-2.5226,-2.3276,-2.2257,-2.1347,-2.0128,-1.8708,-1.7786,-1.861,-1.8094,-1.7582,-1.7582,-1.7582,-1.7582,-1.7582,-1.7582,-1.7522,-1.7361,-1.7341,-1.7275,-1.7108,-1.7088,-1.7041,-1.6914,-1.6901,-1.6847,-1.6714,-1.6707,-1.6707,-1.6707,-1.6707,-1.6707,-1.6707,-1.6707,-1.6707,-1.6707,-1.6707,-1.6707,-1.6707,-1.6707,-1.6774,-0.7139,-0.7139,-0.7139,-0.7139,-0.7139,-0.7139,-0.7139,-0.7451,-0.7844,-0.7844,-0.7976,-0.8572,-0.9763,-0.9768,-1.0547,-1.3193,-1.3584,-1.4166,-1.5629,-1.5832,-1.5832,-1.5832,-1.5832,-1.5832,-1.5832,-1.5832,-1.5832,-1.5832,-1.5832,-1.5832,-1.5832,-1.5832,-1.5845,-1.5885,-1.5925,-1.6206,-1.676,-1.7308,-1.7582,-1.7582,-1.7582,-1.7582,-1.7582,-1.7582,-1.7582,-1.7582,-1.7582,-1.7582,-1.7582,-1.7582,-1.7582,-1.7582,-1.7582,-1.7582,-1.7582,-1.7786,-1.8506,-1.9524,-2.1143,-2.155,-2.1853,-2.4815,-2.5538,-2.543,-2.5635,-2.5742,-2.5742,-2.5742,-2.5742,-2.5742,-2.5742,-2.5742,-2.502,-2.2357,-2.1752,-2.0939,-1.8192,-1.7582,-1.7582,-1.7582,-1.7582,-1.7582,-1.7582,-1.7582,-1.7582,-1.7582,-1.7582,-1.7582,-1.7582,-1.7582,-1.7582,-1.7582,-1.7582,-1.7482,-1.7228,-1.7208,-1.7094,-1.684,-1.682,-1.682,-1.682,-1.682,-1.682,-1.682,-1.682,-1.682,-1.682,-1.682,-1.682,-1.682,-1.682,-1.6961,-0.7404,-0.7139,-0.7139,-0.7139,-0.7139,-0.7139,-0.7139,-0.7986,-0.8844,-0.8844,-0.8922,-0.9206,-0.9548,-0.881,-0.9046,-1.1818,-1.2237,-1.3108,-1.5439,-1.5832,-1.5832,-1.5832,-1.5832,-1.5832,-1.5832,-1.5832,-1.5832,-1.5832,-1.5832,-1.5832,-1.5832,-1.5832,-1.5939,-1.6186,-1.6433,-1.672,-1.7068,-1.7415,-1.7582,-1.7582,-1.7582,-1.7582,-1.7582,-1.7582,-1.7582,-1.7582,-1.7582,-1.7582,-1.7582,-1.7582,-1.7582,-1.7582,-1.7582,-1.7582,-1.7681,-1.8812,-1.8708,-1.8297,-2.0837,-2.0939,-2.0649,-2.4412,-2.4922,-2.4205,-2.5333,-2.5742,-2.5742,-2.5742,-2.5742,-2.5742,-2.5742,-2.5742,-2.502,-2.2357,-2.1752,-2.0939,-1.8192,-1.7582,-1.7582,-1.7582,-1.7582,-1.7582,-1.7582,-1.7582,-1.7582,-1.7582,-1.7582,-1.7582,-1.7582,-1.7582,-1.7582,-1.7582,-1.7582,-1.7562,-1.7508,-1.7508,-1.7482,-1.7435,-1.7428,-1.7428,-1.7428,-1.7428,-1.7428,-1.7428,-1.7428,-1.7428,-1.7428,-1.7428,-1.7428,-1.7428,-1.7428,-1.7462,-0.8364,-0.8013,-0.7929,-0.7228,-0.7139,-0.7228,-0.7929,-0.8581,-0.9242,-0.9871,-1.0122,-1.0292,-1.03,-1.0022,-1.04,-1.2321,-1.2827,-1.359,-1.5534,-1.5832,-1.5832,-1.5832,-1.5832,-1.5832,-1.5832,-1.5832,-1.5832,-1.5832,-1.5832,-1.5832,-1.5832,-1.5832,-1.5892,-1.6039,-1.6326,-1.662,-1.6914,-1.7208,-1.7435,-1.7582,-1.7582,-1.7582,-1.7582,-1.7582,-1.7582,-1.7582,-1.7582,-1.7582,-1.7582,-1.7582,-1.7582,-1.7582,-1.7582,-1.7582,-1.7687,-1.8304,-1.8199,-1.7891,-1.993,-1.9723,-1.9117,-2.2567,-2.3692,-2.3683,-2.3692,-2.4609,-2.543,-2.3998,-2.4097,-2.451,-2.3791,-2.3592,-2.3076,-2.1049,-2.0025,-1.9213,-1.7891,-1.7582,-1.7582,-1.7582,-1.7582,-1.7582,-1.7582,-1.7582,-1.7582,-1.7582,-1.7582,-1.7582,-1.7582,-1.7582,-1.7582,-1.7582,-1.7582,-1.7582,-1.7582,-1.7582,-1.7582,-1.7582,-1.7582,-1.7582,-1.7582,-1.7582,-1.7582,-1.7582,-1.7582,-1.7582,-1.7582,-1.7582,-1.7582,-1.7582,-1.7582,-1.7582,-0.9579,-0.9235,-0.9061,-0.8097,-0.7837,-0.8097,-0.9061,-0.9522,-1.007,-1.0962,-1.1279,-1.1413,-1.1374,-1.1338,-1.1771,-1.3187,-1.3661,-1.4297,-1.5622,-1.5832,-1.5832,-1.5832,-1.5832,-1.5832,-1.5832,-1.5832,-1.5832,-1.5832,-1.5832,-1.5832,-1.5832,-1.5832,-1.5832,-1.5832,-1.6119,-1.638,-1.6613,-1.6907,-1.7201,-1.7488,-1.7488,-1.7522,-1.7582,-1.7582,-1.7582,-1.7582,-1.7582,-1.7582,-1.7582,-1.7582,-1.7582,-1.7582,-1.7582,-1.7582,-1.7582,-1.7582,-1.7582,-1.7786,-1.8812,-1.8506,-1.7996,-2.0128,-2.1752,-2.2676,-2.1954,-2.3176,-2.4402,-2.2257,-2.2466,-2.3076,-2.1954,-2.1752,-2.1347,-1.993,-1.861,-1.7582,-1.7582,-1.7582,-1.7582,-1.7582,-1.7582,-1.7582,-1.7582,-1.7582,-1.7582,-1.7582,-1.7582,-1.7582,-1.7582,-1.7582,-1.7582,-1.7582,-1.7582,-1.7582,-1.7582,-1.7582,-1.7582,-1.7582,-1.7582,-1.7582,-1.7582,-1.7582,-1.7582,-1.7582,-1.7582,-1.7582,-1.7582,-1.7582,-1.7582,-1.7582,-1.7582,-1.7582,-1.0778,-1.0438,-1.0438,-1.0351,-1.0265,-1.0351,-1.0438,-1.1225,-1.2015,-1.2106,-1.2209,-1.221,-1.2451,-1.162,-1.1408,-1.313,-1.3415,-1.399,-1.5596,-1.5832,-1.5832,-1.5832,-1.5832,-1.5832,-1.5832,-1.5832,-1.5832,-1.5832,-1.5832,-1.5832,-1.5832,-1.5832,-1.5832,-1.5832,-1.6119,-1.6286,-1.6313,-1.66,-1.6894,-1.7188,-1.7188,-1.7328,-1.7582,-1.7582,-1.7582,-1.7582,-1.7582,-1.7582,-1.7582,-1.7582,-1.7582,-1.7582,-1.7582,-1.7582,-1.7582,-1.7582,-1.7582,-1.7582,-1.7793,-1.7681,-1.7687,-1.7884,-1.8916,-2.0238,-2.1347,-2.1853,-2.2055,-2.1752,-2.1752,-2.1853,-2.1752,-2.1752,-2.1347,-1.993,-1.861,-1.7582,-1.7582,-1.7582,-1.7582,-1.7582,-1.7582,-1.7582,-1.7582,-1.7582,-1.7582,-1.7582,-1.7582,-1.7582,-1.7582,-1.7582,-1.7582,-1.7582,-1.7582,-1.7582,-1.7582,-1.7582,-1.7582,-1.7582,-1.7582,-1.7582,-1.7582,-1.7582,-1.7582,-1.7582,-1.7582,-1.7582,-1.7582,-1.7582,-1.7582,-1.7582,-1.7582,-1.7582,-1.1901,-1.1638,-1.1466,-1.0783,-1.0611,-1.0783,-1.1472,-1.1986,-1.2498,-1.3203,-1.3379,-1.3417,-1.3531,-1.3244,-1.3246,-1.3912,-1.4409,-1.4862,-1.5458,-1.5718,-1.5832,-1.5832,-1.5832,-1.5832,-1.5832,-1.5832,-1.5832,-1.5832,-1.5832,-1.5832,-1.5832,-1.5832,-1.5832,-1.5832,-1.5945,-1.6092,-1.6273,-1.6386,-1.6593,-1.6881,-1.6881,-1.6941,-1.7054,-1.7054,-1.7054,-1.7054,-1.7054,-1.7054,-1.7054,-1.7054,-1.7054,-1.7054,-1.7054,-1.7054,-1.7054,-1.7054,-1.7668,-1.843,-1.7626,-1.7943,-1.8708,-1.7891,-1.7996,-1.8506,-1.9109,-2.0436,-2.1347,-1.9723,-1.9826,-2.0231,-1.9413,-1.9213,-1.9109,-1.8506,-1.7996,-1.7582,-1.7582,-1.7582,-1.7582,-1.7582,-1.7582,-1.7582,-1.7582,-1.7582,-1.7582,-1.7582,-1.7582,-1.7582,-1.7582,-1.7582,-1.7582,-1.7582,-1.7582,-1.7582,-1.7582,-1.7582,-1.7582,-1.7582,-1.7582,-1.7582,-1.7582,-1.7582,-1.7582,-1.7582,-1.7582,-1.7582,-1.7582,-1.7582,-1.7582,-1.7582,-1.7582,-1.7582,-1.3027,-1.2851,-1.2681,-1.1821,-1.1649,-1.1821,-1.2681,-1.2851,-1.3033,-1.3913,-1.4088,-1.4088,-1.4088,-1.4255,-1.4422,0.0,-1.4943,-1.5297,-1.5384,-1.5645,-1.5832,-1.5832,-1.5832,-1.5832,-1.5832,-1.5832,-1.5832,-1.5832,-1.5832,-1.5832,-1.5832,-1.5832,-1.5832,-1.5832,-1.5832,-1.5925,-1.6139,-1.6146,-1.6286,-1.658,-1.658,-1.662,-1.6707,-1.6707,-1.6707,-1.6707,-1.6707,-1.6707,-1.6707,-1.6707,-1.6707,-1.6707,-1.6707,-1.6707,-1.6707,-1.6707,-1.7624,-1.8807,-1.7516,-1.8048,-1.9154,-1.8344,-1.7762,-1.7573,-1.8073,-1.9317,-2.0128,-1.8094,-1.8297,-1.8812,-1.7891,-1.7582,-1.7582,-1.7582,-1.7582,-1.7582,-1.7582,-1.7582,-1.7582,-1.7582,-1.7582,-1.7582,-1.7582,-1.7582,-1.7582,-1.7582,-1.7582,-1.7582,-1.7582,-1.7582,-1.7582,-1.7582,-1.7582,-1.7582,-1.7582,-1.7582,-1.7582,-1.7582,-1.7582,-1.7582,-1.7582,-1.7582,-1.7582,-1.7582,-1.7582,-1.7582,-1.7582,-1.7582,-1.7582,-1.7582,-1.7582,-1.7582,-1.4088,-1.4088,-1.4088,-1.4088,-1.4088,-1.4088,-1.4088,-1.4088,-1.4088,-1.4088,-1.4088,-1.4088,-1.4088,-1.4088,-1.4182,-1.4476,-1.477,-1.507,-1.5357,-1.5645,-1.5832,-1.5832,-1.5832,-1.5832,-1.5832,-1.5832,-1.5832,-1.5832,-1.5832,-1.5832,-1.5832,-1.5832,-1.5832,-1.5832,-1.5832,-1.5832,-1.5832,-1.5832,-1.5985,-1.6279,-1.6279,-1.6426,-1.6707,-1.6707,-1.6707,-1.6707,-1.6707,-1.6707,-1.6707,-1.6707,-1.6707,-1.6707,-1.6707,-1.6707,-1.6707,-1.6707,-1.7491,-1.8368,-1.71,-1.7491,-1.8624,-1.9044,-1.8259,-1.751,-1.9125,-1.8708,-1.7687,-1.7582,-1.7582,-1.7582,-1.7582,-1.7582,-1.7582,-1.7582,-1.7582,-1.7582,-1.7582,-1.7582,-1.7582,-1.7582,-1.7582,-1.7582,-1.7582,-1.7582,-1.7582,-1.7582,-1.7582,-1.7582,-1.7582,-1.7582,-1.7582,-1.7582,-1.7582,-1.7582,-1.7582,-1.7582,-1.7582,-1.7582,-1.7582,-1.7582,-1.7582,-1.7582,-1.7582,-1.7582,-1.7582,-1.7582,-1.7582,-1.7582,-1.7582,-1.7582,-1.7582,-1.7582,-1.4088,-1.4088,-1.4088,-1.4088,-1.4088,-1.4088,-1.4088,-1.4088,-1.4088,-1.4088,-1.4088,-1.4088,-1.4088,-1.4088,-1.4115,-1.4208,-1.4469,-1.4763,-1.5057,-1.5351,-1.5605,-1.5805,-1.5832,-1.5832,-1.5832,-1.5832,-1.5832,-1.5832,-1.5832,-1.5832,-1.5832,-1.5832,-1.5832,-1.5832,-1.5832,-1.5832,-1.5832,-1.5832,-1.5879,-1.5972,-1.5972,-1.6019,-1.6106,-1.6106,-1.6106,-1.6106,-1.6106,-1.6106,-1.6106,-1.6106,-1.6106,-1.6106,-1.6106,-1.6106,-1.6106,-1.6106,-1.7084,-1.8223,-1.689,-1.7408,-1.8474,-1.7696,-1.7237,-1.6962,-1.7447,-1.7565,-1.7582,-1.7582,-1.7582,-1.7582,-1.7582,-1.7582,-1.7582,-1.7582,-1.7582,-1.7582,-1.7582,-1.7582,-1.7582,-1.7582,-1.7582,-1.7582,-1.7582,-1.7582,-1.7582,-1.7582,-1.7582,-1.7582,-1.7582,-1.7582,-1.7582,-1.7582,-1.7582,-1.7582,-1.7582,-1.7582,-1.7582,-1.7582,-1.7582,-1.7582,-1.7582,-1.7582,-1.7582,-1.7582,-1.7582,-1.7582,-1.7582,-1.7582,-1.7582,-1.7582,-1.7582,-1.7582,-1.4088,-1.4088,-1.4088,-1.4088,-1.4088,-1.4088,-1.4088,-1.4088,-1.4088,-1.4088,-1.4088,-1.4088,-1.4088,-1.4088,-1.4088,-1.4088,-1.4335,-1.4623,-1.4923,-1.5211,-1.5504,-1.5792,-1.5832,-1.5832,-1.5832,-1.5832,-1.5832,-1.5832,-1.5832,-1.5832,-1.5832,-1.5832,-1.5832,-1.5832,-1.5832,-1.5832,-1.5832,-1.5832,-1.5832,-1.5832,-1.5832,-1.5832,-1.5832,-1.5832,-1.5832,-1.5832,-1.5832,-1.5832,0.0,-1.5832,-1.5832,-1.5832,-1.5832,-1.5832,-1.5832,-1.5832,-1.6781,-1.7896,-1.658,-1.7077,-1.8208,-1.7569,-1.7386,-1.7385,-1.68,-1.7041,-1.7442,-1.7549,-1.7582,-1.7582,-1.7582,-1.7582,-1.7582,-1.7582,-1.7582,-1.7582,-1.7582,-1.7582,-1.7582,-1.7582,-1.7582,-1.7582,-1.7582,-1.7582,-1.7582,-1.7582,-1.7582,-1.7582,-1.7582,-1.7582,-1.7582,-1.7582,-1.7582,-1.7582,-1.7582,-1.7582,-1.7582,-1.7582,-1.7582,-1.7582,-1.7582,-1.7582,-1.7582,-1.7582,-1.7582,-1.7582,-1.7582,-1.7582,-1.7582,-1.7582,-1.7582,-1.7582,0.0,-1.4166,-1.4088,-1.4088,-1.4088,-1.4088,-1.4088,-1.4088,0.0,-1.4088,-1.4088,-1.4088,-1.4088,-1.4088,-1.4088,-1.4088,-1.4315,-1.4603,-1.4917,-1.5231,-1.5524,-1.5798,-1.5832,-1.5832,-1.5832,-1.5832,-1.5832,-1.5832,-1.5832,-1.5832,-1.5832,-1.5832,-1.5832,-1.5832,-1.5832,-1.5832,-1.5832,-1.5832,-1.5832,-1.5832,-1.5832,-1.5832,-1.5832,-1.5832,-1.5832,-1.5832,-1.5832,-1.5832,-1.5832,-1.5832,-1.5825,-1.592,-1.5832,-1.592,-1.6008,-1.6015,-1.6756,-1.7684,-1.6386,-1.6669,-1.7736,-1.8035,-1.8334,-1.8294,-1.7059,-1.6881,-1.7174,-1.7442,-1.7535,-1.7549,-1.7549,-1.7569,-1.7582,-1.7582,-1.7582,-1.7582,-1.7582,-1.7582,-1.7582,-1.7582,-1.7582,-1.7582,-1.7582,-1.7582,-1.7582,-1.7582,-1.7582,-1.7582,-1.7582,-1.7582,-1.7582,-1.7582,-1.7582,-1.7582,-1.7582,-1.7582,-1.7582,-1.7582,-1.7582,-1.7582,-1.7582,-1.7582,-1.7582,-1.7582,-1.7582,-1.7582,-1.7582,-1.7582,-1.7582,-1.7582,-1.7582,-1.7582,-1.5296,0.0,-1.4088,-1.4088,-1.4088,-1.4088,0.0,-1.4088,-1.4088,-1.4088,-1.4088,-1.4088,-1.4088,-1.4088,-1.4088,-1.4088,-1.4142,-1.4369,-1.489,-1.5404,-1.5752,-1.5818,-1.5832,-1.5832,-1.5832,-1.5832,-1.5832,-1.5832,-1.5832,-1.5832,-1.5832,-1.5832,-1.5832,-1.5832,-1.5832,-1.5832,-1.5832,-1.5832,-1.5832,-1.5832,-1.5832,-1.5832,-1.5832,-1.5832,-1.5832,-1.5832,-1.5832,-1.5832,-1.5832,-1.5832,-1.6386,-1.7131,-1.6204,-1.6929,-1.8488,-1.7584,-1.8048,-1.8864,-1.7677,-1.7412,-1.7512,-1.6651,-1.6443,-1.645,-1.6397,-1.658,-1.682,-1.6894,-1.7074,-1.7248,-1.7248,-1.7415,-1.7582,-1.7582,-1.7582,-1.7582,-1.7582,-1.7582,-1.7582,-1.7582,-1.7582,-1.7582,-1.7582,-1.7582,-1.7582,-1.7582,-1.7582,-1.7582,-1.7582,-1.7582,-1.7582,-1.7582,-1.7582,-1.7582,-1.7582,-1.7582,-1.7582,-1.7582,-1.7582,-1.7582,-1.7582,-1.7582,-1.7582,-1.7582,-1.7582,-1.7582,-1.7582,-1.7582,-1.7582,-1.7582,-1.7582,-1.7582,-1.5861,-1.4894,-1.4088,-1.4088,-1.4088,-1.4088,-1.4088,-1.4088,-1.4088,-1.4088,-1.4489,-1.465,-1.4166,-1.4489,-1.465,-1.4166,-1.4088,-1.4289,-1.4883,-1.5464,-1.5832,-1.5832,-1.5832,-1.5832,-1.5832,-1.5832,-1.5832,-1.5832,-1.5832,-1.5832,-1.5832,-1.5832,-1.5832,-1.5832,-1.5832,-1.5832,-1.5832,-1.5832,-1.5832,-1.5832,-1.5832,-1.5832,-1.5832,-1.5832,-1.5832,-1.5832,-1.5832,-1.5832,-1.5832,-1.5832,-1.6204,-1.6763,-1.6109,-1.6936,-1.8495,-1.7311,-1.7948,-1.9222,-1.749,-1.6857,-1.6662,-1.6015,-1.5832,-1.5858,-1.6019,-1.6179,-1.6359,-1.6627,-1.682,-1.6947,-1.6947,-1.7061,-1.7181,-1.7181,-1.7181,-1.7215,-1.7355,-1.7382,-1.7422,-1.7555,-1.7582,-1.7582,-1.7582,-1.7582,-1.7582,-1.7582,-1.7582,-1.7582,-1.7582,-1.7582,-1.7582,-1.7582,-1.7582,-1.7582,-1.7582,-1.7582,-1.7582,-1.7582,-1.7582,-1.7582,-1.7582,-1.7582,-1.7582,-1.7582,-1.7582,-1.7582,-1.7582,-1.7582,-1.7582,-1.7582,-1.7582,-1.7582,-1.6429,-1.5379,-1.4496,-1.4166,-1.4088,-1.4088,-1.4088,-1.4088,-1.4173,-1.4328,-1.4977,-1.522,-1.4489,-1.4977,-1.5137,-1.425,-1.4122,-1.4342,-1.489,-1.5424,-1.5778,-1.5825,-1.5832,-1.5832,-1.5832,-1.5832,-1.5832,-1.5832,-1.5832,-1.5832,-1.5832,-1.5832,-1.5832,-1.5832,-1.5832,-1.5832,-1.5832,-1.5832,-1.5832,-1.5832,-1.5832,-1.5832,-1.5832,-1.5832,-1.5832,-1.5832,-1.5832,-1.5832,-1.5832,-1.5832,-1.592,-1.6109,-1.5927,-1.6662,-1.7777,-1.6574,-1.7576,-1.9123,-1.6842,-1.592,-1.5832,-1.5832,-1.5832,-1.5832,-1.5832,-1.5832,-1.5932,-1.6433,-1.6607,-1.664,-1.664,-1.6673,-1.6707,-1.6707,-1.6707,-1.6774,-1.7027,-1.7081,-1.7154,-1.7402,-1.7482,-1.7515,-1.7515,-1.7555,-1.7582,-1.7582,-1.7582,-1.7582,-1.7582,-1.7582,-1.7582,-1.7582,-1.7582,-1.7582,-1.7582,-1.7582,-1.7582,-1.7582,-1.7582,-1.7582,-1.7582,-1.7582,-1.7582,-1.7582,-1.7582,-1.7582,-1.7582,-1.7582,-1.7582,-1.7582,-1.7582,-1.7582,-1.855,-1.7658,-1.6363,-1.458,-1.4088,-1.4088,-1.4088,-1.4088,-1.4328,-1.5304,-1.4894,-1.4573,-1.5296,-1.4817,-1.4328,-1.4173,-1.4295,-1.4576,-1.4917,-1.5251,-1.5558,-1.5798,-1.5832,-1.5832,-1.5832,-1.5832,-1.5832,-1.5832,-1.5832,-1.5832,-1.5832,-1.5832,-1.5832,-1.5832,-1.5832,-1.5832,-1.5832,-1.5832,-1.5832,-1.5832,-1.5832,-1.5832,-1.5832,-1.5832,-1.5832,-1.5832,-1.5832,-1.5832,-1.5832,-1.5832,-1.648,-1.7318,-1.6197,-1.721,-1.9039,-1.7863,-1.8319,-1.9314,-1.7863,-1.6669,-1.5832,-1.5832,-1.5832,-1.5832,-1.5832,-1.5832,-1.5845,-1.5939,-1.6146,-1.6339,-1.6339,-1.652,-1.6707,-1.6707,-1.6707,-1.6714,-1.6767,-1.6774,-1.6787,-1.6827,-1.7048,-1.7215,-1.7215,-1.7422,-1.7582,-1.7582,-1.7582,-1.7582,-1.7582,-1.7582,-1.7582,-1.7582,-1.7582,-1.7582,-1.7582,-1.7582,-1.7582,-1.7582,-1.7582,-1.7582,-1.7582,-1.7582,-1.7582,-1.7582,-1.7582,-1.7582,-1.7582,-1.7582,-1.7582,-1.7582,-1.7582,-1.7582,-1.9195,-1.8638,-1.7827,-1.6206,-1.5387,-1.481,-1.425,-1.4088,-1.4412,-1.5455,-1.5786,-1.5794,-1.5703,-1.5786,-1.5477,-1.425,-1.4335,-1.4569,-1.4703,-1.511,-1.5444,-1.5578,-1.5732,-1.5832,-1.5832,-1.5832,-1.5832,-1.5832,-1.5832,-1.5832,-1.5832,-1.5832,-1.5832,-1.5832,-1.5832,-1.5832,-1.5832,-1.5832,-1.5832,-1.5832,-1.5832,-1.5832,-1.5832,-1.5832,-1.6204,-1.6857,-1.6857,-1.721,-1.7755,-1.7755,-1.8126,-1.8588,-1.8033,-1.8848,-2.0395,-1.9852,-1.8764,-1.7483,-1.7684,-1.685,-1.5832,-1.5832,-1.5832,-1.5832,-1.5832,-1.5832,-1.5832,-1.5832,-1.5925,-1.6032,-1.6032,-1.6132,-1.6233,-1.6233,-1.6233,-1.6273,-1.644,-1.6473,-1.652,-1.6673,-1.6814,-1.6907,-1.6907,-1.7021,-1.7161,-1.7328,-1.7348,-1.7408,-1.7562,-1.7582,-1.7582,-1.7582,-1.7582,-1.7582,-1.7582,-1.7582,-1.7582,-1.7582,-1.7582,-1.7582,-1.7582,-1.7582,-1.7582,-1.7582,-1.7582,-1.7582,-1.7582,-1.7582,-1.7582,-1.7582,-1.7582,-1.7582,-1.9599,-1.9289,-1.897,-1.7772,-1.6619,-1.5538,-1.4985,-1.4657,-1.4817,-1.6191,-1.6927,-1.709,-1.6601,-1.6683,-1.6363,-1.4734,-1.444,-1.4442,-1.4509,-1.491,-1.5217,-1.5291,-1.5551,-1.5732,-1.5732,-1.5792,-1.5832,-1.5832,-1.5832,-1.5832,-1.5832,-1.5832,-1.5832,-1.5832,-1.5832,-1.5832,-1.5832,-1.5832,-1.5832,-1.5832,-1.5832,-1.5832,-1.5832,-1.5832,-1.6292,-1.7225,-1.7591,-1.8234,-1.9131,-1.9405,-1.9497,-1.9497,-1.9497,-2.0034,-2.0845,-2.0845,-1.894,-1.6386,-1.7318,-1.685,-1.5832,-1.5832,-1.5832,-1.5832,-1.5832,-1.5832,-1.5832,-1.5832,-1.5832,-1.5832,-1.5832,-1.5832,-1.5832,-1.5832,-1.5832,-1.5892,-1.6119,-1.6166,-1.6233,-1.646,-1.6553,-1.6607,-1.6607,-1.666,-1.678,-1.7014,-1.7048,-1.7154,-1.7442,-1.7482,-1.7508,-1.7575,-1.7582,-1.7582,-1.7582,-1.7582,-1.7582,-1.7582,-1.7582,-1.7582,-1.7582,-1.7582,-1.7582,-1.7582,-1.7582,-1.7582,-1.7582,-1.7582,-1.7582,-1.7582,-1.7582,-1.7582,-2.0489,-2.0187,-1.9573,-1.8484,-1.6918,-1.5944,-1.6846,-1.6273,-1.6191,-1.831,-1.7989,-1.7585,-1.855,-1.7163,-1.5779,-1.5621,-1.4748,-1.4215,-1.4482,-1.4556,-1.4683,-1.4963,-1.5251,-1.5431,-1.5431,-1.5671,-1.5832,-1.5832,-1.5832,-1.5832,-1.5832,-1.5832,-1.5832,-1.5832,-1.5832,-1.5832,-1.5832,-1.5832,-1.5832,-1.5832,-1.5832,-1.5832,-1.5832,-1.5832,-1.5825,-1.6015,-1.7225,-1.7785,-1.7963,-1.9039,-1.9497,-1.9497,-1.9497,-1.9579,-1.9588,-1.9588,-1.8772,-1.7598,-1.7692,-1.685,-1.5832,-1.5832,-1.5832,-1.5832,-1.5832,-1.5832,-1.5832,-1.5832,-1.5832,-1.5832,-1.5832,-1.5832,-1.5832,-1.5832,-1.5832,-1.5838,-1.5852,-1.5865,-1.5865,-1.5885,-1.6119,-1.6306,-1.6306,-1.6526,-1.6714,-1.6734,-1.674,-1.6847,-1.7141,-1.7181,-1.7281,-1.7555,-1.7582,-1.7582,-1.7582,-1.7582,-1.7582,-1.7582,-1.7582,-1.7582,-1.7582,-1.7582,-1.7582,-1.7582,-1.7582,-1.7582,-1.7582,-1.7582,-1.7582,-1.7582,-1.7582,-1.7582,-1.9844,-1.9648,-1.9448,-1.8993,-1.7948,-1.6891,-1.6571,-1.618,-1.6236,-1.7333,-1.7527,-1.7519,-1.7578,-1.5794,-1.4427,-1.4706,-1.4328,-1.4128,-1.4235,-1.4402,-1.4563,-1.4676,-1.4943,-1.5124,-1.5124,-1.5391,-1.5558,-1.5558,-1.5732,-1.5832,-1.5832,-1.5832,-1.5832,-1.5832,-1.5832,-1.5832,-1.5832,-1.5832,-1.5832,-1.5832,-1.5832,-1.5832,-1.5832,-1.5832,-1.6204,-1.7037,-1.8319,-1.9222,-2.0034,-2.1221,-2.1765,-2.1765,-2.1765,-2.1311,-2.0666,-2.0666,-1.9852,-1.868,-1.7963,-1.7412,-1.685,-1.6015,-1.5832,-1.5832,-1.5832,-1.5832,-1.5832,-1.5832,-1.5832,-1.5832,-1.5832,-1.5832,-1.5832,-1.5832,-1.5832,-1.5832,-1.5832,-1.5832,-1.5832,-1.5832,-1.5919,-1.5999,-1.5999,-1.6086,-1.6226,-1.6406,-1.6433,-1.654,-1.6834,-1.6874,-1.6987,-1.7281,-1.7475,-1.7582,-1.7582,-1.7582,-1.7582,-1.7582,-1.7582,-1.7582,-1.7582,-1.7582,-1.7582,-1.7582,-1.7582,-1.7582,-1.7582,-1.7582,-1.7582,-1.7582,-1.7582,-1.7582,-1.9365,-1.9189,-1.9082,-1.9082,-1.8461,-1.7624,-1.6785,-1.6595,-1.6683,-1.7405,-1.7654,-1.7632,-1.7184,-1.5454,-1.4185,-1.4476,-1.4266,-1.4088,-1.4088,-1.4255,-1.4382,-1.4382,-1.4643,-1.4823,-1.4823,-1.509,-1.5257,-1.5257,-1.5444,-1.5558,-1.5558,-1.5558,-1.5558,-1.5558,-1.5558,-1.5558,-1.5558,-1.5558,-1.5558,-1.5558,-1.5558,-1.5651,-1.5832,-1.5832,-1.6292,-1.7131,-1.8411,-1.9579,-2.0845,-2.2031,-2.2765,-2.3135,-2.3135,-2.2589,-2.1845,-2.1845,-2.1123,-1.9943,-1.9131,-1.8596,-1.8048,-1.685,-1.6386,-1.6292,-1.592,-1.5832,-1.5832,-1.5832,-1.5832,-1.5832,-1.5832,-1.5832,-1.5832,-1.5832,-1.5832,-1.5832,-1.5832,-1.5832,-1.5832,-1.5832,-1.5832,-1.5832,-1.5832,-1.5832,-1.5899,-1.6106,-1.6132,-1.6239,-1.6533,-1.6567,-1.668,-1.6981,-1.7268,-1.7442,-1.7442,-1.7528,-1.7582,-1.7582,-1.7582,-1.7582,-1.7582,-1.7582,-1.7582,-1.7582,-1.7582,-1.7582,-1.7582,-1.7582,-1.7582,-1.7582,-1.7582,-1.7582,-1.9277,-1.8965,-1.8562,-1.8562,-1.832,-1.8008,-1.8008,-1.7862,-1.7999,-1.9049,-1.8526,-1.785,-1.7924,-1.6464,-1.529,-1.5298,-1.4613,-1.4088,-1.4088,-1.4088,-1.4088,-1.4088,-1.4342,-1.4516,-1.4516,-1.4783,-1.4963,-1.4963,-1.4963,-1.4963,-1.4963,-1.4963,-1.4963,-1.4963,-1.4963,-1.4963,-1.4963,-1.4963,-1.4963,-1.4963,-1.4963,-1.5264,-1.5818,-1.5825,-1.5825,-1.592,-1.7225,-1.8411,-1.9579,-2.0845,-2.2031,-2.3135,-2.3135,-2.3135,-2.3135,-2.3135,-2.2306,-2.1293,-2.1293,-2.0486,-1.9314,-1.8141,-1.7692,-1.7505,-1.6197,-1.5832,-1.5832,-1.5832,-1.5832,-1.5832,-1.5832,-1.5832,-1.5832,-1.5832,-1.5832,-1.5832,-1.5832,-1.5832,-1.5832,-1.5832,-1.5832,-1.5832,-1.5832,-1.5832,-1.5832,-1.5832,-1.5832,-1.5939,-1.6233,-1.6273,-1.6386,-1.6667,-1.6967,-1.725,-1.7148,-1.7415,-1.7582,-1.7582,-1.7582,-1.7582,-1.7582,-1.7582,-1.7582,-1.7582,-1.7582,-1.7582,-1.7582,-1.7582,-1.7582,-1.7582,-1.7582,-1.7582,-1.8467,-1.8291,-1.8193,-1.8193,-1.8105,-1.8008,-1.8008,-1.7918,-1.8031,-1.8319,-1.672,-1.5724,-1.6987,-1.5739,-1.4679,-1.5063,-1.4984,-1.4653,-1.4139,-1.4088,-1.4088,-1.4088,-1.4162,-1.4215,-1.4215,-1.4476,-1.4656,-1.4656,-1.4843,-1.4963,-1.4963,-1.4963,-1.4963,-1.4963,-1.4963,-1.4963,-1.4963,-1.4963,-1.4963,-1.4963,-1.4963,-1.5057,-1.5224,-1.6317,-1.6769,-1.6868,-1.9191,-2.0486,-2.0845,-2.2041,-2.2775,-2.3135,-2.3135,-2.3135,-2.3135,-2.3135,-2.2862,-2.2403,-2.1569,-2.1025,-2.0576,-1.9405,-1.8411,-1.7598,-1.7225,-1.648,-1.5832,-1.5832,-1.5832,-1.5832,-1.5832,-1.5832,-1.5832,-1.5832,-1.5832,-1.5832,-1.5832,-1.5832,-1.5832,-1.5832,-1.5832,-1.5832,-1.5832,-1.5832,-1.5832,-1.5832,-1.5832,-1.5865,-1.5952,-1.6146,-1.6306,-1.6393,-1.6667,-1.6921,-1.7134,-1.7228,-1.7368,-1.7569,-1.7582,-1.7582,-1.7582,-1.7582,-1.7582,-1.7582,-1.7582,-1.7582,-1.7582,-1.7582,-1.7582,-1.7582,-1.7582,-1.7582,-1.8076,-1.8008,-1.8008,-1.8008,-1.8008,-1.7862,-1.7501,-1.7432,-1.7432,-1.7432,-1.5623,-1.4332,-1.5493,-1.4587,-1.3772,-1.4152,-1.4344,-1.4342,-1.3971,-1.4015,-1.4088,-1.4088,-1.4088,-1.4088,-1.4088,-1.4249,-1.4349,-1.4349,-1.4516,-1.4616,-1.4616,-1.4616,-1.4616,-1.4616,-1.4616,-1.4616,-1.4616,-1.5039,-1.5287,-1.5287,-1.5713,-1.5886,-1.59,-1.6676,-1.6967,-1.7071,-1.9909,-2.1058,-2.1165,-2.2522,-2.3135,-2.3135,-2.3135,-2.3135,-2.3135,-2.3135,-2.3135,-2.296,-2.2306,-2.2031,-2.1854,-2.0576,-1.9761,-1.8948,-1.7956,-1.7131,-1.648,-1.592,-1.5832,-1.5832,-1.5832,-1.5832,-1.5832,-1.5832,-1.5832,-1.5832,-1.5832,-1.5832,-1.5832,-1.5832,-1.5832,-1.5832,-1.5832,-1.5832,-1.5832,-1.5832,-1.5832,-1.5832,-1.5832,-1.5985,-1.6092,-1.6092,-1.6359,-1.6653,-1.6947,-1.7081,-1.7275,-1.7562,-1.7582,-1.7582,-1.7582,-1.7582,-1.7582,-1.7582,-1.7582,-1.7582,-1.7582,-1.7582,-1.7582,-1.7582,-1.7582,-1.7582,-1.8008,-1.8008,-1.8008,-1.8008,-1.8008,-1.7725,-1.6784,-1.6558,-1.6489,-1.6489,-1.5013,-1.3745,-1.381,-1.3333,-1.2864,-1.2891,-1.3358,-1.3649,-1.3601,-1.3834,-1.4015,-1.4041,-1.4048,-1.4055,-1.4082,-1.4088,-1.4088,-1.4088,-1.4088,-1.4088,-1.4088,-1.4088,-1.4088,-1.4088,-1.4088,-1.4088,-1.4088,-1.5054,-1.5538,-1.5538,-1.6601,-1.7172,-1.7115,-1.6939,-1.6908,-1.7216,-1.9713,-2.0843,-2.0966,-2.2457,-2.3086,-2.3086,-2.3125,-2.3135,-2.3135,-2.3135,-2.3135,-2.3135,-2.3135,-2.3135,-2.295,-2.1845,-2.1302,-2.0755,-1.8503,-1.7684,-1.7318,-1.6109,-1.5832,-1.5832,-1.5832,-1.5832,-1.5832,-1.5832,-1.5832,-1.5832,-1.5832,-1.5832,-1.5832,-1.5832,-1.5832,-1.5832,-1.5832,-1.5832,-1.5832,-1.5832,-1.5832,-1.5832,-1.5832,-1.5832,-1.5832,-1.5832,-1.6072,-1.6353,-1.664,-1.6941,-1.7235,-1.7522,-1.7569,-1.7582,-1.7582,-1.7582,-1.7582,-1.7582,-1.7582,-1.7582,-1.7582,-1.7582,-1.7582,-1.7582,-1.7582,-1.7582,-1.8008,-1.8008,-1.8008,-1.8008,-1.8008,-1.7725,-1.6784,-1.6,-1.5517,-1.5517,-1.4522,-1.3954,-1.4736,-1.416,-1.3572,-1.3826,-1.3986,-1.3867,-1.3346,-1.336,-1.348,-1.3707,-1.3741,-1.3834,-1.4062,-1.4088,-1.4088,-1.4088,-1.4088,-1.4088,-1.4088,-1.4088,-1.4088,-1.4088,-1.4088,-1.4088,-1.4088,-1.4334,-1.4412,-1.4496,-1.5545,-1.6026,-1.6124,-1.8029,-1.9591,-2.0755,-2.137,-2.1669,-2.1697,-2.2386,-2.2646,-2.2676,-2.3008,-2.3135,-2.3135,-2.3135,-2.3135,-2.3135,-2.3135,-2.3135,-2.3047,-2.2775,-2.14,-1.9761,-1.9314,-1.7762,-1.6109,-1.5927,-1.5832,-1.5832,-1.5832,-1.5832,-1.5832,-1.5832,-1.5832,-1.5832,-1.5832,-1.5832,-1.5832,-1.5832,-1.5832,-1.5832,-1.5832,-1.5832,-1.5832,-1.5832,-1.5832,-1.5832,-1.5832,-1.5832,-1.5832,-1.5832,-1.5885,-1.6046,-1.6339,-1.6633,-1.6927,-1.7228,-1.7455,-1.7582,-1.7582,-1.7582,-1.7582,-1.7582,-1.7582,-1.7582,-1.7582,-1.7582,-1.7582,-1.7582,-1.7582,-1.7582,-1.8008,-1.8008,-1.8008,-1.8008,-1.8008,-1.7647,-1.6219,-1.5579,-1.495,-1.4019,-1.3382,-1.3164,-1.3738,-1.3375,-1.3075,-1.3237,-1.34,-1.3404,-1.3044,-1.312,-1.3267,-1.342,-1.344,-1.35,-1.3654,-1.3667,-1.3667,-1.3667,-1.3667,-1.3667,-1.3667,-1.3667,-1.3667,-1.3667,-1.3667,-1.3667,-1.3667,-1.4218,-1.4455,-1.4448,-1.6023,-1.7054,-1.7785,-1.8825,-2.0037,-2.1269,-2.1484,-2.1572,-2.1611,-2.2031,-2.2207,-2.2256,-2.2676,-2.2832,-2.2775,-2.2416,-2.2589,-2.3047,-2.2403,-2.2589,-2.296,-2.2403,-2.1391,-2.0124,-1.8956,-1.777,-1.6574,-1.6015,-1.5832,-1.5832,-1.5832,-1.5832,-1.5832,-1.5832,-1.5832,-1.5832,-1.5832,-1.5832,-1.5832,-1.5832,-1.5832,-1.5832,-1.5832,-1.5832,-1.5832,-1.5832,-1.5832,-1.5832,-1.5832,-1.5832,-1.5832,-1.5832,-1.5832,-1.5952,-1.6246,-1.6413,-1.6687,-1.7121,-1.7288,-1.7442,-1.7575,-1.7582,-1.7582,-1.7582,-1.7582,-1.7582,-1.7582,-1.7582,-1.7582,-1.7582,-1.7582,-1.7582,-1.8008,-1.8008,-1.8008,-1.8008,-1.8008,-1.7579,-1.5799,-1.5305,-1.4665,-1.2879,-1.2445,-1.2305,-1.2305,-1.2305,-1.2305,-1.2305,-1.2512,-1.2741,-1.2741,-1.2893,-1.3073,-1.3126,-1.3133,-1.3153,-1.3206,-1.3213,-1.3213,-1.3213,-1.3213,-1.3213,-1.3213,-1.3213,-1.3213,-1.3213,-1.3213,-1.3286,-1.3437,-1.4343,-1.4872,-1.5026,-1.6934,-1.8555,-1.9739,-1.9378,-1.969,-2.0586,-2.0957,-2.1123,-2.1152,-2.1592,-2.1777,-2.1816,-2.2236,-2.2451,-2.2378,-2.1535,-2.1878,-2.2677,-2.1667,-2.1854,-2.2315,-2.1569,-2.1025,-2.0305,-1.8326,-1.7598,-1.7131,-1.6109,-1.5832,-1.5832,-1.5832,-1.5832,-1.5832,-1.5832,-1.5832,-1.5832,-1.5832,-1.5832,-1.5832,-1.5832,-1.5832,-1.5832,-1.5832,-1.5832,-1.5832,-1.5832,-1.5832,-1.5832,-1.5832,-1.5832,-1.5832,-1.5832,-1.5832,-1.5925,-1.6179,-1.6246,-1.65,-1.7041,-1.7121,-1.7281,-1.7569,-1.7582,-1.7582,-1.7582,-1.7582,-1.7582,-1.7582,-1.7582,-1.7582,-1.7582,-1.7582,-1.7582,-1.8008,-1.8008,-1.8008,-1.8008,-1.8008,-1.7716,-1.6645,-1.579,-1.4879,-1.3738,-1.2879,-1.2305,-1.2305,-1.2305,-1.2305,-1.2305,-1.2338,-1.2365,-1.2365,-1.2398,-1.2518,-1.2856,-1.2882,-1.2913,-1.3186,-1.3213,-1.3213,-1.3213,-1.3213,-1.3213,-1.3213,-1.3213,-1.3213,-1.3213,-1.3213,-1.3588,-1.4421,-1.4569,-1.5019,-1.5847,-1.7084,-1.8332,-1.9385,-1.9655,-2.0052,-2.0566,-2.0625,-2.0654,-2.0684,-2.1133,-2.1318,-2.1367,-2.1797,-2.2197,-2.2339,-2.1222,-2.1101,-2.148,-2.1391,-2.0755,-2.0133,-2.1025,-1.9852,-1.8141,-1.7777,-1.6943,-1.6015,-1.5825,-1.5832,-1.5832,-1.5832,-1.5832,-1.5832,-1.5832,-1.5832,-1.5832,-1.5832,-1.5832,-1.5832,-1.5832,-1.5832,-1.5832,-1.5832,-1.5832,-1.5832,-1.5832,-1.5832,-1.5832,-1.5832,-1.5832,-1.5832,-1.5832,-1.5832,-1.5845,-1.5885,-1.6126,-1.6413,-1.674,-1.7007,-1.7281,-1.7569,-1.7582,-1.7582,-1.7582,-1.7582,-1.7582,-1.7582,-1.7582,-1.7582,-1.7582,-1.7582,-1.7582,-1.8008,-1.8008,-1.8008,-1.8008,-1.8008,-1.7725,-1.6784,-1.628,-1.5579,-1.4027,-1.3382,-1.2952,-1.2372,-1.2305,-1.2305,-1.2305,-1.2305,-1.2305,-1.2305,-1.2305,-1.2351,-1.2485,-1.2498,-1.2552,-1.2685,-1.2705,-1.2705,-1.2705,-1.2705,-1.2705,-1.2705,-1.2705,-1.2705,-1.2705,-1.2705,-1.292,-1.3285,-1.3804,-1.4825,-1.6353,-1.7106,-1.7961,-1.8936,-1.9365,-1.9795,-2.0215,-2.0459,-2.0566,-2.0576,-2.0781,-2.0859,-2.0898,-2.1348,-2.1631,-2.168,-2.0992,-2.0824,-2.0907,-2.0407,-1.9943,-1.9497,-1.9314,-1.8596,-1.7598,-1.685,-1.6197,-1.5832,-1.5832,-1.5832,-1.5832,-1.5832,-1.5832,-1.5832,-1.5832,-1.5832,-1.5832,-1.5832,-1.5832,-1.5832,-1.5832,-1.5832,-1.5832,-1.5832,-1.5832,-1.5832,-1.5832,-1.5832,-1.5832,-1.5832,-1.5832,-1.5832,-1.5832,-1.5832,-1.5832,-1.5832,-1.5945,-1.6152,-1.6446,-1.674,-1.7034,-1.7328,-1.7495,-1.7582,-1.7582,-1.7582,-1.7582,-1.7582,-1.7582,-1.7582,-1.7582,-1.7582,-1.7582,-1.8008,-1.8008,-1.8008,-1.8008,-1.8008,-1.7794,-1.7139,-1.6784,-1.614,-1.445,-1.4099,-1.381,-1.2806,-1.2445,-1.2378,-1.2592,-1.2445,-1.2305,-1.2305,-1.2305,-1.2305,-1.2305,-1.2305,-1.2305,-1.2305,-1.2305,-1.2305,-1.2305,-1.2305,-1.2305,-1.2305,-1.2305,-1.2305,-1.2305,-1.2519,-1.2806,-1.3018,-1.4235,-1.5517,-1.6922,-1.7245,-1.7755,-1.8496,-1.8926,-1.9297,-1.9619,-2.0166,-2.0469,-2.0566,-2.0566,-2.0566,-2.0596,-2.0937,-2.1133,-2.1147,-2.0549,-2.0544,-2.0577,-1.9975,-1.9513,-1.8956,-1.8319,-1.7777,-1.7037,-1.6109,-1.5832,-1.5832,-1.5832,-1.5832,-1.5832,-1.5832,-1.5832,-1.5832,-1.5832,-1.5832,-1.5832,-1.5832,-1.5832,-1.5832,-1.5832,-1.5832,-1.5832,-1.5832,-1.5832,-1.5832,-1.5832,-1.5832,-1.5832,-1.5832,-1.5832,-1.5832,-1.5832,-1.5832,-1.5832,-1.5832,-1.5832,-1.5952,-1.6253,-1.6547,-1.684,-1.7141,-1.7428,-1.7582,-1.7582,-1.7582,-1.7582,-1.7582,-1.7582,-1.7582,-1.7582,-1.7582,-1.7582,-1.8008,-1.8008,-1.8008,-1.8008,-1.8008,-1.8008,-1.794,-1.7217,-1.6349,-1.5305,-1.5092,-1.4807,-1.3818,-1.2879,-1.2592,-1.3455,-1.2879,-1.2305,-1.2305,-1.2305,-1.2305,-1.2305,-1.2305,-1.2305,-1.2305,-1.2305,-1.2305,-1.2305,-1.2305,-1.2305,-1.2305,-1.2305,-1.2305,-1.2305,-1.3164,-1.4099,-1.5021,-1.6872,-1.7794,-1.794,-1.7959,-1.7969,-1.8057,-1.8477,-1.8682,-1.875,-1.958,-2.0185,-2.0566,-2.0566,-2.0566,-2.0566,-2.0596,-2.0859,-2.107,-1.9925,-1.9991,-2.0716,-2.0647,-1.9387,-1.7956,-1.9039,-1.7848,-1.592,-1.5825,-1.5832,-1.5832,-1.5832,-1.5832,-1.5832,-1.5832,-1.5832,-1.5832,-1.5832,-1.5832,-1.5832,-1.5832,-1.5832,-1.5832,-1.5832,-1.5832,-1.5832,-1.5832,-1.5832,-1.5832,-1.5832,-1.5832,-1.5832,-1.5832,-1.5832,-1.5832,-1.5832,-1.5832,-1.5832,-1.5832,-1.5832,-1.5952,-1.6253,-1.6547,-1.684,-1.7141,-1.7428,-1.7582,-1.7582,-1.7582,-1.7582,-1.7582,-1.7582,-1.7582,-1.7582,-1.7582,-1.7582,-1.8008,-1.8008,-1.8008,-1.8008,-1.8008,-1.8008,-1.8008,-1.7725,-1.7217,-1.6289,-1.607,-1.6,-1.5649,-1.4307,-1.331,-1.3673,-1.2879,-1.2305,-1.2305,-1.2305,-1.2305,-1.2305,-1.2305,-1.2305,-1.2305,-1.2305,-1.2305,-1.2305,-1.2305,-1.2218,-1.2037,-1.2024,-1.1937,-1.1744,-1.2081,-1.2972,-1.447,-1.5927,-1.6958,-1.7607,-1.7881,-1.8008,-1.8018,-1.8164,-1.8379,-1.8652,-1.8965,-1.9502,-2.0146,-2.0146,-2.0312,-2.0566,-2.0566,-2.0664,-2.0761,-2.0623,-2.0236,-1.9946,-2.0535,-1.9752,-1.8478,-1.8341,-1.777,-1.685,-1.6015,-1.5832,-1.5832,-1.5832,-1.5832,-1.5832,-1.5832,-1.5832,-1.5832,-1.5832,-1.5832,-1.5832,-1.5832,-1.5832,-1.5832,-1.5832,-1.5832,-1.5832,-1.5832,-1.5832,-1.5832,-1.5832,-1.5832,-1.5832,-1.5832,-1.5832,-1.5832,-1.5832,-1.5832,-1.5832,-1.5832,-1.5832,-1.5872,-1.5979,-1.6266,-1.656,-1.6854,-1.7148,-1.7388,-1.7582,-1.7582,-1.7582,-1.7582,-1.7582,-1.7582,-1.7582,-1.7582,-1.7582,-1.8008,-1.8008,-1.8008,-1.8008,-1.8008,-1.8008,-1.8008,-1.8008,-1.7716,-1.6784,-1.6853,-1.6991,-1.6636,-1.5508,-1.4593,-1.4243,-1.3164,-1.2305,-1.2305,-1.2305,-1.2305,-1.2305,-1.2305,-1.2265,-1.2164,-1.2158,-1.2118,-1.2011,-1.2004,-1.1924,-1.173,-1.1724,-1.1769,-1.1908,-1.2158,-1.3019,-1.4541,-1.5647,-1.6468,-1.7168,-1.7598,-1.7803,-1.7803,-1.7949,-1.8164,-1.8428,-1.8428,-1.8994,-1.9912,-1.9912,-2.0166,-2.0566,-2.0566,-2.0566,-2.0596,-2.0898,-2.0595,-2.0125,-2.0661,-2.0241,-1.9356,-1.8435,-1.7964,-1.7505,-1.6204,-1.5832,-1.5832,-1.5832,-1.5832,-1.5832,-1.5832,-1.5832,-1.5832,-1.5832,-1.5832,-1.5832,-1.5832,-1.5832,-1.5832,-1.5832,-1.5832,-1.5832,-1.5832,-1.5832,-1.5832,-1.5832,-1.5832,-1.5832,-1.5832,-1.5832,-1.5832,-1.5832,-1.5832,-1.5832,-1.5832,-1.5832,-1.5832,-1.5832,-1.6112,-1.64,-1.6693,-1.6987,-1.7288,-1.7575,-1.7582,-1.7582,-1.7582,-1.7582,-1.7582,-1.7582,-1.7582,-1.7582,0.0,0.0,0.0,-1.8008,-1.8008,-1.8008,-1.8008,-1.8008,-1.7725,-1.6853,-1.7354,-1.7716,-1.6784,-1.6636,-1.628,-1.5376,-1.3593,-1.2372,-1.2372,-1.2298,-1.2305,-1.2305,-1.2291,-1.2178,-1.1897,-1.1864,-1.1737,-1.145,-1.1423,-1.1423,-1.1416,-1.1403,-1.1805,-1.2818,-1.3661,-1.4507,-1.5478,-1.63,-1.6709,-1.6719,-1.7158,-1.7373,-1.7393,-1.7803,-1.7998,-1.8008,-1.8008,-1.8721,-1.9883,-1.9893,-2.0156,-2.0547,-2.0557,-2.0566,-2.0566,-2.0566,-2.084,-2.1221,-2.123,-2.0995,-2.0506,-1.9306,-1.8395,-1.749,-1.6197,-1.5832,-1.5832,-1.5832,-1.5832,-1.5832,-1.5832,-1.5832,-1.5832,-1.5832,-1.5832,-1.5832,-1.5832,-1.5832,-1.5832,-1.5832,-1.5832,-1.5832,-1.5832,-1.5832,-1.5832,-1.5832,-1.5832,-1.5832,-1.5832,-1.5832,-1.5832,-1.5832,-1.5832,-1.5832,-1.5832,-1.5832,-1.5832,-1.5832,-1.6099,-1.6393,-1.668,-1.6981,-1.7275,-1.7562,-1.7582,-1.7582,-1.7582,-1.7582,-1.7582,-1.7582,-1.7582,-1.7582,-1.8008,0.0,0.0,0.0,0.0,0.0,-1.8008,-1.8008,-1.794,-1.7647,-1.7794,-1.794,-1.7647,-1.707,-1.6489,-1.628,-1.4585,-1.331,-1.331,-1.2739,-1.2305,-1.2305,-1.2118,-1.1957,-1.1877,-1.167,-1.1516,-1.143,-1.1423,-1.1336,-1.1122,-1.0915,-1.124,-1.2049,-1.2869,-1.3732,-1.4538,-1.5708,-1.625,-1.625,-1.6699,-1.708,-1.7393,-1.75,-1.7725,-1.8008,-1.8008,-1.8389,-1.9014,-1.9326,-1.9707,-2.0127,-2.0439,-2.0566,-2.0566,-2.0566,-2.0644,-2.0801,-2.1123,-2.1134,-2.0827,-1.9312,-1.8661,-1.8167,-1.631,-1.5832,-1.5832,-1.5832,-1.5832,-1.5832,-1.5832,-1.5832,-1.5832,-1.5832,-1.5832,-1.5832,-1.5832,-1.5832,-1.5832,-1.5832,-1.5832,-1.5832,-1.5832,-1.5832,-1.5832,-1.5832,-1.5832,-1.5832,-1.5832,-1.5832,-1.5832,-1.5832,-1.5832,-1.5832,-1.5832,-1.5832,-1.5832,-1.5832,-1.5905,-1.6086,-1.638,-1.6673,-1.6967,-1.7261,-1.7475,-1.7582,-1.7582,-1.7582,-1.7582,-1.7582,-1.7582,-1.7582,-1.8008,-1.8008,-1.8008,-1.8008,0.0,0.0,-1.8008,-1.8008,-1.8008,-1.8008,-1.8008,-1.8008,-1.8008,-1.7569,-1.7207,-1.7207,-1.593,-1.4799,-1.4378,-1.3528,-1.2879,-1.2879,-1.2332,-1.1824,-1.1697,-1.1416,-1.1196,-1.1069,-1.1062,-1.0989,-1.0822,-1.1023,-1.1351,-1.1772,-1.2931,-1.3734,-1.4213,-1.5298,-1.5791,-1.5791,-1.624,-1.6582,-1.6846,-1.7217,-1.7519,-1.7764,-1.7939,-1.8144,-1.8408,-1.8838,-1.9375,-1.9941,-2.0195,-2.041,-2.0566,-2.0566,-2.0566,-2.0605,-2.0869,-2.0745,-2.0298,-1.888,-1.8265,-1.7823,-1.6137,-1.5732,-1.5832,-1.5832,-1.5832,-1.5832,-1.5832,-1.5832,-1.5832,-1.5832,-1.5832,-1.5832,-1.5832,-1.5832,-1.5832,-1.5832,-1.5832,-1.5832,-1.5832,-1.5832,-1.5832,-1.5832,-1.5832,-1.5832,-1.5832,-1.5832,-1.5832,-1.5832,-1.5832,-1.5832,-1.5832,-1.5832,-1.5832,-1.5832,-1.5832,-1.5965,-1.6259,-1.6433,-1.672,-1.7141,-1.7315,-1.7462,-1.7582,-1.7582,-1.7582,-1.7582,-1.7582,-1.7582,-1.8008,-1.8008,-1.8008,-1.8008,-1.8008,0.0,-1.8008,-1.8008,-1.8008,-1.8008,-1.8008,-1.8008,-1.8008,-1.8008,-1.8008,-1.8008,-1.7285,-1.6428,-1.5517,-1.453,-1.3818,-1.3745,-1.2728,-1.1857,-1.145,-1.1136,-1.09,-1.0764,-1.0744,-1.0744,-1.087,-1.1469,-1.1888,-1.2074,-1.3476,-1.4273,-1.4323,-1.505,-1.541,-1.542,-1.5801,-1.6076,-1.6154,-1.6875,-1.7295,-1.7402,-1.7773,-1.7969,-1.8037,-1.8418,-1.9043,-1.9785,-1.9883,-2.0146,-2.0498,-2.0547,-2.0566,-2.0566,-2.0479,-2.0,-1.9317,-1.8037,-1.7361,-1.6891,-1.5732,-1.5578,-1.5792,-1.5818,-1.5832,-1.5832,-1.5832,-1.5832,-1.5832,-1.5832,-1.5832,-1.5832,-1.5832,-1.5832,-1.5832,-1.5832,-1.5832,-1.5832,-1.5832,-1.5832,-1.5832,-1.5832,-1.5832,-1.5832,-1.5832,-1.5832,-1.5832,-1.5832,-1.5832,-1.5832,-1.5832,-1.5832,-1.5832,-1.5832,-1.5832,-1.5945,-1.6213,-1.6253,-1.652,-1.7041,-1.7217,-1.7295,-1.7582,-1.7582,-1.7582,-1.7582,-1.7582,-1.7582,-1.8202,-1.8008,-1.8008,-1.8008,-1.8008,0.0,-1.8008,-1.8008,-1.8008,-1.8008,-1.8008,-1.8008,-1.8008,-1.8008,-1.8008,-1.8008,-1.7872,-1.7432,-1.6428,-1.5508,-1.4593,-1.3818,-1.309,-1.2373,-1.1498,-1.0955,-1.0925,-1.1531,-1.1593,-1.1841,-1.252,-1.2081,-1.2381,-1.3717,-1.4025,-1.451,-1.5167,-1.5294,-1.541,-1.541,-1.5498,-1.5723,-1.6135,-1.6302,-1.6709,-1.7393,-1.7471,-1.7695,-1.8018,-1.8096,-1.8428,-1.8955,-1.9648,-1.9971,-2.0088,-2.0439,-2.0566,-2.0479,-1.9599,-1.925,-1.8789,-1.702,-1.6357,-1.6213,-1.5602,-1.5438,-1.5531,-1.5765,-1.5832,-1.5832,-1.5832,-1.5832,-1.5832,-1.5832,-1.5832,-1.5832,-1.5832,-1.5832,-1.5832,-1.5832,-1.5832,-1.5832,-1.5832,-1.5832,-1.5832,-1.5832,-1.5832,-1.5832,-1.5832,-1.5832,-1.5832,-1.5832,-1.5832,-1.5832,-1.5832,-1.5832,-1.5832,-1.5832,-1.5832,-1.5852,-1.5912,-1.6146,-1.6326,-1.644,-1.6907,-1.7295,-1.7582,-1.7582,-1.7582,-1.7582,-1.7582,-1.7582,-1.8787,-1.8337,-1.8008,-1.8008,-1.8008,0.0,0.0,-1.8008,-1.8008,-1.8008,-1.8008,-1.8008,-1.8008,-1.8008,-1.8008,-1.8008,-1.8008,-1.7862,-1.7354,-1.6507,-1.5651,-1.4899,-1.4006,-1.3032,-1.1931,-1.1816,-1.1965,-1.2389,-1.2389,-1.2573,-1.3009,-1.3,-1.3356,-1.4145,-1.4569,-1.4991,-1.541,-1.541,-1.541,-1.541,-1.541,-1.5527,-1.5742,-1.5957,-1.6426,-1.707,-1.7285,-1.7627,-1.8008,-1.8008,-1.8135,-1.8389,-1.9023,-1.9541,-1.9941,-2.0156,-2.0381,-2.0489,-2.0001,-1.9116,-1.8014,-1.7046,-1.6055,-1.5245,-1.5041,-1.5164,-1.5458,-1.5745,-1.5832,-1.5832,-1.5832,-1.5832,-1.5832,-1.5832,-1.5832,-1.5832,-1.5832,-1.5832,-1.5832,-1.5832,-1.5832,-1.5832,-1.5832,-1.5832,-1.5832,-1.5832,-1.5832,-1.5832,-1.5832,-1.5832,-1.5832,-1.5832,-1.5832,-1.5832,-1.5832,-1.5832,-1.5832,-1.5832,-1.5832,-1.5832,-1.5832,-1.5972,-1.6119,-1.6273,-1.6847,-1.7221,-1.7368,-1.7508,-1.7582,-1.7582,-1.7582,-1.7582,-1.911,-1.8529,-1.8008,-1.8008,-1.8008,-1.8008,0.0,0.0,0.0,-1.8008,-1.8008,-1.8008,-1.8008,-1.8008,-1.8008,-1.8008,-1.8008,-1.8008,-1.8008,-1.7354,-1.6656,-1.6116,-1.5071,-1.3893,-1.2695,-1.3,-1.3191,-1.3009,-1.313,-1.3312,-1.3425,-1.3906,-1.4264,-1.4451,-1.505,-1.541,-1.541,-1.541,-1.541,-1.541,-1.541,-1.541,-1.542,-1.5781,-1.6182,-1.6631,-1.707,-1.75,-1.79,-1.7978,-1.8008,-1.8047,-1.8467,-1.9111,-1.9805,-1.9883,-2.0195,-2.0566,-2.0323,-1.9116,-1.7585,-1.709,-1.5851,-1.4522,-1.4522,-1.493,-1.5444,-1.5678,-1.5785,-1.5832,-1.5832,-1.5832,-1.5832,-1.5832,-1.5832,-1.5832,-1.5832,-1.5832,-1.5832,-1.5832,-1.5832,-1.5832,-1.5832,-1.5832,-1.5832,-1.5832,-1.5832,-1.5832,-1.5832,-1.5832,-1.5832,-1.5832,-1.5832,-1.5832,-1.5832,-1.5832,-1.5832,-1.5832,-1.5832,-1.5832,-1.5832,-1.5832,-1.5972,-1.6266,-1.674,-1.7034,-1.7148,-1.7382,-1.7528,-1.7582,-1.7582,-1.7582,-1.8596,-1.8076,-1.8008,-1.8008,-1.8008,-1.8008,-1.8008,0.0,-1.8008,-1.8008,0.0,-1.8008,-1.8008,0.0,0.0,-1.8008,-1.8008,-1.8008,-1.8008,-1.794,-1.7482,-1.6642,-1.5836,-1.498,-1.3958,-1.3967,-1.3795,-1.307,-1.3666,-1.4382,-1.5108,-1.4569,-1.451,-1.5235,-1.5352,-1.541,-1.541,-1.541,-1.541,-1.541,-1.541,-1.541,-1.541,-1.5469,-1.5723,-1.6162,-1.6611,-1.7051,-1.749,-1.7852,-1.8008,-1.8047,-1.8467,-1.8926,-1.9404,-1.9775,-2.0195,-2.0479,-1.952,-1.9036,-1.847,-1.6511,-1.5268,-1.4522,-1.4522,-1.493,-1.5404,-1.5438,-1.5631,-1.5832,-1.5832,-1.5832,-1.5832,-1.5832,-1.5832,-1.5832,-1.5832,-1.5832,-1.5832,-1.5832,-1.5832,-1.5832,-1.5832,-1.5832,-1.5832,-1.5832,-1.5832,-1.5832,-1.5832,-1.5832,-1.5832,-1.5832,-1.5832,-1.5832,-1.5832,-1.5832,-1.5832,-1.5832,-1.5832,-1.5832,-1.5832,-1.5832,-1.5972,-1.6266,-1.6339,-1.6627,-1.7148,-1.7181,-1.7328,-1.7582,-1.7582,-1.7582,-1.911,-1.8395,-1.8008,-1.8008,-1.8008,-1.8008,-1.8008,-1.8008,-1.8008,-1.8008,0.0,0.0,0.0,0.0,0.0,0.0,-1.8008,-1.8008,-1.8008,-1.8008,-1.7775,-1.7168,-1.6552,-1.5867,-1.4939,-1.4463,-1.4264,-1.4392,-1.4688,-1.505,-1.5352,-1.505,-1.505,-1.541,-1.541,-1.541,-1.541,-1.541,-1.5633,-1.6036,-1.6036,-1.6036,-1.6036,-1.6036,-1.6046,-1.6145,-1.6543,-1.6982,-1.7422,-1.7842,-1.8008,-1.8027,-1.8203,-1.8535,-1.8965,-1.9394,-1.9824,-2.0148,-1.9993,-1.952,-1.8638,-1.6429,-1.5063,-1.4302,-1.4469,-1.4816,-1.5177,-1.5351,-1.5605,-1.5832,-1.5832,-1.5832,-1.5832,-1.5832,-1.5832,-1.5832,-1.5832,-1.5832,-1.5832,-1.5832,-1.5832,-1.5832,-1.5832,-1.5832,-1.5832,-1.5832,-1.5832,-1.5832,-1.5832,-1.5832,-1.5832,-1.5832,-1.5832,-1.5832,-1.5832,-1.5832,-1.5832,-1.5832,-1.5832,-1.5832,-1.5832,-1.5832,-1.5885,-1.6012,-1.6186,-1.6393,-1.664,-1.6814,-1.7048,-1.7335,-1.7502,-1.7582,-1.9299,-1.8664,-1.8269,-1.8076,-1.8008,-1.8008,-1.8008,-1.8008,-1.8008,-1.8008,-1.8008,0.0,0.0,0.0,-1.8008,-1.8008,0.0,-1.8008,-1.8008,-1.8008,-1.79,-1.7598,-1.707,-1.6263,-1.5195,-1.4746,-1.4688,-1.505,-1.5294,-1.541,-1.541,-1.541,-1.541,-1.541,-1.541,-1.5526,-1.569,-1.569,-1.6083,-1.681,-1.681,-1.681,-1.6821,-1.6595,-1.6382,-1.6198,-1.6409,-1.6797,-1.7236,-1.7656,-1.791,-1.8008,-1.8008,-1.8193,-1.8535,-1.9082,-1.9551,-1.998,-2.041,-1.9678,-1.831,-1.6683,-1.522,-1.4128,-1.4335,-1.4609,-1.4903,-1.5197,-1.5484,-1.5732,-1.5805,-1.5832,-1.5832,-1.5832,-1.5832,-1.5832,-1.5832,-1.5832,-1.5832,-1.5832,-1.5832,-1.5832,-1.5832,-1.5832,-1.5832,-1.5832,-1.5832,-1.5832,-1.5832,-1.5832,-1.5832,-1.5832,-1.5832,-1.5832,-1.5832,-1.5832,-1.5832,-1.5832,-1.5832,-1.5832,-1.5832,-1.5832,-1.5832,-1.5832,-1.6039,-1.6192,-1.6273,-1.6486,-1.674,-1.7034,-1.7328,-1.7508,-1.8721,-1.8664,-1.9044,-1.8202,-1.8008,-1.8008,-1.8008,-1.8008,-1.8008,-1.8008,-1.8008,-1.8008,-1.8008,-1.8008,-1.8008,-1.8008,-1.8008,0.0,0.0,-1.8008,-1.8008,-1.7988,-1.7246,-1.6067,-1.4405,-1.4932,-1.505,-1.4332,-1.4932,-1.541,-1.541,-1.541,-1.541,-1.541,-1.541,-1.5748,-1.6436,-1.6482,-1.681,-1.7578,-1.7578,-1.7578,-1.7523,-1.681,-1.6503,-1.6477,-1.6247,-1.6338,-1.6787,-1.7227,-1.7646,-1.8008,-1.8008,-1.8018,-1.8135,-1.8975,-1.9551,-1.998,-2.041,-1.9195,-1.7334,-1.7253,-1.5794,-1.4088,-1.4095,-1.4302,-1.4596,-1.4897,-1.519,-1.5478,-1.5758,-1.5832,-1.5832,-1.5832,-1.5832,-1.5832,-1.5832,-1.5832,-1.5832,-1.5832,-1.5832,-1.5832,-1.5832,-1.5832,-1.5832,-1.5832,-1.5832,-1.5832,-1.5832,-1.5832,-1.5832,-1.5832,-1.5832,-1.5832,-1.5832,-1.5832,-1.5832,-1.5832,-1.5832,-1.5832,-1.5832,-1.5832,-1.5832,-1.5832,-1.5838,-1.5985,-1.6273,-1.6286,-1.6433,-1.6727,-1.7021,-1.7315,-1.8529,-1.8202,-1.8395,-1.8076,-1.8008,-1.8008,-1.8008,-1.8008,-1.8008,-1.8008,-1.8008,-1.8008,-1.8008,-1.8008,-1.8008,-1.8008,-1.8008,-1.8008,0.0,-1.8008,-1.7803,-1.7236,-1.6904,-1.6263,-1.5136,-1.5235,-1.5294,-1.4991,-1.5235,-1.541,-1.541,-1.541,-1.541,-1.541,-1.5864,-1.6265,-1.6492,-1.6978,-1.7578,-1.834,-1.834,-1.834,-1.834,-1.807,-1.7413,-1.6513,-1.675,-1.6799,-1.6768,-1.7207,-1.7627,-1.8008,-1.8008,-1.8008,-1.8076,-1.8652,-1.9131,-1.96,-2.0312,-1.9678,-1.831,-1.7577,-1.6363,-1.5061,-1.4328,-1.4289,-1.4583,-1.4877,-1.517,-1.5464,-1.5752,-1.5832,-1.5832,-1.5832,-1.5832,-1.5832,-1.5832,-1.5832,-1.5832,-1.5832,-1.5832,-1.5832,-1.5832,-1.5832,-1.5832,-1.5832,-1.5832,-1.5832,-1.5832,-1.5832,-1.5832,-1.5832,-1.5832,-1.5832,-1.5832,-1.5832,-1.5832,-1.5832,-1.5832,-1.5832,-1.5832,-1.5832,-1.5832,-1.5832,-1.5832,-1.5879,-1.5979,-1.5979,-1.6132,-1.642,-1.652,-1.6834,-1.8462,-1.8202,-1.8395,-1.8076,-1.8008,-1.8008,-1.8008,-1.8008,-1.8008,-1.8008,-1.8008,-1.8008,-1.8008,-1.8008,-1.8008,-1.8008,-1.8008,-1.8008,0.0,-1.8008,-1.7695,-1.6772,-1.6665,-1.6387,-1.5498,-1.541,-1.541,-1.541,-1.541,-1.541,-1.541,-1.541,-1.541,-1.541,-1.6151,-1.6652,-1.6866,-1.7633,-1.834,-1.9097,-1.9097,-1.9097,-1.9097,-1.8821,-1.8178,-1.7268,-1.7026,-1.6999,-1.7106,-1.715,-1.749,-1.8008,-1.8008,-1.8008,-1.8057,-1.8486,-1.9004,-1.9535,-1.9918,-1.9274,-1.823,-1.709,-1.6034,-1.4977,-1.4334,-1.4215,-1.4449,-1.485,-1.5097,-1.5331,-1.5732,-1.5832,-1.5832,-1.5832,-1.5832,-1.5832,-1.5832,-1.5832,-1.5832,-1.5832,-1.5832,-1.5832,-1.5832,-1.5832,-1.5832,-1.5832,-1.5832,-1.5832,-1.5832,-1.5832,-1.5832,-1.5832,-1.5832,-1.5832,-1.5832,-1.5832,-1.5832,-1.5832,-1.5832,-1.5832,-1.5832,-1.5832,-1.5832,-1.5832,-1.5832,-1.5832,-1.5832,-1.5832,-1.5925,-1.6119,-1.6226,-1.648]},{"header":{"parameterUnit":"m.s-1","parameterCategory":1,"la1":30.6,"la2":29.2853,"lo1":-89.7004,"lo2":-87.6739,"dy":0.0162,"dx":0.0183,"nx":112,"ny":82,"refTime":"2023-06-26T12:00:00:Z","depth":0,"parameterNumber":3,"parameterNumberName":"V-component_of_WINDS"},"data":[0.0,0.0,0.0,0.0,0.0,0.0,0.0,0.0,0.0,0.0,0.0,0.0,0.0,0.0,0.0,0.0,0.0,0.0,0.0,0.0,0.0,0.0,0.0,0.0,0.0,0.0,0.0,0.0,0.0,0.0,0.0,0.0,0.0,0.0,0.0,0.0,0.0,0.0,0.0,0.0,0.0,0.0,0.0,0.0,0.0,0.0,0.0,0.0,0.0,0.0,0.0,0.0,0.0,0.0,0.0,0.0,0.0,0.0,0.0,0.0,0.0,0.0,0.0,0.0,0.0,0.0,0.0,0.0,0.0,0.0,0.0,0.0,0.0,0.0,0.0,0.0,0.0,0.0,0.0,0.0,0.0,0.0,0.0,0.0,0.0,0.0,0.0,0.0,0.0,0.0,-2.9134,-2.8415,-2.8383,-2.8637,-2.9384,-3.0547,-3.1279,-3.1385,0.0,0.0,0.0,0.0,0.0,0.0,0.0,0.0,0.0,0.0,0.0,0.0,0.0,0.0,0.0,0.0,0.0,0.0,0.0,0.0,0.0,0.0,0.0,0.0,0.0,0.0,0.0,0.0,0.0,0.0,0.0,0.0,0.0,0.0,0.0,0.0,0.0,0.0,0.0,0.0,0.0,0.0,0.0,0.0,0.0,0.0,0.0,0.0,0.0,0.0,0.0,0.0,0.0,0.0,0.0,0.0,0.0,0.0,0.0,0.0,0.0,0.0,0.0,0.0,0.0,0.0,0.0,0.0,0.0,0.0,0.0,0.0,0.0,0.0,0.0,0.0,0.0,0.0,0.0,0.0,0.0,0.0,0.0,0.0,0.0,0.0,0.0,0.0,0.0,0.0,0.0,0.0,0.0,0.0,0.0,0.0,0.0,0.0,0.0,0.0,0.0,0.0,0.0,0.0,-2.895,-2.786,-2.771,-2.8221,-2.9366,-3.0195,-3.1115,-3.2149,0.0,0.0,0.0,0.0,0.0,0.0,0.0,0.0,0.0,0.0,0.0,0.0,0.0,0.0,0.0,0.0,0.0,0.0,0.0,0.0,0.0,0.0,0.0,0.0,0.0,0.0,0.0,0.0,0.0,0.0,0.0,0.0,0.0,0.0,0.0,0.0,0.0,0.0,0.0,0.0,0.0,0.0,0.0,0.0,0.0,0.0,0.0,0.0,0.0,0.0,0.0,0.0,0.0,0.0,0.0,0.0,0.0,0.0,0.0,0.0,0.0,0.0,0.0,0.0,0.0,0.0,0.0,0.0,0.0,0.0,0.0,0.0,0.0,0.0,0.0,0.0,0.0,0.0,0.0,0.0,0.0,0.0,0.0,0.0,0.0,0.0,0.0,0.0,0.0,0.0,0.0,0.0,0.0,0.0,0.0,0.0,0.0,0.0,0.0,0.0,0.0,0.0,0.0,-2.9564,-2.8878,-2.8726,-2.9,-2.9535,-3.0509,-3.1549,-3.2364,-3.29,-3.3977,0.0,0.0,0.0,0.0,0.0,0.0,0.0,0.0,0.0,0.0,0.0,0.0,0.0,0.0,0.0,0.0,0.0,0.0,0.0,0.0,0.0,0.0,0.0,0.0,0.0,0.0,0.0,0.0,0.0,0.0,0.0,0.0,0.0,0.0,0.0,0.0,0.0,0.0,0.0,0.0,0.0,0.0,0.0,0.0,0.0,0.0,0.0,0.0,0.0,0.0,0.0,0.0,0.0,0.0,0.0,0.0,0.0,0.0,0.0,0.0,0.0,0.0,0.0,0.0,0.0,0.0,0.0,0.0,0.0,0.0,0.0,0.0,0.0,0.0,0.0,0.0,0.0,0.0,0.0,0.0,0.0,0.0,0.0,0.0,0.0,0.0,0.0,0.0,0.0,0.0,0.0,0.0,0.0,0.0,0.0,0.0,0.0,0.0,0.0,0.0,0.0,0.0,-2.9816,-2.926,-2.9758,-3.0105,-3.0603,-3.1433,-3.2627,-3.3403,-3.3654,-3.4891,0.0,0.0,0.0,0.0,0.0,0.0,0.0,0.0,0.0,0.0,0.0,0.0,0.0,0.0,0.0,0.0,0.0,0.0,0.0,0.0,0.0,0.0,0.0,0.0,0.0,0.0,0.0,0.0,0.0,0.0,0.0,0.0,0.0,0.0,0.0,0.0,0.0,0.0,0.0,0.0,0.0,0.0,0.0,0.0,0.0,0.0,0.0,0.0,0.0,0.0,0.0,0.0,0.0,0.0,0.0,0.0,0.0,0.0,0.0,0.0,0.0,0.0,0.0,0.0,0.0,0.0,0.0,0.0,0.0,0.0,0.0,0.0,0.0,0.0,0.0,0.0,0.0,0.0,0.0,0.0,0.0,0.0,0.0,0.0,0.0,0.0,0.0,0.0,0.0,0.0,0.0,0.0,0.0,0.0,0.0,0.0,0.0,0.0,0.0,0.0,0.0,0.0,-3.118,-3.0392,-3.051,-3.0015,-3.0182,-3.1492,-3.2276,-3.3194,-3.4442,-3.5203,0.0,0.0,0.0,0.0,0.0,0.0,0.0,0.0,0.0,0.0,0.0,0.0,0.0,0.0,0.0,0.0,0.0,0.0,0.0,0.0,0.0,0.0,0.0,0.0,0.0,0.0,0.0,0.0,0.0,0.0,0.0,0.0,0.0,0.0,0.0,0.0,0.0,0.0,0.0,0.0,0.0,0.0,0.0,0.0,0.0,0.0,0.0,0.0,0.0,0.0,0.0,0.0,0.0,0.0,0.0,0.0,0.0,0.0,0.0,0.0,0.0,0.0,0.0,0.0,0.0,0.0,0.0,0.0,0.0,0.0,0.0,0.0,0.0,0.0,0.0,0.0,0.0,0.0,0.0,0.0,0.0,0.0,0.0,0.0,0.0,0.0,0.0,0.0,0.0,0.0,0.0,0.0,0.0,0.0,0.0,0.0,0.0,0.0,0.0,0.0,0.0,0.0,-3.2109,-3.1832,-3.1856,-3.2008,-3.2451,-3.3417,-3.3681,-3.4248,-3.5191,0.0,0.0,0.0,0.0,0.0,0.0,0.0,0.0,0.0,0.0,0.0,0.0,0.0,0.0,0.0,0.0,0.0,0.0,0.0,0.0,0.0,0.0,0.0,0.0,0.0,0.0,0.0,0.0,0.0,0.0,0.0,0.0,0.0,0.0,0.0,0.0,0.0,0.0,0.0,0.0,0.0,0.0,0.0,0.0,0.0,0.0,0.0,0.0,0.0,0.0,0.0,0.0,0.0,0.0,0.0,0.0,0.0,0.0,0.0,0.0,0.0,0.0,0.0,0.0,0.0,0.0,0.0,0.0,0.0,0.0,0.0,0.0,0.0,0.0,0.0,0.0,0.0,0.0,0.0,0.0,0.0,0.0,0.0,0.0,0.0,0.0,0.0,0.0,0.0,0.0,0.0,0.0,0.0,0.0,0.0,0.0,0.0,0.0,0.0,0.0,0.0,0.0,-3.3534,-3.3127,-3.3003,-3.3187,-3.3443,-3.3887,-3.4528,-3.4576,-3.4894,-3.5577,0.0,0.0,0.0,0.0,0.0,0.0,0.0,0.0,0.0,0.0,0.0,0.0,0.0,0.0,0.0,0.0,0.0,0.0,0.0,0.0,0.0,0.0,0.0,0.0,0.0,0.0,0.0,0.0,0.0,0.0,0.0,0.0,0.0,0.0,0.0,0.0,0.0,0.0,0.0,0.0,0.0,0.0,0.0,0.0,0.0,0.0,0.0,0.0,0.0,0.0,0.0,0.0,0.0,0.0,0.0,0.0,0.0,0.0,0.0,0.0,0.0,0.0,0.0,0.0,0.0,0.0,0.0,0.0,0.0,0.0,0.0,0.0,0.0,0.0,0.0,0.0,0.0,0.0,0.0,0.0,0.0,0.0,0.0,0.0,0.0,0.0,0.0,0.0,0.0,0.0,0.0,0.0,0.0,0.0,0.0,0.0,0.0,0.0,0.0,0.0,0.0,0.0,-3.5515,-3.4447,-3.3887,-3.4528,-3.4037,-3.3887,-3.4528,-3.4624,-3.4894,0.0,0.0,0.0,0.0,0.0,0.0,0.0,0.0,0.0,0.0,0.0,0.0,0.0,0.0,0.0,0.0,0.0,0.0,0.0,0.0,0.0,0.0,0.0,0.0,0.0,0.0,0.0,0.0,0.0,0.0,0.0,0.0,0.0,0.0,0.0,0.0,0.0,0.0,0.0,0.0,0.0,0.0,0.0,0.0,0.0,0.0,0.0,0.0,0.0,0.0,0.0,0.0,0.0,0.0,0.0,0.0,0.0,0.0,0.0,0.0,0.0,0.0,0.0,0.0,0.0,0.0,0.0,0.0,0.0,0.0,0.0,0.0,0.0,0.0,0.0,0.0,0.0,0.0,0.0,0.0,0.0,0.0,0.0,0.0,0.0,0.0,0.0,0.0,0.0,0.0,0.0,0.0,0.0,0.0,0.0,0.0,0.0,0.0,0.0,0.0,0.0,0.0,0.0,-3.4941,-3.4958,-3.4894,-3.4624,-3.4847,-3.5115,-3.5316,-3.5316,-3.5407,-3.5577,0.0,0.0,0.0,0.0,0.0,0.0,0.0,0.0,0.0,0.0,0.0,0.0,0.0,0.0,0.0,0.0,0.0,0.0,0.0,0.0,0.0,0.0,0.0,0.0,0.0,0.0,0.0,0.0,0.0,0.0,0.0,0.0,0.0,0.0,0.0,0.0,0.0,0.0,0.0,0.0,0.0,0.0,0.0,0.0,0.0,0.0,0.0,0.0,0.0,0.0,0.0,0.0,0.0,0.0,0.0,0.0,0.0,0.0,0.0,0.0,0.0,0.0,0.0,0.0,0.0,0.0,0.0,0.0,0.0,0.0,0.0,0.0,0.0,0.0,0.0,0.0,0.0,0.0,0.0,0.0,0.0,0.0,0.0,0.0,0.0,0.0,0.0,0.0,0.0,0.0,0.0,0.0,0.0,0.0,0.0,0.0,0.0,0.0,0.0,0.0,0.0,0.0,-3.5052,-3.5362,-3.547,-3.5052,-3.5362,-3.5622,-3.5622,-3.5622,-3.5622,-3.5622,0.0,0.0,0.0,0.0,0.0,0.0,0.0,0.0,0.0,0.0,0.0,0.0,0.0,0.0,0.0,0.0,0.0,0.0,0.0,0.0,0.0,0.0,0.0,0.0,0.0,0.0,0.0,0.0,0.0,0.0,0.0,0.0,0.0,0.0,0.0,0.0,0.0,0.0,0.0,0.0,0.0,0.0,0.0,0.0,0.0,0.0,0.0,0.0,0.0,0.0,0.0,0.0,0.0,0.0,0.0,0.0,0.0,0.0,0.0,0.0,0.0,0.0,0.0,0.0,0.0,0.0,0.0,0.0,0.0,0.0,0.0,0.0,0.0,0.0,0.0,0.0,0.0,0.0,0.0,0.0,0.0,0.0,0.0,0.0,0.0,0.0,0.0,0.0,0.0,0.0,0.0,0.0,0.0,0.0,0.0,0.0,0.0,0.0,0.0,0.0,0.0,0.0,-3.5622,-3.5622,-3.5622,-3.5622,-3.5622,-3.5622,-3.5622,-3.5622,-3.5622,-3.5622,0.0,0.0,0.0,0.0,0.0,0.0,0.0,0.0,0.0,0.0,0.0,0.0,0.0,0.0,0.0,0.0,0.0,0.0,0.0,0.0,0.0,0.0,0.0,0.0,0.0,0.0,0.0,0.0,0.0,0.0,0.0,0.0,0.0,0.0,0.0,0.0,0.0,0.0,0.0,0.0,0.0,0.0,0.0,0.0,0.0,0.0,0.0,0.0,0.0,0.0,0.0,0.0,0.0,0.0,0.0,0.0,0.0,0.0,0.0,0.0,-3.5622,-3.5622,0.0,0.0,0.0,0.0,0.0,0.0,0.0,0.0,0.0,0.0,0.0,0.0,0.0,0.0,0.0,0.0,0.0,0.0,0.0,0.0,0.0,0.0,0.0,0.0,0.0,0.0,0.0,0.0,0.0,0.0,0.0,0.0,0.0,0.0,0.0,0.0,0.0,0.0,0.0,0.0,-3.5622,-3.5622,-3.5622,-3.5622,-3.5622,-3.5622,-3.5622,-3.5622,-3.5622,-3.5622,-3.5622,0.0,0.0,0.0,0.0,0.0,0.0,0.0,0.0,0.0,0.0,0.0,0.0,0.0,0.0,0.0,0.0,0.0,0.0,0.0,0.0,0.0,0.0,0.0,0.0,0.0,0.0,0.0,0.0,0.0,0.0,0.0,0.0,0.0,0.0,0.0,0.0,0.0,0.0,0.0,0.0,0.0,0.0,0.0,0.0,0.0,0.0,0.0,0.0,0.0,0.0,0.0,0.0,0.0,0.0,0.0,0.0,0.0,0.0,0.0,-3.5622,-3.5622,0.0,0.0,0.0,0.0,0.0,0.0,0.0,0.0,0.0,0.0,0.0,0.0,0.0,0.0,0.0,0.0,0.0,0.0,0.0,0.0,0.0,0.0,0.0,0.0,0.0,0.0,0.0,0.0,0.0,0.0,0.0,0.0,0.0,0.0,0.0,0.0,0.0,0.0,0.0,0.0,-3.5622,-3.5622,-3.5622,-3.5622,-3.5622,-3.5622,-3.5622,-3.5622,-3.5622,-3.5622,-3.5622,0.0,0.0,0.0,0.0,0.0,0.0,0.0,0.0,0.0,0.0,0.0,0.0,0.0,0.0,0.0,0.0,0.0,0.0,0.0,0.0,0.0,0.0,0.0,0.0,0.0,0.0,0.0,0.0,0.0,0.0,0.0,0.0,0.0,0.0,0.0,0.0,0.0,0.0,0.0,0.0,0.0,0.0,0.0,0.0,0.0,0.0,0.0,0.0,0.0,0.0,0.0,0.0,0.0,-3.5622,-3.5622,-3.5622,-3.5622,-3.5622,-3.5622,-3.5622,-3.5622,-3.5622,-3.5622,0.0,0.0,0.0,0.0,0.0,0.0,0.0,0.0,0.0,0.0,0.0,0.0,0.0,0.0,0.0,0.0,0.0,0.0,0.0,0.0,0.0,0.0,-3.5622,-3.5622,-3.5622,-3.5622,-3.5622,0.0,0.0,0.0,0.0,0.0,0.0,0.0,0.0,0.0,0.0,0.0,-3.5622,-3.5622,-3.5622,-3.5622,-3.5622,-3.5622,-3.5622,-3.5622,-3.5622,-3.5622,-3.5622,-3.5622,0.0,0.0,0.0,0.0,0.0,0.0,0.0,0.0,0.0,0.0,0.0,0.0,0.0,0.0,0.0,0.0,0.0,0.0,0.0,0.0,0.0,0.0,0.0,0.0,0.0,0.0,0.0,0.0,0.0,0.0,0.0,0.0,-3.8382,-3.7877,0.0,0.0,0.0,0.0,0.0,0.0,0.0,0.0,0.0,0.0,0.0,0.0,0.0,-3.5622,-3.5622,-3.5622,-3.5622,-3.5622,-3.5622,-3.5622,-3.5622,-3.5622,-3.5622,-3.5622,-3.5622,0.0,-3.5622,-3.5622,0.0,0.0,0.0,0.0,0.0,0.0,0.0,0.0,0.0,0.0,0.0,0.0,0.0,0.0,0.0,0.0,0.0,0.0,0.0,0.0,0.0,0.0,-3.5622,-3.5622,-3.5622,-3.5622,-3.5622,-3.5622,-3.5622,-3.5622,-3.5622,-3.5622,0.0,0.0,0.0,0.0,0.0,0.0,-3.5622,-3.5622,-3.5622,-3.5622,-3.5622,-3.5622,-3.5622,-3.5622,-3.5622,-3.5622,-3.5622,-3.5622,-3.5622,-3.5622,0.0,0.0,0.0,0.0,0.0,0.0,0.0,0.0,0.0,0.0,0.0,0.0,0.0,0.0,0.0,0.0,0.0,0.0,0.0,0.0,0.0,0.0,0.0,0.0,0.0,0.0,0.0,0.0,0.0,-3.7895,-3.7667,-3.7117,-3.6626,-3.6333,0.0,0.0,0.0,0.0,0.0,0.0,0.0,0.0,0.0,-3.5622,-3.5622,-3.5622,-3.5622,-3.5622,-3.5622,-3.5622,-3.5622,-3.5622,-3.5622,-3.5622,-3.5622,-3.5622,-3.5622,-3.5622,-3.5622,-3.5622,-3.5622,-3.5622,0.0,0.0,0.0,0.0,-3.5622,-3.5622,-3.5622,-3.5622,-3.5622,-3.5622,0.0,0.0,0.0,0.0,0.0,0.0,0.0,-3.5622,-3.5622,-3.5622,-3.5622,-3.5622,-3.5622,-3.5622,-3.5622,-3.5622,-3.5622,-3.5622,-3.5622,-3.5622,-3.5622,-3.5622,0.0,0.0,0.0,-3.5622,-3.5622,-3.5622,-3.5622,-3.5622,-3.5622,-3.5622,-3.5622,-3.5622,-3.5622,-3.5622,-3.5622,-3.5622,-3.5622,-3.5622,-3.5854,0.0,0.0,0.0,0.0,0.0,0.0,0.0,0.0,0.0,0.0,0.0,0.0,0.0,0.0,0.0,0.0,0.0,0.0,0.0,0.0,0.0,0.0,0.0,0.0,0.0,0.0,0.0,0.0,-3.7632,-3.734,-3.6684,-3.6249,-3.6165,0.0,0.0,0.0,0.0,0.0,0.0,-3.5622,-3.5622,-3.5622,-3.5622,-3.5622,-3.5622,-3.5622,-3.5622,-3.5723,-3.591,-3.591,-3.6028,-3.6197,-3.6197,-3.6197,-3.6197,-3.6197,-3.6197,-3.618,-3.5774,-3.5622,-3.5622,-3.5622,-3.5622,-3.5622,-3.5622,-3.5622,-3.5622,-3.5622,-3.5622,-3.5622,-3.5622,-3.5757,-3.591,-3.591,0.0,0.0,0.0,0.0,-3.6197,-3.6197,-3.6197,-3.6197,-3.6197,-3.6197,-3.6197,-3.6197,-3.6197,-3.6146,-3.596,-3.591,-3.5977,-3.618,-3.6197,0.0,-3.6197,-3.6197,-3.6197,-3.6197,-3.6197,-3.6197,-3.6197,-3.6197,-3.6129,-3.5926,-3.591,-3.5825,-3.5639,-3.5739,-3.581,-3.581,-3.5941,-3.6232,-3.6786,0.0,0.0,0.0,0.0,0.0,0.0,0.0,0.0,0.0,0.0,0.0,0.0,0.0,0.0,0.0,0.0,0.0,0.0,0.0,0.0,0.0,0.0,0.0,0.0,0.0,0.0,0.0,0.0,0.0,-3.7266,-3.7152,0.0,0.0,0.0,0.0,-3.6374,-3.6392,-3.6139,-3.5622,-3.5622,-3.5622,-3.5622,-3.5622,-3.5622,-3.5622,-3.5622,-3.5994,-3.6721,-3.6721,-3.7094,-3.7787,-3.7787,-3.7787,-3.7787,-3.7787,-3.7787,-3.7686,-3.6214,-3.5622,-3.5622,-3.5622,-3.5622,-3.5622,-3.5622,-3.5622,-3.5622,-3.5622,-3.5622,-3.5622,-3.5622,-3.6129,-3.6721,-3.6721,-3.7229,0.0,0.0,-3.7787,-3.7787,-3.7787,-3.7787,-3.7787,-3.7787,-3.7787,-3.7787,-3.7787,-3.7787,-3.7584,-3.6874,-3.6721,-3.6941,-3.7669,0.0,-3.7787,-3.7787,-3.7787,-3.7787,-3.7787,-3.7787,-3.7787,-3.7787,-3.7787,-3.7499,-3.6789,-3.6721,-3.64,-3.5673,-3.6097,-3.6333,-3.6333,-3.6843,-3.736,-3.7825,-3.7859,0.0,0.0,0.0,0.0,0.0,0.0,0.0,0.0,0.0,0.0,0.0,0.0,0.0,0.0,0.0,0.0,0.0,0.0,0.0,0.0,0.0,0.0,0.0,0.0,0.0,0.0,0.0,0.0,-3.7685,-3.7396,0.0,-3.7614,-3.6904,-3.6539,-3.6882,-3.6291,-3.5827,-3.5622,-3.5622,-3.6004,-3.687,-3.6559,-3.678,-3.7593,-3.7228,-3.7229,-3.7499,-3.7877,-3.7986,-3.7905,-3.8659,-3.8587,-3.7905,-3.8271,-3.8196,-3.7872,-3.7313,-3.7094,-3.7094,-3.7094,-3.7094,-3.7094,-3.7094,-3.7094,-3.7094,-3.7094,-3.7094,-3.7094,-3.7094,-3.728,-3.7499,-3.7499,-3.7702,-3.7905,-3.7905,-3.7905,-3.7905,-3.7905,-3.7905,-3.7905,-3.7905,-3.7905,-3.7905,-3.7905,-3.7905,-3.7973,-3.8159,-3.7821,-3.7584,-3.7855,-3.7905,-3.7905,-3.7905,-3.7905,-3.7905,-3.7905,-3.7905,-3.7905,-3.7905,-3.7905,-3.7787,-3.7533,-3.7499,-3.7534,-3.7583,-3.7275,-3.7293,-3.7659,-3.7379,-3.7433,-3.7893,-3.7893,-3.8183,0.0,0.0,0.0,0.0,0.0,0.0,0.0,0.0,0.0,0.0,0.0,0.0,0.0,0.0,0.0,0.0,0.0,0.0,0.0,0.0,0.0,0.0,0.0,0.0,0.0,-3.8267,-3.8099,-3.7911,-3.7614,-3.7614,-3.8099,-3.7379,-3.7087,-3.7562,-3.7091,-3.6757,-3.6659,-3.6648,-3.7058,-3.7931,-3.7462,-3.7655,-3.8677,-3.8362,-3.8425,-3.8831,-3.9225,-3.932,-3.921,-3.9783,-3.9739,-3.921,-3.9385,-3.9358,-3.9181,-3.9012,-3.8918,-3.8819,-3.8187,-3.7905,-3.7905,-3.7905,-3.7905,-3.7905,-3.7905,-3.7905,-3.7905,-3.7905,-3.8075,-3.8278,-3.8278,-3.8447,-3.8633,-3.8633,-3.8633,-3.8633,-3.8633,-3.8633,-3.8633,-3.8633,-3.8633,-3.8633,-3.8633,-3.8633,-3.8785,-3.9276,-3.8768,-3.8345,-3.8599,-3.8633,-3.8633,-3.8633,-3.8633,-3.8633,-3.8633,-3.8633,-3.8633,-3.8633,-3.8633,-3.8531,-3.8294,-3.8435,-3.8591,-3.8695,-3.8548,-3.8634,-3.9002,-3.8706,-3.8653,-3.8982,-3.8982,-3.9152,-3.9515,0.0,0.0,0.0,0.0,0.0,0.0,0.0,0.0,0.0,0.0,0.0,0.0,0.0,0.0,0.0,0.0,0.0,0.0,0.0,0.0,0.0,0.0,0.0,-3.8124,-3.8401,-3.8515,-3.798,-3.7964,-3.8186,-3.8695,-3.8289,-3.808,-3.8323,-3.8814,-3.9006,-3.8729,-3.8721,-3.8738,-3.8756,-3.8247,-3.8265,-3.879,-3.879,-3.9458,-4.0742,-4.0737,-4.1144,-4.1768,-4.1206,-4.1251,-4.175,-4.1223,-4.1268,-4.175,-4.1178,-4.0949,-4.0718,-3.8721,-3.7973,-3.7973,-3.7973,-3.7973,-3.7973,-3.7973,-3.7973,-3.7973,-3.7973,-3.8447,-3.9022,-3.9022,-3.9512,-4.007,-4.007,-4.007,-4.007,-4.007,-4.007,-4.007,-4.007,-4.007,-4.007,-4.007,-4.007,-4.007,-4.007,-3.9512,-3.9242,-3.9952,-4.007,-4.007,-4.007,-4.007,0.0,-4.007,-4.007,-4.007,-4.007,-4.0121,-3.985,-3.9139,-3.9542,-3.9562,-3.8886,-3.9786,-4.033,-4.0384,-4.0842,-4.1111,-4.1111,-4.1111,-4.1111,-4.1111,0.0,0.0,0.0,0.0,0.0,0.0,0.0,0.0,0.0,0.0,0.0,0.0,0.0,0.0,0.0,0.0,0.0,0.0,0.0,0.0,0.0,-4.1937,-4.1097,-3.9557,-3.8975,-3.8658,-3.8496,-3.9008,-3.9406,-3.957,-3.9597,-3.9662,-3.9732,-3.9562,-3.942,-3.9353,-3.9353,-3.9617,-4.0123,-3.9989,-4.027,-4.0944,-4.0944,-4.1135,-4.1474,-4.194,-4.2007,-4.1793,-4.2465,-4.2426,-4.181,-4.208,-4.2038,-4.181,-4.1621,-4.1534,-4.1411,-4.0021,-3.9478,-3.9478,-3.9478,-3.9478,-3.9478,-3.9478,-3.9478,-3.9478,-3.9478,-3.9614,-3.9783,-3.9783,-3.9918,-4.007,-4.007,-4.007,-4.007,-4.007,-4.007,-4.007,-4.007,-4.007,-4.007,-4.007,-4.007,-4.007,-4.007,-3.9918,-3.9834,-4.0054,-4.007,-4.007,-4.007,-4.007,-4.007,-4.007,-4.007,-4.007,-4.007,-4.0449,-4.0617,-4.041,-4.0909,-4.1361,-4.1578,-4.1279,-4.127,-4.1716,-4.1339,-4.1111,-4.1111,-4.1111,-4.1111,0.0,0.0,0.0,0.0,0.0,0.0,0.0,0.0,0.0,0.0,0.0,0.0,0.0,0.0,0.0,0.0,0.0,0.0,0.0,0.0,0.0,0.0,-4.2525,-4.1974,-4.1038,-4.0212,-3.9717,-3.9717,-4.012,-4.0396,-4.0396,-4.0531,-4.0653,-4.0763,-4.0726,-4.0775,-4.0885,-4.0903,-4.11,-4.1506,-4.1304,-4.1476,-4.2162,-4.2162,-4.2284,-4.2523,-4.2884,-4.2828,-4.2523,-4.2958,-4.2921,-4.2523,-4.2655,-4.2637,-4.2465,-4.2284,-4.2162,-4.208,0.0,0.0,0.0,0.0,-4.007,-4.007,-4.007,-4.007,-4.007,-4.007,-4.007,-4.007,-4.007,-4.007,-4.007,-4.007,-4.007,-4.007,-4.007,-4.007,-4.007,-4.007,-4.007,-4.007,-4.007,-4.007,-4.007,-4.007,-4.007,0.0,-4.007,-4.007,-4.007,-4.007,-4.007,-4.007,-4.007,-4.007,-4.007,-4.007,-4.0577,-4.0903,-4.0903,-4.1664,0.0,0.0,0.0,-4.2449,-4.28,-4.2359,0.0,0.0,0.0,-4.2121,-4.2121,-4.2121,0.0,0.0,-4.1423,-4.1295,0.0,0.0,0.0,0.0,0.0,0.0,0.0,0.0,0.0,0.0,0.0,0.0,0.0,0.0,0.0,0.0,-4.2892,-4.2433,-4.2433,-4.1827,-4.1313,-4.113,-4.1185,-4.1258,-4.1258,-4.1332,-4.1458,-4.1632,-4.2119,-4.2554,-4.279,-4.2788,0.0,0.0,0.0,-4.2203,-4.2711,-4.275,-4.3014,-4.3497,-4.3497,-4.3497,-4.3479,-4.3014,-4.305,-4.3479,-4.2976,-4.305,-4.3444,-4.2976,-4.2732,-4.2577,-4.1446,-4.0995,-4.0949,-4.0466,-4.0254,-4.0204,-4.0204,0.0,0.0,-4.007,-4.007,-4.007,-4.007,-4.007,-4.007,-4.007,-4.007,-4.007,-4.007,-4.007,-4.007,-4.007,-4.007,-4.007,-4.007,-4.007,-4.007,-4.007,-4.007,-4.007,-4.007,-4.007,-4.007,-4.007,-4.007,-4.0121,-4.0154,-4.0204,-4.0204,-4.0303,-4.0797,0.0,-4.1087,-4.2162,-4.2788,-4.2788,-4.325,-4.3497,-4.3497,-4.3497,-4.3497,-4.3497,-4.3497,-4.3497,-4.3497,-4.3497,-4.3497,-4.3461,-4.2047,-4.1754,0.0,0.0,0.0,0.0,0.0,0.0,0.0,0.0,0.0,0.0,0.0,0.0,0.0,0.0,0.0,-4.3497,-4.3369,-4.3259,-4.3259,-4.313,-4.2543,-4.1258,-4.168,-4.2066,-4.2066,-4.2653,-4.3041,-4.31,-4.3206,-4.3279,-4.3356,-4.3339,-4.3142,-4.2711,-4.3014,-4.2995,-4.2693,-4.3142,-4.341,-4.3497,-4.3497,0.0,-4.3497,-4.341,-4.341,-4.3479,-4.341,-4.341,-4.3479,-4.3375,-4.3087,-4.2616,-4.1895,-4.1621,-4.1621,-4.1508,-4.1133,-4.075,-4.075,-4.0449,-4.007,-4.007,-4.007,-4.007,-4.007,-4.007,0.0,-4.007,-4.007,-4.007,-4.007,-4.007,-4.007,-4.007,-4.007,-4.007,-4.007,-4.007,-4.007,-4.007,-4.007,-4.007,-4.007,-4.007,-4.007,-4.007,-4.007,-4.0254,-4.0703,-4.075,-4.092,-4.142,-4.1997,-4.2342,-4.2342,-4.2958,-4.3339,-4.3339,-4.3444,-4.3497,-4.3497,-4.3497,-4.3497,-4.3497,-4.3497,-4.3497,-4.3497,-4.3497,-4.3497,-4.3479,-4.3167,-4.3112,0.0,0.0,0.0,0.0,0.0,0.0,0.0,0.0,0.0,0.0,0.0,-4.3497,-4.3497,0.0,-4.3497,-4.3497,-4.3497,-4.3497,-4.3497,-4.3497,-4.3185,-4.2396,-4.2653,-4.2892,-4.2892,-4.3259,-4.3497,-4.3497,-4.3497,-4.3497,-4.3497,-4.3497,-4.3375,-4.3105,-4.3375,-4.3375,-4.3087,-4.3375,-4.3497,-4.3497,-4.3497,-4.3497,-4.3497,-4.3497,-4.3497,-4.3497,-4.3497,-4.3497,-4.3497,-4.3497,-4.3321,-4.305,-4.2772,-4.2306,-4.181,-4.181,-4.1402,-4.0903,-4.0903,-4.0528,-4.007,-4.007,-4.007,-4.007,-4.007,-4.007,-4.007,-4.007,-4.007,-4.007,-4.007,-4.007,-4.007,-4.007,-4.007,-4.007,-4.007,-4.007,-4.007,-4.007,-4.007,-4.007,-4.007,-4.0336,-4.0417,-4.0121,-4.0336,-4.0625,-4.0874,-4.1178,-4.149,-4.175,-4.2342,-4.2711,-4.2711,-4.3178,-4.3497,-4.3497,-4.3497,-4.3497,-4.3497,-4.3497,-4.3497,-4.3497,-4.3497,-4.3497,-4.3497,-4.3497,-4.3497,-4.3497,-4.3497,-4.3497,0.0,0.0,0.0,0.0,0.0,0.0,0.0,-4.3387,-4.3497,-4.3497,-4.3497,-4.3497,-4.3497,-4.3497,-4.3497,-4.3497,-4.3497,-4.3497,-4.3497,-4.3497,-4.3497,-4.3497,-4.3497,-4.3497,-4.3497,-4.3497,-4.3497,-4.3497,-4.3497,-4.3497,-4.3497,-4.3497,-4.3497,-4.3497,-4.3497,-4.3497,-4.3497,-4.3497,-4.3497,-4.3497,-4.3497,-4.3497,-4.3497,-4.3497,-4.3497,-4.3497,-4.3497,-4.3497,-4.3497,-4.3497,-4.3497,-4.3497,-4.3497,-4.294,-4.2103,-4.2021,-4.1578,-4.1041,-4.0949,-4.0528,-4.007,-4.007,-4.007,-4.007,-4.007,-4.007,-4.007,-4.007,-4.007,-4.007,-4.007,-4.007,-4.007,-4.007,-4.007,-4.007,-4.007,-4.007,-4.007,-4.007,-4.0154,-4.0254,-4.0254,-4.0703,-4.0874,-4.0336,-4.0703,-4.1133,-4.1206,-4.1664,-4.2021,-4.2103,-4.2559,-4.2864,-4.2864,-4.325,-4.3497,-4.3497,-4.3497,-4.3497,-4.3497,-4.3497,-4.3497,-4.3497,-4.3497,-4.3497,-4.3497,-4.3497,-4.3497,-4.3497,-4.3497,-4.3497,-4.0285,-4.0707,-4.1162,-4.1222,-4.1772,-4.2323,0.0,-4.2983,-4.3497,-4.3497,-4.3497,-4.3497,-4.3497,-4.3497,-4.3497,-4.3497,-4.3497,-4.3497,-4.3497,-4.3497,-4.3497,-4.3497,-4.3497,-4.3497,-4.3497,-4.3497,-4.3497,-4.3497,-4.3497,-4.3497,-4.3497,-4.3497,-4.3497,-4.3497,-4.3497,-4.3497,-4.3497,-4.3497,-4.3497,-4.3497,-4.3497,-4.3497,-4.3497,-4.3497,-4.3497,-4.3497,-4.3497,-4.3497,-4.3497,-4.3497,-4.3497,-4.3497,-4.3497,-4.341,-4.3232,-4.277,-4.2221,-4.1621,-4.1087,-4.0528,-4.007,-4.007,-4.007,-4.007,-4.007,-4.007,-4.007,-4.007,-4.007,-4.007,-4.007,-4.007,-4.007,-4.007,-4.007,-4.007,-4.007,-4.007,-4.007,-4.007,-4.0497,-4.0827,-4.0827,-4.1313,-4.149,-4.092,-4.1313,-4.1895,-4.244,-4.2577,-4.277,-4.3267,-4.3356,-4.341,-4.341,-4.3463,-4.3497,-4.3497,-4.3497,-4.3497,-4.3497,-4.3497,-4.3497,-4.3497,-4.3497,-4.3497,-4.3497,-4.3497,-4.3497,-4.3497,-4.3497,-4.3497,-3.9991,-3.9908,-4.0052,-4.0533,-4.0903,-4.1403,-4.2384,-4.2834,-4.319,-4.3456,-4.3497,-4.3497,-4.3497,-4.3497,-4.3497,-4.3497,-4.3497,-4.3497,-4.3497,-4.3497,-4.3497,-4.3497,-4.3497,-4.3497,-4.3497,-4.3497,-4.3497,-4.3497,-4.3497,-4.3497,-4.3497,-4.3497,-4.3497,-4.3497,-4.3497,-4.3497,-4.3497,-4.3497,-4.3736,-4.4195,-4.4195,-4.4433,-4.4892,-4.4892,-4.4892,-4.4892,-4.4892,-4.4892,-4.4892,-4.4892,-4.4892,-4.4892,-4.4892,-4.4892,-4.4746,-4.3597,-4.258,-4.175,-4.149,-4.0844,-4.007,-4.007,-4.007,-4.007,-4.007,-4.007,-4.007,-4.007,-4.007,-4.007,-4.007,-4.007,-4.007,-4.007,-4.007,-4.007,-4.007,-4.007,-4.007,-4.007,-4.0528,-4.0903,-4.0903,-4.1664,-4.2244,-4.1979,-4.2162,-4.2422,-4.2655,-4.2976,-4.325,-4.3497,-4.3497,-4.3497,-4.3497,-4.3497,-4.3497,-4.3497,-4.3497,-4.3497,-4.3497,-4.3497,-4.3497,-4.3497,-4.3497,-4.3497,-4.3497,-4.3497,-4.3497,-4.3497,-4.3497,-4.3497,-3.9861,-3.9486,-3.9388,-3.996,-4.0277,-4.0755,-4.1988,-4.2623,-4.301,-4.3268,-4.3465,-4.3631,-4.3513,-4.3497,-4.3497,-4.3497,-4.3497,-4.3497,-4.3497,-4.3497,-4.3497,-4.3497,-4.3497,-4.3497,-4.3497,-4.3497,-4.3497,-4.3497,-4.3497,-4.3497,-4.3497,-4.3497,-4.3497,-4.3497,-4.3497,-4.3497,-4.3497,-4.3718,-4.4121,-4.4709,-4.4929,-4.5351,-4.5902,-4.5902,-4.5902,-4.5902,-4.5902,-4.5902,-4.5902,-4.5902,-4.5902,-4.5902,-4.5902,-4.5902,-4.5755,-4.44,-4.3307,-4.2404,-4.2051,-4.1388,-4.0696,-4.0696,-4.0696,-4.0696,-4.0696,-4.0696,-4.0696,-4.0696,-4.0696,-4.0696,-4.0696,-4.0696,-4.0696,-4.0696,-4.0696,-4.0696,-4.0696,-4.0883,-4.0966,-4.0966,-4.1561,-4.2061,-4.2061,-4.2928,-4.3592,-4.3592,-4.3592,-4.3429,-4.2994,-4.325,-4.3497,-4.3497,-4.3497,-4.3497,-4.3497,-4.3497,-4.3497,-4.3497,-4.3497,-4.3497,-4.3497,-4.3497,-4.3497,-4.3497,-4.3497,-4.3497,-4.3497,-4.3497,-4.3497,-4.3497,-4.3497,-4.3497,-4.0101,-3.984,-3.9599,-3.9637,-4.0217,-4.0815,-4.0853,-4.2115,-4.3198,-4.288,-4.3434,-4.3881,-4.3563,-4.3497,-4.3497,-4.3497,-4.3497,-4.3497,-4.3497,-4.3497,-4.3497,-4.3497,-4.3497,-4.3497,-4.3497,-4.3497,-4.3497,-4.3497,-4.3497,-4.3497,-4.3497,-4.3497,-4.3497,-4.3497,-4.3497,-4.3497,-4.3497,-4.4268,-4.469,-4.4727,-4.5498,-4.5883,-4.5902,-4.5902,-4.5902,-4.5902,-4.5902,-4.5902,-4.5902,-4.5902,-4.5902,-4.5902,-4.5902,-4.5902,-4.581,-4.5185,-4.4539,-4.386,-4.2672,-4.2272,-4.2219,-4.2219,-4.2219,-4.2219,-4.2219,-4.2219,-4.2219,-4.2219,-4.2219,-4.2219,-4.2219,-4.2219,-4.2219,-4.2219,-4.2219,-4.2219,-4.2219,-4.274,-4.3221,-4.3221,-4.4148,-4.4949,-4.4949,-4.5437,-4.5792,-4.5792,-4.5792,-4.5259,-4.3699,-4.3479,-4.3497,-4.3497,-4.3497,-4.3497,-4.3497,-4.3497,-4.3497,-4.3497,-4.3497,-4.3497,-4.3497,-4.3497,-4.3497,-4.3497,-4.3497,-4.3497,-4.3497,-4.3497,-4.3497,-4.3497,-4.3497,-4.3497,-4.0101,-4.0022,-3.9922,-3.9922,-4.015,-4.0471,-4.1022,-4.1971,-4.2829,-4.3092,-4.3586,-4.3955,-4.3849,-4.3646,-4.3497,-4.3497,-4.3497,-4.3497,-4.3497,-4.3497,-4.3497,-4.3497,-4.3497,-4.3497,-4.3497,-4.3497,-4.3497,-4.3497,-4.3497,-4.3497,-4.3497,-4.3497,-4.3497,-4.3497,-4.3497,-4.3754,-4.4287,-4.4562,-4.5259,-4.6324,-4.7113,-4.7498,-4.7498,-4.7498,-4.7498,-4.7498,-4.7498,-4.7498,-4.7498,-4.7498,-4.7498,-4.7498,-4.7498,-4.7498,-4.7404,-4.6817,-4.6446,-4.5962,-4.3669,-4.291,-4.291,-4.2428,-4.2286,-4.2286,-4.2286,-4.2286,-4.2286,-4.2286,-4.2286,-4.2286,-4.2286,-4.2286,-4.2286,-4.2286,-4.262,-4.2859,-4.2392,-4.3126,-4.3781,-4.3388,-4.4263,-4.512,-4.512,-4.5548,-4.5902,-4.5902,-4.5902,-4.5516,-4.4433,-4.4305,-4.4085,-4.3552,-4.3497,-4.3497,-4.3497,-4.3497,-4.3497,-4.3497,-4.3497,-4.3497,-4.3497,-4.3497,-4.3497,-4.3497,-4.3497,-4.3497,-4.3497,-4.3497,-4.3497,-4.3497,-4.3497,-4.3497,-4.0232,-4.0232,-4.0232,-4.0232,-4.0232,-4.0385,-4.0902,-4.1896,-4.2774,-4.2966,-4.3768,-4.4299,-4.4058,-4.3818,-4.3646,-4.3513,-4.3497,-4.3497,-4.3497,-4.3497,-4.3497,-4.3497,-4.3497,-4.3497,-4.3497,-4.3497,-4.3497,-4.3497,-4.3497,-4.3497,-4.3497,-4.3497,-4.3497,-4.3497,-4.3497,-4.3883,-4.4709,-4.5002,-4.5957,-4.7553,-4.8067,-4.8306,-4.8306,-4.8306,-4.8306,-4.8306,-4.8306,-4.8306,-4.8306,-4.8306,-4.8306,-4.8306,-4.8306,-4.8306,-4.821,-4.7614,-4.7385,-4.7068,-4.4795,-4.4056,-4.3955,-4.335,-4.3098,-4.3098,-4.3098,-4.3098,-4.3098,-4.3098,-4.3098,-4.3098,-4.3098,-4.3098,-4.3206,-4.3369,-4.3752,-4.4056,-4.3837,-4.4618,-4.5232,-4.4823,-4.5556,-4.623,-4.623,-4.6539,-4.6764,-4.6764,-4.6764,-4.6361,-4.5278,-4.5131,-4.4929,-4.4397,-4.436,-4.4232,-4.3956,-4.392,-4.3809,-4.3516,-4.3497,-4.3497,-4.3497,-4.3497,-4.3497,-4.3497,-4.3497,-4.3497,-4.3497,-4.3497,-4.3497,-4.3497,-4.3497,-4.3644,-4.0489,-4.0489,-4.0489,-4.0489,-4.0489,-4.0489,-4.0489,-4.1854,-4.2979,-4.2602,-4.3895,-4.4877,-4.4204,-4.4028,-4.3912,-4.3563,-4.3513,-4.3513,-4.3479,-4.3497,-4.3497,-4.3497,-4.3497,-4.3497,-4.3497,-4.3497,-4.3497,-4.3497,-4.3497,-4.3497,-4.3497,-4.3497,-4.3497,-4.3497,-4.3534,-4.3938,-4.4764,-4.5608,-4.6783,-4.8306,-4.8306,-4.8306,-4.8306,-4.8306,-4.8306,-4.8306,-4.8306,-4.8306,-4.8306,-4.8306,-4.8306,-4.8306,-4.8306,-4.8306,-4.821,-4.7614,-4.7428,-4.7237,-4.5982,-4.5511,-4.5407,-4.4814,-4.4587,-4.4587,-4.4587,-4.4587,-4.4587,-4.4587,-4.4587,-4.4587,-4.4587,-4.4587,-4.4776,-4.5372,-4.5494,-4.5681,-4.6288,-4.6955,-4.7446,-4.7385,-4.7897,-4.8306,-4.8306,-4.8306,-4.8306,-4.8306,-4.8306,-4.7737,-4.6159,-4.5957,-4.5957,-4.5902,-4.5902,-4.559,-4.4837,-4.4764,-4.4433,-4.3663,-4.3608,-4.3608,-4.3608,-4.3608,-4.3608,-4.3608,-4.3608,-4.3608,-4.3608,-4.3608,-4.3608,-4.3608,-4.3608,-4.403,-4.0489,-4.0489,-4.0489,-4.0489,-4.0489,-4.0489,-4.0489,-4.1854,-4.3069,-4.2961,-4.4115,-4.5033,-4.4853,-4.4631,-4.4318,-4.3943,-4.3881,-4.3772,-4.3548,-4.3497,-4.3497,-4.3497,-4.3497,-4.3497,-4.3497,-4.3497,-4.3497,-4.3497,-4.3497,-4.3497,-4.3497,-4.3497,-4.3497,-4.3497,-4.4085,-4.4782,-4.559,-4.6985,-4.7902,-4.8306,-4.8306,-4.8306,-4.8306,-4.8306,-4.8306,-4.8306,-4.8306,-4.8306,-4.8306,-4.8306,-4.8306,-4.8306,-4.8306,-4.8306,-4.821,-4.7614,-4.7656,-4.7838,-4.6112,-4.5511,-4.5407,-4.4814,-4.4587,-4.4587,-4.4587,-4.4587,-4.4587,-4.4587,-4.4587,-4.4587,-4.4587,-4.4587,-4.4776,-4.5372,-4.5815,-4.6192,-4.6383,-4.7281,-4.7937,-4.7488,-4.7897,-4.8306,-4.8306,-4.8306,-4.8306,-4.8306,-4.8306,-4.7939,-4.6929,-4.6801,-4.6562,-4.5957,-4.5902,-4.581,-4.5608,-4.559,-4.5516,-4.5296,-4.5278,-4.5278,-4.5278,-4.5278,-4.5278,-4.5278,-4.5278,-4.5278,-4.5278,-4.5278,-4.5278,-4.5278,-4.5278,-4.5406,-4.0489,-4.0489,-4.0489,-4.0489,-4.0489,-4.0489,-4.0489,-4.1854,-4.3104,-4.3104,-4.4287,-4.5263,-4.5137,-4.4943,-4.4657,-4.4087,-4.4016,-4.3881,-4.3548,-4.3497,-4.3497,-4.3497,-4.3497,-4.3497,-4.3497,-4.3497,-4.3497,-4.3497,-4.3497,-4.3497,-4.3497,-4.3497,-4.3497,-4.3497,-4.3938,-4.4727,-4.5883,-4.7498,-4.8306,-4.8306,-4.8306,-4.8306,-4.8306,-4.8306,-4.8306,-4.8306,-4.8306,-4.8306,-4.8306,-4.8306,-4.8306,-4.8306,-4.8306,-4.8306,-4.8267,-4.7937,-4.7838,-4.7697,-4.6336,-4.5865,-4.5732,-4.4852,-4.4587,-4.4587,-4.4587,-4.4587,-4.4587,-4.4587,-4.4587,-4.4587,-4.4587,-4.4587,-4.4814,-4.5681,-4.6143,-4.6571,-4.7132,-4.7797,-4.821,-4.7856,-4.8075,-4.8306,-4.8306,-4.8306,-4.8306,-4.8306,-4.8306,-4.8141,-4.77,-4.7645,-4.7462,-4.7003,-4.6948,-4.6819,-4.6471,-4.6434,-4.6287,-4.592,-4.5902,-4.5902,-4.5902,-4.5902,-4.5902,-4.5902,-4.5902,-4.5902,-4.5902,-4.5902,-4.5902,-4.5902,-4.5902,-4.6085,-4.0489,-4.0489,-4.0489,-4.0489,-4.0489,-4.0489,-4.0489,-4.1723,-4.2842,-4.2842,-4.4109,-4.515,-4.4968,-4.4987,-4.4791,-4.4186,-4.4087,-4.3924,-4.3529,-4.3497,-4.3497,-4.3497,-4.3497,-4.3497,-4.3497,-4.3497,-4.3497,-4.3497,-4.3497,-4.3497,-4.3497,-4.3497,-4.3534,-4.3644,-4.3754,-4.4525,-4.6049,-4.7553,-4.8306,-4.8306,-4.8306,-4.8306,-4.8306,-4.8306,-4.8306,-4.8306,-4.8306,-4.8306,-4.8306,-4.8306,-4.8306,-4.8306,-4.8306,-4.8306,-4.8306,-4.821,-4.7897,-4.7428,-4.6664,-4.6478,-4.6336,-4.4998,-4.4682,-4.472,-4.4626,-4.4587,-4.4587,-4.4587,-4.4587,-4.4587,-4.4587,-4.4587,-4.4906,-4.6094,-4.6383,-4.6756,-4.8017,-4.8306,-4.8306,-4.8306,-4.8306,-4.8306,-4.8306,-4.8306,-4.8306,-4.8306,-4.8306,-4.8306,-4.8306,-4.8306,-4.8306,-4.8306,-4.8306,-4.8031,-4.7333,-4.7278,-4.6966,-4.6269,-4.6214,-4.6214,-4.6214,-4.6214,-4.6214,-4.6214,-4.6214,-4.6214,-4.6214,-4.6214,-4.6214,-4.6214,-4.6214,-4.6599,-4.0441,-4.0489,-4.0489,-4.0489,-4.0489,-4.0489,-4.0489,-4.1086,-4.1609,-4.1609,-4.2431,-4.331,-4.3975,-4.4288,-4.446,-4.4492,-4.4501,-4.4252,-4.3597,-4.3497,-4.3497,-4.3497,-4.3497,-4.3497,-4.3497,-4.3497,-4.3497,-4.3497,-4.3497,-4.3497,-4.3497,-4.3497,-4.3791,-4.447,-4.5149,-4.5938,-4.6893,-4.7847,-4.8306,-4.8306,-4.8306,-4.8306,-4.8306,-4.8306,-4.8306,-4.8306,-4.8306,-4.8306,-4.8306,-4.8306,-4.8306,-4.8306,-4.8306,-4.8306,-4.8249,-4.7756,-4.7797,-4.7977,-4.6801,-4.6756,-4.6927,-4.5196,-4.4961,-4.5284,-4.4776,-4.4587,-4.4587,-4.4587,-4.4587,-4.4587,-4.4587,-4.4587,-4.4906,-4.6094,-4.6383,-4.6756,-4.8017,-4.8306,-4.8306,-4.8306,-4.8306,-4.8306,-4.8306,-4.8306,-4.8306,-4.8306,-4.8306,-4.8306,-4.8306,-4.8306,-4.8306,-4.8306,-4.8306,-4.8251,-4.8104,-4.8104,-4.8031,-4.7902,-4.7884,-4.7884,-4.7884,-4.7884,-4.7884,-4.7884,-4.7884,-4.7884,-4.7884,-4.7884,-4.7884,-4.7884,-4.7884,-4.7976,-4.0213,-4.0285,-4.0321,-4.0473,-4.0489,-4.0473,-4.0321,-4.0807,-4.1263,-4.1117,-4.1759,-4.2462,-4.2902,-4.3409,-4.3741,-4.3686,-4.4008,-4.4106,-4.3563,-4.3497,-4.3497,-4.3497,-4.3497,-4.3497,-4.3497,-4.3497,-4.3497,-4.3497,-4.3497,-4.3497,-4.3497,-4.3497,-4.3663,-4.4066,-4.4856,-4.5663,-4.6471,-4.7278,-4.7902,-4.8306,-4.8306,-4.8306,-4.8306,-4.8306,-4.8306,-4.8306,-4.8306,-4.8306,-4.8306,-4.8306,-4.8306,-4.8306,-4.8306,-4.8306,-4.8267,-4.7995,-4.8035,-4.8172,-4.7237,-4.7324,-4.7614,-4.6014,-4.5511,-4.5494,-4.5511,-4.5089,-4.472,-4.5372,-4.532,-4.5142,-4.5459,-4.5563,-4.5783,-4.6728,-4.7176,-4.7554,-4.8172,-4.8306,-4.8306,-4.8306,-4.8306,-4.8306,-4.8306,-4.8306,-4.8306,-4.8306,-4.8306,-4.8306,-4.8306,-4.8306,-4.8306,-4.8306,-4.8306,-4.8306,-4.8306,-4.8306,-4.8306,-4.8306,-4.8306,-4.8306,-4.8306,-4.8306,-4.8306,-4.8306,-4.8306,-4.8306,-4.8306,-4.8306,-4.8306,-4.8306,-4.8306,-4.8306,-3.9901,-4.0002,-4.0042,-4.0248,-4.0319,-4.0248,-4.0042,-4.0437,-4.0767,-4.0556,-4.1017,-4.1506,-4.1719,-4.2316,-4.2806,-4.2799,-4.3327,-4.3677,-4.3511,-4.3497,-4.3497,-4.3497,-4.3497,-4.3497,-4.3497,-4.3497,-4.3497,-4.3497,-4.3497,-4.3497,-4.3497,-4.3497,-4.3497,-4.3497,-4.4287,-4.5002,-4.5645,-4.6452,-4.726,-4.8049,-4.8049,-4.8141,-4.8306,-4.8306,-4.8306,-4.8306,-4.8306,-4.8306,-4.8306,-4.8306,-4.8306,-4.8306,-4.8306,-4.8306,-4.8306,-4.8306,-4.8306,-4.821,-4.7756,-4.7897,-4.8132,-4.7132,-4.6383,-4.5982,-4.6288,-4.5732,-4.5178,-4.6143,-4.6063,-4.5783,-4.6288,-4.6383,-4.6571,-4.7237,-4.7856,-4.8306,-4.8306,-4.8306,-4.8306,-4.8306,-4.8306,-4.8306,-4.8306,-4.8306,-4.8306,-4.8306,-4.8306,-4.8306,-4.8306,-4.8306,-4.8306,-4.8306,-4.8306,-4.8306,-4.8306,-4.8306,-4.8306,-4.8306,-4.8306,-4.8306,-4.8306,-4.8306,-4.8306,-4.8306,-4.8306,-4.8306,-4.8306,-4.8306,-4.8306,-4.8306,-4.8306,-4.8306,-3.9534,-3.9645,-3.9645,-3.9668,-3.969,-3.9668,-3.9645,-3.947,-3.9298,-3.929,-3.932,-3.9626,-4.041,-4.086,-4.1487,-4.2613,-4.2872,-4.3058,-4.3437,-4.3497,-4.3497,-4.3497,-4.3497,-4.3497,-4.3497,-4.3497,-4.3497,-4.3497,-4.3497,-4.3497,-4.3497,-4.3497,-4.3497,-4.3497,-4.4287,-4.4745,-4.4819,-4.5608,-4.6416,-4.7223,-4.7223,-4.7609,-4.8306,-4.8306,-4.8306,-4.8306,-4.8306,-4.8306,-4.8306,-4.8306,-4.8306,-4.8306,-4.8306,-4.8306,-4.8306,-4.8306,-4.8306,-4.8306,-4.8229,-4.8249,-4.8267,-4.8153,-4.7715,-4.7106,-4.6571,-4.6336,-4.624,-4.6383,-4.6383,-4.6336,-4.6383,-4.6383,-4.6571,-4.7237,-4.7856,-4.8306,-4.8306,-4.8306,-4.8306,-4.8306,-4.8306,-4.8306,-4.8306,-4.8306,-4.8306,-4.8306,-4.8306,-4.8306,-4.8306,-4.8306,-4.8306,-4.8306,-4.8306,-4.8306,-4.8306,-4.8306,-4.8306,-4.8306,-4.8306,-4.8306,-4.8306,-4.8306,-4.8306,-4.8306,-4.8306,-4.8306,-4.8306,-4.8306,-4.8306,-4.8306,-4.8306,-4.8306,-3.9231,-3.9289,-3.9339,-3.9552,-3.9599,-3.9552,-3.9358,-3.9205,-3.9044,-3.8894,-3.8855,-3.8966,-3.9298,-3.987,-4.0465,-4.0984,-4.1846,-4.2558,-4.276,-4.3185,-4.3497,-4.3497,-4.3497,-4.3497,-4.3497,-4.3497,-4.3497,-4.3497,-4.3497,-4.3497,-4.3497,-4.3497,-4.3497,-4.3497,-4.3809,-4.4213,-4.4709,-4.5021,-4.559,-4.6379,-4.6379,-4.6544,-4.6856,-4.6856,-4.6856,-4.6856,-4.6856,-4.6856,-4.6856,-4.6856,-4.6856,-4.6856,-4.6856,-4.6856,-4.6856,-4.6856,-4.6941,-4.7088,-4.7457,-4.7673,-4.7797,-4.8172,-4.8132,-4.7897,-4.7596,-4.6999,-4.6571,-4.7324,-4.7281,-4.7088,-4.7452,-4.7554,-4.7596,-4.7897,-4.8132,-4.8306,-4.8306,-4.8306,-4.8306,-4.8306,-4.8306,-4.8306,-4.8306,-4.8306,-4.8306,-4.8306,-4.8306,-4.8306,-4.8306,-4.8306,-4.8306,-4.8306,-4.8306,-4.8306,-4.8306,-4.8306,-4.8306,-4.8306,-4.8306,-4.8306,-4.8306,-4.8306,-4.8306,-4.8306,-4.8306,-4.8306,-4.8306,-4.8306,-4.8306,-4.8306,-4.8306,-4.8306,-3.8933,-3.8971,-3.9027,-3.9275,-3.9327,-3.9275,-3.9027,-3.8971,-3.8952,-3.875,-3.8707,-3.8707,-3.8707,-3.9166,-3.9625,0.0,-4.1056,-4.2029,-4.2268,-4.2983,-4.3497,-4.3497,-4.3497,-4.3497,-4.3497,-4.3497,-4.3497,-4.3497,-4.3497,-4.3497,-4.3497,-4.3497,-4.3497,-4.3497,-4.3497,-4.3754,-4.4342,-4.436,-4.4745,-4.5553,-4.5553,-4.5663,-4.5902,-4.5902,-4.5902,-4.5902,-4.5902,-4.5902,-4.5902,-4.5902,-4.5902,-4.5902,-4.5902,-4.5902,-4.5902,-4.5902,-4.5913,-4.597,-4.6539,-4.6713,-4.6819,-4.7478,-4.7824,-4.7956,-4.802,-4.7512,-4.7132,-4.8075,-4.7977,-4.7756,-4.8172,-4.8306,-4.8306,-4.8306,-4.8306,-4.8306,-4.8306,-4.8306,-4.8306,-4.8306,-4.8306,-4.8306,-4.8306,-4.8306,-4.8306,-4.8306,-4.8306,-4.8306,-4.8306,-4.8306,-4.8306,-4.8306,-4.8306,-4.8306,-4.8306,-4.8306,-4.8306,-4.8306,-4.8306,-4.8306,-4.8306,-4.8306,-4.8306,-4.8306,-4.8306,-4.8306,-4.8306,-4.8306,-4.8306,-4.8306,-4.8306,-4.8306,-3.8707,-3.8707,-3.8707,-3.8707,-3.8707,-3.8707,-3.8707,-3.8707,-3.8707,-3.8707,-3.8707,-3.8707,-3.8707,-3.8707,-3.8964,-3.9772,-4.0579,-4.1405,-4.2194,-4.2983,-4.3497,-4.3497,-4.3497,-4.3497,-4.3497,-4.3497,-4.3497,-4.3497,-4.3497,-4.3497,-4.3497,-4.3497,-4.3497,-4.3497,-4.3497,-4.3497,-4.3497,-4.3497,-4.392,-4.4727,-4.4727,-4.5131,-4.5902,-4.5902,-4.5902,-4.5902,-4.5902,-4.5902,-4.5902,-4.5902,-4.5902,-4.5902,-4.5902,-4.5902,-4.5902,-4.5902,-4.5567,-4.5178,-4.5736,-4.5567,-4.5242,-4.5977,-4.6652,-4.7146,-4.7337,-4.7797,-4.8267,-4.8306,-4.8306,-4.8306,-4.8306,-4.8306,-4.8306,-4.8306,-4.8306,-4.8306,-4.8306,-4.8306,-4.8306,-4.8306,-4.8306,-4.8306,-4.8306,-4.8306,-4.8306,-4.8306,-4.8306,-4.8306,-4.8306,-4.8306,-4.8306,-4.8306,-4.8306,-4.8306,-4.8306,-4.8306,-4.8306,-4.8306,-4.8306,-4.8306,-4.8306,-4.8306,-4.8306,-4.8306,-4.8306,-4.8306,-4.8306,-4.8306,-4.8306,-4.8306,-4.8306,-4.8306,-3.8707,-3.8707,-3.8707,-3.8707,-3.8707,-3.8707,-3.8707,-3.8707,-3.8707,-3.8707,-3.8707,-3.8707,-3.8707,-3.8707,-3.8781,-3.9038,-3.9753,-4.0561,-4.1368,-4.2176,-4.2873,-4.3424,-4.3497,-4.3497,-4.3497,-4.3497,-4.3497,-4.3497,-4.3497,-4.3497,-4.3497,-4.3497,-4.3497,-4.3497,-4.3497,-4.3497,-4.3497,-4.3497,-4.3626,-4.3883,-4.3883,-4.4011,-4.425,-4.425,-4.425,-4.425,-4.425,-4.425,-4.425,-4.425,-4.425,-4.425,-4.425,-4.425,-4.425,-4.425,-4.4217,-4.4267,-4.4876,-4.5055,-4.5156,-4.5802,-4.6102,-4.6287,-4.6356,-4.7293,-4.8306,-4.8306,-4.8306,-4.8306,-4.8306,-4.8306,-4.8306,-4.8306,-4.8306,-4.8306,-4.8306,-4.8306,-4.8306,-4.8306,-4.8306,-4.8306,-4.8306,-4.8306,-4.8306,-4.8306,-4.8306,-4.8306,-4.8306,-4.8306,-4.8306,-4.8306,-4.8306,-4.8306,-4.8306,-4.8306,-4.8306,-4.8306,-4.8306,-4.8306,-4.8306,-4.8306,-4.8306,-4.8306,-4.8306,-4.8306,-4.8306,-4.8306,-4.8306,-4.8306,-4.8306,-4.8306,-3.8707,-3.8707,-3.8707,-3.8707,-3.8707,-3.8707,-3.8707,-3.8707,-3.8707,-3.8707,-3.8707,-3.8707,-3.8707,-3.8707,-3.8707,-3.8707,-3.9386,-4.0175,-4.1001,-4.1791,-4.2598,-4.3387,-4.3497,-4.3497,-4.3497,-4.3497,-4.3497,-4.3497,-4.3497,-4.3497,-4.3497,-4.3497,-4.3497,-4.3497,-4.3497,-4.3497,-4.3497,-4.3497,-4.3497,-4.3497,-4.3497,-4.3497,-4.3497,-4.3497,-4.3497,-4.3497,-4.3497,-4.3497,0.0,-4.3497,-4.3497,-4.3497,-4.3497,-4.3497,-4.3497,-4.3497,-4.3433,-4.3472,-4.4053,-4.4198,-4.4231,-4.4887,-4.5293,-4.5586,-4.5847,-4.6819,-4.7921,-4.8214,-4.8306,-4.8306,-4.8306,-4.8306,-4.8306,-4.8306,-4.8306,-4.8306,-4.8306,-4.8306,-4.8306,-4.8306,-4.8306,-4.8306,-4.8306,-4.8306,-4.8306,-4.8306,-4.8306,-4.8306,-4.8306,-4.8306,-4.8306,-4.8306,-4.8306,-4.8306,-4.8306,-4.8306,-4.8306,-4.8306,-4.8306,-4.8306,-4.8306,-4.8306,-4.8306,-4.8306,-4.8306,-4.8306,-4.8306,-4.8306,-4.8306,-4.8306,-4.8306,-4.8306,0.0,-3.8658,-3.8707,-3.8707,-3.8707,-3.8707,-3.8707,-3.8707,0.0,-3.8707,-3.8707,-3.8707,-3.8707,-3.8707,-3.8707,-3.8707,-3.9331,-4.012,-4.0983,-4.1846,-4.2653,-4.3406,-4.3497,-4.3497,-4.3497,-4.3497,-4.3497,-4.3497,-4.3497,-4.3497,-4.3497,-4.3497,-4.3497,-4.3497,-4.3497,-4.3497,-4.3497,-4.3497,-4.3497,-4.3497,-4.3497,-4.3497,-4.3497,-4.3497,-4.3497,-4.3497,-4.3497,-4.3497,-4.3497,-4.3497,-4.3479,-4.3444,-4.3497,-4.3444,-4.3391,-4.341,-4.3087,-4.2693,-4.325,-4.3142,-4.282,-4.3541,-4.4263,-4.4997,-4.5626,-4.6379,-4.7186,-4.7921,-4.8177,-4.8214,-4.8214,-4.8269,-4.8306,-4.8306,-4.8306,-4.8306,-4.8306,-4.8306,-4.8306,-4.8306,-4.8306,-4.8306,-4.8306,-4.8306,-4.8306,-4.8306,-4.8306,-4.8306,-4.8306,-4.8306,-4.8306,-4.8306,-4.8306,-4.8306,-4.8306,-4.8306,-4.8306,-4.8306,-4.8306,-4.8306,-4.8306,-4.8306,-4.8306,-4.8306,-4.8306,-4.8306,-4.8306,-4.8306,-4.8306,-4.8306,-4.8306,-4.8306,-3.8099,0.0,-3.8707,-3.8707,-3.8707,-3.8707,0.0,-3.8707,-3.8707,-3.8707,-3.8707,-3.8707,-3.8707,-3.8707,-3.8707,-3.8707,-3.8854,-3.9478,-4.091,-4.2323,-4.3277,-4.3461,-4.3497,-4.3497,-4.3497,-4.3497,-4.3497,-4.3497,-4.3497,-4.3497,-4.3497,-4.3497,-4.3497,-4.3497,-4.3497,-4.3497,-4.3497,-4.3497,-4.3497,-4.3497,-4.3497,-4.3497,-4.3497,-4.3497,-4.3497,-4.3497,-4.3497,-4.3497,-4.3497,-4.3497,-4.325,-4.2939,-4.3339,-4.2977,-4.2266,-4.2714,-4.2519,-4.2121,-4.2675,-4.2826,-4.2806,-4.3379,-4.3688,-4.3998,-4.4746,-4.5553,-4.6214,-4.6416,-4.6911,-4.7388,-4.7388,-4.7847,-4.8306,-4.8306,-4.8306,-4.8306,-4.8306,-4.8306,-4.8306,-4.8306,-4.8306,-4.8306,-4.8306,-4.8306,-4.8306,-4.8306,-4.8306,-4.8306,-4.8306,-4.8306,-4.8306,-4.8306,-4.8306,-4.8306,-4.8306,-4.8306,-4.8306,-4.8306,-4.8306,-4.8306,-4.8306,-4.8306,-4.8306,-4.8306,-4.8306,-4.8306,-4.8306,-4.8306,-4.8306,-4.8306,-4.8306,-4.8306,-3.7825,-3.83,-3.8707,-3.8707,-3.8707,-3.8707,-3.8707,-3.8707,-3.8707,-3.8707,-3.8496,-3.8415,-3.8658,-3.8496,-3.8415,-3.8658,-3.8707,-3.9258,-4.0891,-4.2488,-4.3497,-4.3497,-4.3497,-4.3497,-4.3497,-4.3497,-4.3497,-4.3497,-4.3497,-4.3497,-4.3497,-4.3497,-4.3497,-4.3497,-4.3497,-4.3497,-4.3497,-4.3497,-4.3497,-4.3497,-4.3497,-4.3497,-4.3497,-4.3497,-4.3497,-4.3497,-4.3497,-4.3497,-4.3497,-4.3497,-4.3339,-4.3105,-4.3375,-4.2995,-4.2284,-4.2846,-4.2541,-4.1937,-4.2752,-4.3069,-4.3124,-4.341,-4.3497,-4.3571,-4.4011,-4.4452,-4.4947,-4.5681,-4.6214,-4.6562,-4.6562,-4.6874,-4.7205,-4.7205,-4.7205,-4.7297,-4.7682,-4.7755,-4.7865,-4.8233,-4.8306,-4.8306,-4.8306,-4.8306,-4.8306,-4.8306,-4.8306,-4.8306,-4.8306,-4.8306,-4.8306,-4.8306,-4.8306,-4.8306,-4.8306,-4.8306,-4.8306,-4.8306,-4.8306,-4.8306,-4.8306,-4.8306,-4.8306,-4.8306,-4.8306,-4.8306,-4.8306,-4.8306,-4.8306,-4.8306,-4.8306,-4.8306,-3.756,-3.8065,-3.8515,-3.8658,-3.8707,-3.8707,-3.8707,-3.8707,-3.8676,-3.8578,-3.8267,-3.815,-3.8496,-3.8267,-3.8183,-3.8627,-3.8799,-3.9405,-4.091,-4.2378,-4.3351,-4.3479,-4.3497,-4.3497,-4.3497,-4.3497,-4.3497,-4.3497,-4.3497,-4.3497,-4.3497,-4.3497,-4.3497,-4.3497,-4.3497,-4.3497,-4.3497,-4.3497,-4.3497,-4.3497,-4.3497,-4.3497,-4.3497,-4.3497,-4.3497,-4.3497,-4.3497,-4.3497,-4.3497,-4.3497,-4.3444,-4.3375,-4.3463,-4.3124,-4.2655,-4.3178,-4.2696,-4.1961,-4.3032,-4.3444,-4.3497,-4.3497,-4.3497,-4.3497,-4.3497,-4.3497,-4.3773,-4.5149,-4.5626,-4.5718,-4.5718,-4.581,-4.5902,-4.5902,-4.5902,-4.6085,-4.6783,-4.6929,-4.7131,-4.781,-4.8031,-4.8122,-4.8122,-4.8233,-4.8306,-4.8306,-4.8306,-4.8306,-4.8306,-4.8306,-4.8306,-4.8306,-4.8306,-4.8306,-4.8306,-4.8306,-4.8306,-4.8306,-4.8306,-4.8306,-4.8306,-4.8306,-4.8306,-4.8306,-4.8306,-4.8306,-4.8306,-4.8306,-4.8306,-4.8306,-4.8306,-4.8306,-3.6603,-3.702,-3.7632,-3.8483,-3.8707,-3.8707,-3.8707,-3.8707,-3.8578,-3.8117,-3.83,-3.8465,-3.8099,-3.835,-3.8578,-3.8676,-3.9276,-4.0047,-4.0983,-4.1901,-4.2745,-4.3406,-4.3497,-4.3497,-4.3497,-4.3497,-4.3497,-4.3497,-4.3497,-4.3497,-4.3497,-4.3497,-4.3497,-4.3497,-4.3497,-4.3497,-4.3497,-4.3497,-4.3497,-4.3497,-4.3497,-4.3497,-4.3497,-4.3497,-4.3497,-4.3497,-4.3497,-4.3497,-4.3497,-4.3497,-4.3214,-4.2864,-4.3321,-4.2865,-4.2021,-4.2598,-4.2382,-4.1895,-4.2598,-4.3142,-4.3497,-4.3497,-4.3497,-4.3497,-4.3497,-4.3497,-4.3534,-4.3791,-4.436,-4.4892,-4.4892,-4.5388,-4.5902,-4.5902,-4.5902,-4.592,-4.6067,-4.6085,-4.6122,-4.6232,-4.6838,-4.7297,-4.7297,-4.7865,-4.8306,-4.8306,-4.8306,-4.8306,-4.8306,-4.8306,-4.8306,-4.8306,-4.8306,-4.8306,-4.8306,-4.8306,-4.8306,-4.8306,-4.8306,-4.8306,-4.8306,-4.8306,-4.8306,-4.8306,-4.8306,-4.8306,-4.8306,-4.8306,-4.8306,-4.8306,-4.8306,-4.8306,-3.6291,-3.658,-3.696,-3.7721,-3.8083,-3.8332,-3.8627,-3.8707,-3.8546,-3.8013,-3.7877,-3.7895,-3.7911,-3.7877,-3.8068,-3.8627,-3.9386,-4.0029,-4.0396,-4.1515,-4.2433,-4.28,-4.3222,-4.3497,-4.3497,-4.3497,-4.3497,-4.3497,-4.3497,-4.3497,-4.3497,-4.3497,-4.3497,-4.3497,-4.3497,-4.3497,-4.3497,-4.3497,-4.3497,-4.3497,-4.3497,-4.3497,-4.3497,-4.3497,-4.3339,-4.3069,-4.3069,-4.2865,-4.26,-4.26,-4.2444,-4.2244,-4.2483,-4.2085,-4.1358,-4.1621,-4.2144,-4.2734,-4.2693,-4.305,-4.3497,-4.3497,-4.3497,-4.3497,-4.3497,-4.3497,-4.3497,-4.3497,-4.3754,-4.4048,-4.4048,-4.4323,-4.4599,-4.4599,-4.4599,-4.4709,-4.5168,-4.5259,-4.5388,-4.581,-4.6195,-4.6452,-4.6452,-4.6764,-4.715,-4.7609,-4.7664,-4.7829,-4.8251,-4.8306,-4.8306,-4.8306,-4.8306,-4.8306,-4.8306,-4.8306,-4.8306,-4.8306,-4.8306,-4.8306,-4.8306,-4.8306,-4.8306,-4.8306,-4.8306,-4.8306,-4.8306,-4.8306,-4.8306,-4.8306,-4.8306,-4.8306,-3.6097,-3.6086,-3.6056,-3.664,-3.7327,-3.798,-3.8285,-3.8433,-3.835,-3.7685,-3.736,-3.7285,-3.7506,-3.747,-3.7632,-3.8382,-3.914,-3.968,-3.9863,-4.0965,-4.1809,-4.2011,-4.2727,-4.3222,-4.3222,-4.3387,-4.3497,-4.3497,-4.3497,-4.3497,-4.3497,-4.3497,-4.3497,-4.3497,-4.3497,-4.3497,-4.3497,-4.3497,-4.3497,-4.3497,-4.3497,-4.3497,-4.3497,-4.3497,-4.3286,-4.2902,-4.2732,-4.244,-4.1979,-4.1853,-4.181,-4.181,-4.181,-4.1534,-4.1133,-4.1133,-4.2044,-4.325,-4.2864,-4.305,-4.3497,-4.3497,-4.3497,-4.3497,-4.3497,-4.3497,-4.3497,-4.3497,-4.3497,-4.3497,-4.3497,-4.3497,-4.3497,-4.3497,-4.3497,-4.3663,-4.4287,-4.4415,-4.4599,-4.5223,-4.548,-4.5626,-4.5626,-4.5773,-4.6104,-4.6746,-4.6838,-4.7131,-4.7921,-4.8031,-4.8104,-4.8288,-4.8306,-4.8306,-4.8306,-4.8306,-4.8306,-4.8306,-4.8306,-4.8306,-4.8306,-4.8306,-4.8306,-4.8306,-4.8306,-4.8306,-4.8306,-4.8306,-4.8306,-4.8306,-4.8306,-4.8306,-3.5667,-3.5142,-3.4772,-3.5319,-3.6698,-3.779,-3.7396,-3.7649,-3.7685,-3.6724,-3.6882,-3.7076,-3.6603,-3.723,-3.7859,-3.7946,-3.8419,-3.9056,-3.979,-3.9992,-4.0341,-4.1111,-4.1901,-4.2396,-4.2396,-4.3057,-4.3497,-4.3497,-4.3497,-4.3497,-4.3497,-4.3497,-4.3497,-4.3497,-4.3497,-4.3497,-4.3497,-4.3497,-4.3497,-4.3497,-4.3497,-4.3497,-4.3497,-4.3497,-4.3479,-4.341,-4.2902,-4.2673,-4.2577,-4.2021,-4.181,-4.181,-4.181,-4.175,-4.1768,-4.1768,-4.2162,-4.275,-4.2711,-4.305,-4.3497,-4.3497,-4.3497,-4.3497,-4.3497,-4.3497,-4.3497,-4.3497,-4.3497,-4.3497,-4.3497,-4.3497,-4.3497,-4.3497,-4.3497,-4.3516,-4.3552,-4.3589,-4.3589,-4.3644,-4.4287,-4.48,-4.48,-4.5406,-4.592,-4.5975,-4.5993,-4.6287,-4.7095,-4.7205,-4.748,-4.8233,-4.8306,-4.8306,-4.8306,-4.8306,-4.8306,-4.8306,-4.8306,-4.8306,-4.8306,-4.8306,-4.8306,-4.8306,-4.8306,-4.8306,-4.8306,-4.8306,-4.8306,-4.8306,-4.8306,-4.8306,-3.437,-3.4032,-3.3855,-3.4089,-3.4849,-3.5611,-3.574,-3.5918,-3.6043,-3.6136,-3.5738,-3.5524,-3.6039,-3.6984,-3.7831,-3.831,-3.8578,-3.8817,-3.9111,-3.957,-4.001,-4.0322,-4.1056,-4.1552,-4.1552,-4.2286,-4.2745,-4.2745,-4.3222,-4.3497,-4.3497,-4.3497,-4.3497,-4.3497,-4.3497,-4.3497,-4.3497,-4.3497,-4.3497,-4.3497,-4.3497,-4.3497,-4.3497,-4.3497,-4.3339,-4.2976,-4.2382,-4.1937,-4.1534,-4.0984,-4.072,-4.072,-4.072,-4.0938,-4.1223,-4.1223,-4.1621,-4.2203,-4.2577,-4.2826,-4.305,-4.341,-4.3497,-4.3497,-4.3497,-4.3497,-4.3497,-4.3497,-4.3497,-4.3497,-4.3497,-4.3497,-4.3497,-4.3497,-4.3497,-4.3497,-4.3497,-4.3497,-4.3497,-4.3497,-4.3736,-4.3956,-4.3956,-4.4195,-4.458,-4.5076,-4.5149,-4.5443,-4.625,-4.6361,-4.6673,-4.748,-4.8012,-4.8306,-4.8306,-4.8306,-4.8306,-4.8306,-4.8306,-4.8306,-4.8306,-4.8306,-4.8306,-4.8306,-4.8306,-4.8306,-4.8306,-4.8306,-4.8306,-4.8306,-4.8306,-4.8306,-3.3541,-3.3237,-3.3051,-3.3051,-3.3134,-3.3321,-3.3665,-3.4215,-3.478,-3.5101,-3.4648,-3.4418,-3.5232,-3.6407,-3.7442,-3.7958,-3.8413,-3.8707,-3.8707,-3.9166,-3.9515,-3.9515,-4.023,-4.0726,-4.0726,-4.146,-4.1919,-4.1919,-4.2433,-4.2745,-4.2745,-4.2745,-4.2745,-4.2745,-4.2745,-4.2745,-4.2745,-4.2745,-4.2745,-4.2745,-4.2745,-4.3002,-4.3497,-4.3497,-4.3286,-4.2939,-4.2342,-4.175,-4.1133,-4.0577,-4.0237,-4.007,-4.007,-4.0336,-4.0655,-4.0655,-4.1013,-4.1578,-4.1979,-4.2262,-4.2519,-4.305,-4.325,-4.3286,-4.3444,-4.3497,-4.3497,-4.3497,-4.3497,-4.3497,-4.3497,-4.3497,-4.3497,-4.3497,-4.3497,-4.3497,-4.3497,-4.3497,-4.3497,-4.3497,-4.3497,-4.3497,-4.3497,-4.3497,-4.3681,-4.425,-4.4323,-4.4617,-4.5424,-4.5516,-4.5828,-4.6654,-4.7443,-4.7921,-4.7921,-4.8159,-4.8306,-4.8306,-4.8306,-4.8306,-4.8306,-4.8306,-4.8306,-4.8306,-4.8306,-4.8306,-4.8306,-4.8306,-4.8306,-4.8306,-4.8306,-4.8306,-3.3389,-3.2848,-3.2313,-3.2313,-3.1732,-3.119,-3.119,-3.2728,-3.4029,-3.3498,-3.3768,-3.4108,-3.4068,-3.5509,-3.6687,-3.6705,-3.7822,-3.8707,-3.8707,-3.8707,-3.8707,-3.8707,-3.9405,-3.9882,-3.9882,-4.0616,-4.1111,-4.1111,-4.1111,-4.1111,-4.1111,-4.1111,-4.1111,-4.1111,-4.1111,-4.1111,-4.1111,-4.1111,-4.1111,-4.1111,-4.1111,-4.1937,-4.3461,-4.3479,-4.3479,-4.3444,-4.2902,-4.2342,-4.175,-4.1133,-4.0577,-4.007,-4.007,-4.007,-4.007,-4.007,-4.0449,-4.0903,-4.0903,-4.1313,-4.1895,-4.248,-4.2711,-4.2788,-4.3321,-4.3497,-4.3497,-4.3497,-4.3497,-4.3497,-4.3497,-4.3497,-4.3497,-4.3497,-4.3497,-4.3497,-4.3497,-4.3497,-4.3497,-4.3497,-4.3497,-4.3497,-4.3497,-4.3497,-4.3497,-4.3497,-4.3497,-4.3791,-4.4599,-4.4709,-4.5021,-4.5792,-4.6617,-4.7075,-4.7113,-4.7847,-4.8306,-4.8306,-4.8306,-4.8306,-4.8306,-4.8306,-4.8306,-4.8306,-4.8306,-4.8306,-4.8306,-4.8306,-4.8306,-4.8306,-4.8306,-4.8306,-3.1985,-3.1681,-3.1512,-3.1512,-3.136,-3.119,-3.119,-3.1669,-3.2032,-3.189,-3.3173,-3.4109,-3.3519,-3.4338,-3.5439,-3.6591,-3.7087,-3.7681,-3.8585,-3.8707,-3.8707,-3.8707,-3.8909,-3.9056,-3.9056,-3.9772,-4.0267,-4.0267,-4.0781,-4.1111,-4.1111,-4.1111,-4.1111,-4.1111,-4.1111,-4.1111,-4.1111,-4.1111,-4.1111,-4.1111,-4.1111,-4.1368,-4.1827,-4.1958,-4.2032,-4.2014,-4.1629,-4.1313,-4.1133,-4.0594,-4.0254,-4.007,-4.007,-4.007,-4.007,-4.007,-4.0204,-4.0417,-4.078,-4.1041,-4.1268,-4.1853,-4.2342,-4.275,-4.2902,-4.3214,-4.3497,-4.3497,-4.3497,-4.3497,-4.3497,-4.3497,-4.3497,-4.3497,-4.3497,-4.3497,-4.3497,-4.3497,-4.3497,-4.3497,-4.3497,-4.3497,-4.3497,-4.3497,-4.3497,-4.3497,-4.3497,-4.3589,-4.3828,-4.436,-4.48,-4.5039,-4.5792,-4.6489,-4.7076,-4.7333,-4.7719,-4.8269,-4.8306,-4.8306,-4.8306,-4.8306,-4.8306,-4.8306,-4.8306,-4.8306,-4.8306,-4.8306,-4.8306,-4.8306,-4.8306,-4.8306,-3.1309,-3.119,-3.119,-3.119,-3.119,-3.1252,-3.1411,-3.1449,-3.1449,-3.1449,-3.2754,-3.3764,-3.3225,-3.3952,-3.4963,-3.5926,-3.6648,-3.7361,-3.8126,-3.8505,-3.8707,-3.8707,-3.8707,-3.8707,-3.8707,-3.9148,-3.9423,-3.9423,-3.9882,-4.0157,-4.0157,-4.0157,-4.0157,-4.0157,-4.0157,-4.0157,-4.0157,-3.9959,-3.9823,-3.9823,-3.9636,-3.9567,-3.9603,-4.051,-4.0961,-4.096,-4.0595,-4.0452,-4.0441,-4.0217,-4.007,-4.007,-4.007,-4.007,-4.007,-4.007,-4.007,-4.0171,-4.0449,-4.0577,-4.0672,-4.1268,-4.1664,-4.2062,-4.2559,-4.2939,-4.3214,-4.3444,-4.3497,-4.3497,-4.3497,-4.3497,-4.3497,-4.3497,-4.3497,-4.3497,-4.3497,-4.3497,-4.3497,-4.3497,-4.3497,-4.3497,-4.3497,-4.3497,-4.3497,-4.3497,-4.3497,-4.3497,-4.3497,-4.392,-4.4213,-4.4213,-4.4947,-4.5755,-4.6562,-4.6929,-4.7462,-4.8251,-4.8306,-4.8306,-4.8306,-4.8306,-4.8306,-4.8306,-4.8306,-4.8306,-4.8306,-4.8306,-4.8306,-4.8306,-4.8306,-4.8306,-3.119,-3.119,-3.119,-3.119,-3.119,-3.1329,-3.1733,-3.1808,-3.1844,-3.1844,-3.2565,-3.3184,-3.3136,-3.4066,-3.4871,-3.4944,-3.6208,-3.7246,-3.7367,-3.801,-3.8505,-3.8579,-3.8597,-3.8615,-3.8689,-3.8707,-3.8707,-3.8707,-3.8707,-3.8707,-3.8707,-3.8707,-3.8707,-3.8707,-3.8707,-3.8707,-3.8707,-3.8216,-3.798,-3.798,-3.7506,-3.7248,-3.7339,-3.9191,-4.0075,-4.0071,-3.9756,-3.9617,-3.964,-3.9895,-3.9986,-3.9986,-4.0054,-4.007,-4.007,-4.007,-4.007,-4.007,-4.007,-4.007,-4.0154,-4.0655,-4.092,-4.1178,-4.2302,-4.2693,-4.2864,-4.3375,-4.3497,-4.3497,-4.3497,-4.3497,-4.3497,-4.3497,-4.3497,-4.3497,-4.3497,-4.3497,-4.3497,-4.3497,-4.3497,-4.3497,-4.3497,-4.3497,-4.3497,-4.3497,-4.3497,-4.3497,-4.3497,-4.3497,-4.3497,-4.3497,-4.4158,-4.4929,-4.5718,-4.6544,-4.7352,-4.8141,-4.8269,-4.8306,-4.8306,-4.8306,-4.8306,-4.8306,-4.8306,-4.8306,-4.8306,-4.8306,-4.8306,-4.8306,-4.8306,-4.8306,-3.119,-3.119,-3.119,-3.119,-3.119,-3.1329,-3.1733,-3.2092,-3.235,-3.235,-3.2809,-3.3075,-3.2713,-3.3158,-3.3803,-3.4437,-3.4836,-3.543,-3.6421,-3.6707,-3.7037,-3.7661,-3.7753,-3.801,-3.8634,-3.8707,-3.8707,-3.8707,-3.8707,-3.8707,-3.8707,-3.8707,-3.8707,-3.8707,-3.8707,-3.8707,-3.8707,-3.8596,-3.8546,-3.8515,-3.7998,-3.7755,-3.7756,-3.8011,-3.8243,-3.8425,-3.8355,-3.8299,-3.835,-3.8969,-3.9225,-3.9276,-3.9851,-4.007,-4.007,-4.007,-4.007,-4.007,-4.007,-4.007,-4.0121,-4.0254,-4.0891,-4.1664,-4.1895,-4.2619,-4.3375,-4.3463,-4.3497,-4.3497,-4.3497,-4.3497,-4.3497,-4.3497,-4.3497,-4.3497,-4.3497,-4.3497,-4.3497,-4.3497,-4.3497,-4.3497,-4.3497,-4.3497,-4.3497,-4.3497,-4.3497,-4.3497,-4.3497,-4.3497,-4.3497,-4.3497,-4.3644,-4.4085,-4.4892,-4.57,-4.6507,-4.7333,-4.7957,-4.8306,-4.8306,-4.8306,-4.8306,-4.8306,-4.8306,-4.8306,-4.8306,-4.8306,-4.8306,-4.8306,-4.8306,-4.8306,-3.119,-3.119,-3.119,-3.119,-3.119,-3.1351,-3.2004,-3.2298,-3.2616,-3.3027,-3.3332,-3.3419,-3.3166,-3.3314,-3.3621,-3.404,-3.4459,-3.4918,-3.5595,-3.6046,-3.645,-3.6872,-3.6927,-3.7092,-3.7514,-3.7551,-3.7551,-3.7551,-3.7551,-3.7551,-3.7551,-3.7551,-3.7551,-3.7551,-3.7551,-3.7551,-3.7551,-3.7283,-3.7171,-3.7153,-3.6416,-3.616,-3.6264,-3.6748,-3.6903,-3.684,-3.7212,-3.7364,-3.7432,-3.8159,-3.8464,-3.8548,-3.9276,-3.9546,-3.9647,-4.0231,-4.0336,-4.0121,-4.0417,-4.0336,-4.0171,-4.0417,-4.0874,-4.149,-4.208,-4.2637,-4.3178,-4.341,-4.3497,-4.3497,-4.3497,-4.3497,-4.3497,-4.3497,-4.3497,-4.3497,-4.3497,-4.3497,-4.3497,-4.3497,-4.3497,-4.3497,-4.3497,-4.3497,-4.3497,-4.3497,-4.3497,-4.3497,-4.3497,-4.3497,-4.3497,-4.3497,-4.3497,-4.3828,-4.4635,-4.5094,-4.5847,-4.704,-4.7498,-4.7921,-4.8288,-4.8306,-4.8306,-4.8306,-4.8306,-4.8306,-4.8306,-4.8306,-4.8306,-4.8306,-4.8306,-4.8306,-3.119,-3.119,-3.119,-3.119,-3.119,-3.1389,-3.2213,-3.2451,-3.2745,-3.355,-3.3734,-3.3807,-3.3807,-3.3807,-3.3807,-3.3807,-3.4376,-3.477,-3.477,-3.5422,-3.5917,-3.6064,-3.6083,-3.6138,-3.6285,-3.6303,-3.6303,-3.6303,-3.6303,-3.6303,-3.6303,-3.6303,-3.6303,-3.6303,-3.6303,-3.6256,-3.6179,-3.5724,-3.5465,-3.54,-3.4528,-3.4174,-3.4363,-3.5505,-3.5891,-3.5656,-3.6299,-3.6586,-3.6637,-3.7398,-3.7719,-3.7787,-3.8514,-3.8886,-3.9154,-4.0289,-4.0504,-4.0286,-4.075,-4.0672,-4.0466,-4.078,-4.1041,-4.1402,-4.24,-4.275,-4.2939,-4.3375,-4.3497,-4.3497,-4.3497,-4.3497,-4.3497,-4.3497,-4.3497,-4.3497,-4.3497,-4.3497,-4.3497,-4.3497,-4.3497,-4.3497,-4.3497,-4.3497,-4.3497,-4.3497,-4.3497,-4.3497,-4.3497,-4.3497,-4.3497,-4.3497,-4.3497,-4.3754,-4.4452,-4.4635,-4.5333,-4.6819,-4.704,-4.748,-4.8269,-4.8306,-4.8306,-4.8306,-4.8306,-4.8306,-4.8306,-4.8306,-4.8306,-4.8306,-4.8306,-4.8306,-3.119,-3.119,-3.119,-3.119,-3.119,-3.1312,-3.1806,-3.2196,-3.2648,-3.3166,-3.355,-3.3807,-3.3807,-3.3807,-3.3807,-3.3807,-3.3899,-3.3972,-3.3972,-3.4064,-3.4394,-3.5082,-3.5155,-3.5477,-3.6229,-3.6303,-3.6303,-3.6303,-3.6303,-3.6303,-3.6303,-3.6303,-3.6303,-3.6303,-3.6303,-3.6102,-3.5693,-3.5612,-3.5382,-3.4976,-3.4454,-3.394,-3.3575,-3.4389,-3.5084,-3.5622,-3.5723,-3.5774,-3.5825,-3.6603,-3.6924,-3.7009,-3.7753,-3.8447,-3.9086,-3.9704,-4.032,-4.0827,-4.0874,-4.1178,-4.1508,-4.1041,-4.1621,-4.248,-4.2655,-4.3014,-4.341,-4.3479,-4.3497,-4.3497,-4.3497,-4.3497,-4.3497,-4.3497,-4.3497,-4.3497,-4.3497,-4.3497,-4.3497,-4.3497,-4.3497,-4.3497,-4.3497,-4.3497,-4.3497,-4.3497,-4.3497,-4.3497,-4.3497,-4.3497,-4.3497,-4.3497,-4.3497,-4.3534,-4.3644,-4.4305,-4.5094,-4.5993,-4.6728,-4.748,-4.8269,-4.8306,-4.8306,-4.8306,-4.8306,-4.8306,-4.8306,-4.8306,-4.8306,-4.8306,-4.8306,-4.8306,-3.119,-3.119,-3.119,-3.119,-3.119,-3.1329,-3.1733,-3.1951,-3.2298,-3.3045,-3.3332,-3.3522,-3.3762,-3.3807,-3.3807,-3.3807,-3.3807,-3.3807,-3.3807,-3.3807,-3.3935,-3.4302,-3.4339,-3.4486,-3.4853,-3.4908,-3.4908,-3.4908,-3.4908,-3.4908,-3.4908,-3.4908,-3.4908,-3.4908,-3.4908,-3.4788,-3.4608,-3.4383,-3.3892,-3.316,-3.3393,-3.3252,-3.2797,-3.3541,-3.4286,-3.5013,-3.5436,-3.5622,-3.5639,-3.5994,-3.6129,-3.6197,-3.6975,-3.7466,-3.7933,-3.9273,-4.0002,-4.0377,-4.1156,-4.1578,-4.181,-4.1895,-4.2262,-4.275,-4.305,-4.3321,-4.3497,-4.3497,-4.3497,-4.3497,-4.3497,-4.3497,-4.3497,-4.3497,-4.3497,-4.3497,-4.3497,-4.3497,-4.3497,-4.3497,-4.3497,-4.3497,-4.3497,-4.3497,-4.3497,-4.3497,-4.3497,-4.3497,-4.3497,-4.3497,-4.3497,-4.3497,-4.3497,-4.3497,-4.3497,-4.3809,-4.4378,-4.5186,-4.5993,-4.6801,-4.7609,-4.8067,-4.8306,-4.8306,-4.8306,-4.8306,-4.8306,-4.8306,-4.8306,-4.8306,-4.8306,-4.8306,-3.119,-3.119,-3.119,-3.119,-3.119,-3.1291,-3.1565,-3.1733,-3.2022,-3.284,-3.3014,-3.3136,-3.3578,-3.3734,-3.378,-3.368,-3.3734,-3.3807,-3.3807,-3.3807,-3.3807,-3.3807,-3.3807,-3.3807,-3.3807,-3.3807,-3.3807,-3.3807,-3.3807,-3.3807,-3.3807,-3.3807,-3.3807,-3.3807,-3.3707,-3.3578,-3.3476,-3.2934,-3.235,-3.166,-3.2262,-3.2363,-3.2036,-3.278,-3.3423,-3.3981,-3.4928,-3.5453,-3.5622,-3.5622,-3.5622,-3.5673,-3.6265,-3.6603,-3.7,-3.8646,-3.9465,-3.9954,-4.0955,-4.1609,-4.208,-4.2382,-4.2655,-4.2976,-4.3375,-4.3497,-4.3497,-4.3497,-4.3497,-4.3497,-4.3497,-4.3497,-4.3497,-4.3497,-4.3497,-4.3497,-4.3497,-4.3497,-4.3497,-4.3497,-4.3497,-4.3497,-4.3497,-4.3497,-4.3497,-4.3497,-4.3497,-4.3497,-4.3497,-4.3497,-4.3497,-4.3497,-4.3497,-4.3497,-4.3497,-4.3497,-4.3828,-4.4654,-4.5461,-4.6269,-4.7095,-4.7884,-4.8306,-4.8306,-4.8306,-4.8306,-4.8306,-4.8306,-4.8306,-4.8306,-4.8306,-4.8306,-3.119,-3.119,-3.119,-3.119,-3.119,-3.119,-3.123,-3.1545,-3.1915,-3.2451,-3.255,-3.2681,-3.3154,-3.355,-3.368,-3.3302,-3.355,-3.3807,-3.3807,-3.3807,-3.3807,-3.3807,-3.3807,-3.3807,-3.3807,-3.3807,-3.3807,-3.3807,-3.3807,-3.3807,-3.3807,-3.3807,-3.3807,-3.3807,-3.3419,-3.3014,-3.2583,-3.1731,-3.1291,-3.123,-3.1263,-3.128,-3.1275,-3.2002,-3.2357,-3.2476,-3.3914,-3.4962,-3.5622,-3.5622,-3.5622,-3.5622,-3.5673,-3.6129,-3.6864,-3.7473,-3.8608,-3.9794,-3.9874,-4.1107,-4.2559,-4.2021,-4.2562,-4.3444,-4.3479,-4.3497,-4.3497,-4.3497,-4.3497,-4.3497,-4.3497,-4.3497,-4.3497,-4.3497,-4.3497,-4.3497,-4.3497,-4.3497,-4.3497,-4.3497,-4.3497,-4.3497,-4.3497,-4.3497,-4.3497,-4.3497,-4.3497,-4.3497,-4.3497,-4.3497,-4.3497,-4.3497,-4.3497,-4.3497,-4.3497,-4.3497,-4.3828,-4.4654,-4.5461,-4.6269,-4.7095,-4.7884,-4.8306,-4.8306,-4.8306,-4.8306,-4.8306,-4.8306,-4.8306,-4.8306,-4.8306,-4.8306,-3.119,-3.119,-3.119,-3.119,-3.119,-3.119,-3.119,-3.1329,-3.1545,-3.1968,-3.2057,-3.2092,-3.2264,-3.2903,-3.3361,-3.3214,-3.355,-3.3807,-3.3807,-3.3807,-3.3807,-3.3807,-3.3807,-3.3807,-3.3807,-3.3807,-3.3807,-3.3807,-3.3807,-3.3568,-3.3073,-3.3036,-3.2797,-3.2265,-3.2099,-3.1707,-3.103,-3.0925,-3.0751,-3.0497,-3.097,-3.119,-3.1207,-3.1461,-3.1833,-3.2307,-3.2848,-3.3778,-3.4895,-3.4895,-3.5182,-3.5622,-3.5622,-3.5791,-3.6141,-3.6825,-3.7661,-3.8521,-3.9448,-4.0498,-4.1502,-4.2181,-4.2637,-4.305,-4.341,-4.3497,-4.3497,-4.3497,-4.3497,-4.3497,-4.3497,-4.3497,-4.3497,-4.3497,-4.3497,-4.3497,-4.3497,-4.3497,-4.3497,-4.3497,-4.3497,-4.3497,-4.3497,-4.3497,-4.3497,-4.3497,-4.3497,-4.3497,-4.3497,-4.3497,-4.3497,-4.3497,-4.3497,-4.3497,-4.3497,-4.3497,-4.3608,-4.3901,-4.469,-4.5498,-4.6305,-4.7113,-4.7774,-4.8306,-4.8306,-4.8306,-4.8306,-4.8306,-4.8306,-4.8306,-4.8306,-4.8306,-3.119,-3.119,-3.119,-3.119,-3.119,-3.119,-3.119,-3.119,-3.1312,-3.1733,-3.1696,-3.1623,-3.1789,-3.2332,-3.2777,-3.2952,-3.3419,-3.3807,-3.3807,-3.3807,-3.3807,-3.3807,-3.3807,-3.3697,-3.3421,-3.3403,-3.3293,-3.2999,-3.2981,-3.2761,-3.2228,-3.221,-3.1902,-3.1224,-3.1065,-3.0671,-2.998,-3.0058,-3.0018,-2.9736,-3.048,-3.0835,-3.0835,-3.1089,-3.1461,-3.1918,-3.1918,-3.2899,-3.4489,-3.4489,-3.4928,-3.5622,-3.5622,-3.5622,-3.5673,-3.6197,-3.6774,-3.7455,-3.8453,-3.9512,-4.0581,-4.1649,-4.2322,-4.2788,-4.3339,-4.3497,-4.3497,-4.3497,-4.3497,-4.3497,-4.3497,-4.3497,-4.3497,-4.3497,-4.3497,-4.3497,-4.3497,-4.3497,-4.3497,-4.3497,-4.3497,-4.3497,-4.3497,-4.3497,-4.3497,-4.3497,-4.3497,-4.3497,-4.3497,-4.3497,-4.3497,-4.3497,-4.3497,-4.3497,-4.3497,-4.3497,-4.3497,-4.3497,-4.4268,-4.5057,-4.5865,-4.6673,-4.7498,-4.8288,-4.8306,-4.8306,-4.8306,-4.8306,-4.8306,-4.8306,-4.8306,-4.8306,0.0,0.0,0.0,-3.119,-3.119,-3.119,-3.119,-3.119,-3.1329,-3.1696,-3.147,-3.1312,-3.1733,-3.1789,-3.1951,-3.2417,-3.3225,-3.3762,-3.3762,-3.3788,-3.3807,-3.3807,-3.377,-3.3458,-3.2687,-3.2596,-3.2247,-3.1458,-3.1384,-3.1384,-3.1366,-3.1329,-3.1159,-3.0756,-3.0327,-2.991,-2.9419,-2.9106,-2.8941,-2.8958,-2.9719,-3.0091,-3.0125,-3.0835,-3.1173,-3.119,-3.119,-3.2425,-3.4438,-3.4455,-3.4912,-3.5588,-3.5605,-3.5622,-3.5622,-3.5622,-3.6096,-3.6755,-3.6772,-3.8071,-3.9815,-4.0475,-4.156,-4.2752,-4.3321,-4.3497,-4.3497,-4.3497,-4.3497,-4.3497,-4.3497,-4.3497,-4.3497,-4.3497,-4.3497,-4.3497,-4.3497,-4.3497,-4.3497,-4.3497,-4.3497,-4.3497,-4.3497,-4.3497,-4.3497,-4.3497,-4.3497,-4.3497,-4.3497,-4.3497,-4.3497,-4.3497,-4.3497,-4.3497,-4.3497,-4.3497,-4.3497,-4.3497,-4.4232,-4.5039,-4.5828,-4.6654,-4.7462,-4.8251,-4.8306,-4.8306,-4.8306,-4.8306,-4.8306,-4.8306,-4.8306,-4.8306,-3.119,0.0,0.0,0.0,0.0,0.0,-3.119,-3.119,-3.123,-3.1351,-3.1291,-3.123,-3.1351,-3.1603,-3.1844,-3.1951,-3.2759,-3.3361,-3.3361,-3.3625,-3.3807,-3.3807,-3.3293,-3.2852,-3.2632,-3.2063,-3.1641,-3.1403,-3.1384,-3.1146,-3.0558,-2.9989,-2.9472,-2.9088,-2.8734,-2.831,-2.7927,-2.8049,-2.8146,-2.8146,-2.8924,-2.9583,-3.0125,-3.0311,-3.07,-3.119,-3.119,-3.185,-3.2933,-3.3474,-3.4134,-3.4861,-3.5402,-3.5622,-3.5622,-3.5622,-3.5757,-3.6028,-3.6586,-3.7165,-3.7963,-4.0039,-4.0948,-4.1533,-4.3049,-4.3497,-4.3497,-4.3497,-4.3497,-4.3497,-4.3497,-4.3497,-4.3497,-4.3497,-4.3497,-4.3497,-4.3497,-4.3497,-4.3497,-4.3497,-4.3497,-4.3497,-4.3497,-4.3497,-4.3497,-4.3497,-4.3497,-4.3497,-4.3497,-4.3497,-4.3497,-4.3497,-4.3497,-4.3497,-4.3497,-4.3497,-4.3497,-4.3497,-4.3699,-4.4195,-4.5002,-4.581,-4.6617,-4.7425,-4.8012,-4.8306,-4.8306,-4.8306,-4.8306,-4.8306,-4.8306,-4.8306,-3.119,-3.119,-3.119,-3.119,0.0,0.0,-3.119,-3.119,-3.119,-3.119,-3.119,-3.119,-3.119,-3.1372,-3.1528,-3.1528,-3.2127,-3.2663,-3.2872,-3.3273,-3.355,-3.355,-3.2985,-3.2485,-3.2137,-3.1366,-3.076,-3.0411,-3.0393,-3.0191,-2.9732,-2.9095,-2.8633,-2.842,-2.789,-2.7547,-2.7303,-2.7317,-2.7351,-2.7351,-2.8129,-2.8721,-2.9178,-2.982,-3.0345,-3.0768,-3.1072,-3.1427,-3.1884,-3.2628,-3.3558,-3.4539,-3.4979,-3.5351,-3.5622,-3.5622,-3.5622,-3.569,-3.6146,-3.6667,-3.7384,-3.9142,-4.0313,-4.1235,-4.2592,-4.3222,-4.3497,-4.3497,-4.3497,-4.3497,-4.3497,-4.3497,-4.3497,-4.3497,-4.3497,-4.3497,-4.3497,-4.3497,-4.3497,-4.3497,-4.3497,-4.3497,-4.3497,-4.3497,-4.3497,-4.3497,-4.3497,-4.3497,-4.3497,-4.3497,-4.3497,-4.3497,-4.3497,-4.3497,-4.3497,-4.3497,-4.3497,-4.3497,-4.3497,-4.3864,-4.4672,-4.5149,-4.5938,-4.7095,-4.7572,-4.7976,-4.8306,-4.8306,-4.8306,-4.8306,-4.8306,-4.8306,-3.119,-3.119,-3.119,-3.119,-3.119,0.0,-3.119,-3.119,-3.119,-3.119,-3.119,-3.119,-3.119,-3.119,-3.119,-3.119,-3.1507,-3.1897,-3.235,-3.2827,-3.3154,-3.3184,-3.2729,-3.214,-3.1458,-3.0595,-2.9745,-2.8983,-2.8929,-2.8929,-2.8881,-2.8565,-2.835,-2.8272,-2.7631,-2.7272,-2.7224,-2.6873,-2.6691,-2.6708,-2.7368,-2.7705,-2.784,-2.9228,-2.9956,-3.0142,-3.0784,-3.1123,-3.1241,-3.1901,-3.2983,-3.4269,-3.4438,-3.4895,-3.5504,-3.5588,-3.5622,-3.5622,-3.565,-3.6456,-3.7505,-3.8245,-3.9689,-4.1288,-4.2077,-4.28,-4.3387,-4.3461,-4.3497,-4.3497,-4.3497,-4.3497,-4.3497,-4.3497,-4.3497,-4.3497,-4.3497,-4.3497,-4.3497,-4.3497,-4.3497,-4.3497,-4.3497,-4.3497,-4.3497,-4.3497,-4.3497,-4.3497,-4.3497,-4.3497,-4.3497,-4.3497,-4.3497,-4.3497,-4.3497,-4.3497,-4.3497,-4.3497,-4.3497,-4.3809,-4.4544,-4.4654,-4.5388,-4.6819,-4.6984,-4.7517,-4.8306,-4.8306,-4.8306,-4.8306,-4.8306,-4.8306,-3.1055,-3.119,-3.119,-3.119,-3.119,0.0,-3.119,-3.119,-3.119,-3.119,-3.119,-3.119,-3.119,-3.119,-3.119,-3.119,-3.1269,-3.1449,-3.1897,-3.2332,-3.2777,-3.3154,-3.1996,-3.1211,-3.1378,-3.0099,-2.9028,-2.854,-2.8515,-2.8412,-2.812,-2.829,-2.8139,-2.7512,-2.7378,-2.7147,-2.6808,-2.6758,-2.6691,-2.6691,-2.6843,-2.7232,-2.7806,-2.8093,-2.8941,-3.0125,-3.026,-3.0649,-3.1207,-3.1343,-3.1918,-3.2831,-3.4032,-3.459,-3.4793,-3.5402,-3.5622,-3.565,-3.6097,-3.6395,-3.6876,-3.8452,-3.9247,-3.9877,-4.1729,-4.2415,-4.2671,-4.3314,-4.3497,-4.3497,-4.3497,-4.3497,-4.3497,-4.3497,-4.3497,-4.3497,-4.3497,-4.3497,-4.3497,-4.3497,-4.3497,-4.3497,-4.3497,-4.3497,-4.3497,-4.3497,-4.3497,-4.3497,-4.3497,-4.3497,-4.3497,-4.3497,-4.3497,-4.3497,-4.3497,-4.3497,-4.3497,-4.3497,-4.3497,-4.3552,-4.3718,-4.436,-4.4856,-4.5168,-4.6452,-4.7517,-4.8306,-4.8306,-4.8306,-4.8306,-4.8306,-4.8306,-3.0658,-3.0975,-3.119,-3.119,-3.119,0.0,0.0,-3.119,-3.119,-3.119,-3.119,-3.119,-3.119,-3.119,-3.119,-3.119,-3.119,-3.1252,-3.147,-3.1878,-3.209,-3.1951,-3.1092,-3.0517,-3.0483,-2.9246,-2.836,-2.8156,-2.8156,-2.8075,-2.7897,-2.788,-2.7689,-2.7317,-2.7115,-2.6906,-2.6691,-2.6691,-2.6691,-2.6691,-2.6691,-2.6894,-2.7266,-2.7638,-2.845,-2.9567,-2.9939,-3.0531,-3.119,-3.119,-3.141,-3.185,-3.2949,-3.3846,-3.4539,-3.4912,-3.5301,-3.5667,-3.5898,-3.6333,-3.6935,-3.7842,-3.876,-3.9714,-4.0771,-4.1662,-4.247,-4.3259,-4.3497,-4.3497,-4.3497,-4.3497,-4.3497,-4.3497,-4.3497,-4.3497,-4.3497,-4.3497,-4.3497,-4.3497,-4.3497,-4.3497,-4.3497,-4.3497,-4.3497,-4.3497,-4.3497,-4.3497,-4.3497,-4.3497,-4.3497,-4.3497,-4.3497,-4.3497,-4.3497,-4.3497,-4.3497,-4.3497,-4.3497,-4.3497,-4.3497,-4.3883,-4.4287,-4.4709,-4.6287,-4.7315,-4.7719,-4.8104,-4.8306,-4.8306,-4.8306,-4.8306,-3.0435,-3.0838,-3.119,-3.119,-3.119,-3.119,0.0,0.0,0.0,-3.119,-3.119,-3.119,-3.119,-3.119,-3.119,-3.119,-3.119,-3.119,-3.119,-3.147,-3.1491,-3.0959,-3.0394,-2.9963,-2.9727,-2.8525,-2.7811,-2.7897,-2.784,-2.7754,-2.7678,-2.7439,-2.7255,-2.7178,-2.6873,-2.6691,-2.6691,-2.6691,-2.6691,-2.6691,-2.6691,-2.6691,-2.6708,-2.7334,-2.8027,-2.8805,-2.9567,-3.0311,-3.1004,-3.114,-3.119,-3.1258,-3.1985,-3.3102,-3.4303,-3.4438,-3.4979,-3.5622,-3.5739,-3.6333,-3.7076,-3.7285,-3.8506,-3.99,-3.99,-4.102,-4.2433,-4.3075,-4.3369,-4.3497,-4.3497,-4.3497,-4.3497,-4.3497,-4.3497,-4.3497,-4.3497,-4.3497,-4.3497,-4.3497,-4.3497,-4.3497,-4.3497,-4.3497,-4.3497,-4.3497,-4.3497,-4.3497,-4.3497,-4.3497,-4.3497,-4.3497,-4.3497,-4.3497,-4.3497,-4.3497,-4.3497,-4.3497,-4.3497,-4.3497,-4.3497,-4.3497,-4.3883,-4.469,-4.5993,-4.6801,-4.7113,-4.7755,-4.8159,-4.8306,-4.8306,-4.8306,-3.0797,-3.1151,-3.119,-3.119,-3.119,-3.119,-3.119,0.0,-3.119,-3.119,0.0,-3.119,-3.119,0.0,0.0,-3.119,-3.119,-3.119,-3.119,-3.123,-3.1376,-3.1631,-3.0422,-2.9719,-3.0105,-2.8478,-2.7517,-2.7869,-2.756,-2.7192,-2.6841,-2.7115,-2.7147,-2.6791,-2.6725,-2.6691,-2.6691,-2.6691,-2.6691,-2.6691,-2.6691,-2.6691,-2.6691,-2.6793,-2.7232,-2.7994,-2.8772,-2.9533,-3.0294,-3.092,-3.119,-3.1258,-3.1985,-3.278,-3.3609,-3.4252,-3.4979,-3.565,-3.6139,-3.6374,-3.6643,-3.7524,-3.8761,-3.99,-3.99,-4.102,-4.2323,-4.2415,-4.2947,-4.3497,-4.3497,-4.3497,-4.3497,-4.3497,-4.3497,-4.3497,-4.3497,-4.3497,-4.3497,-4.3497,-4.3497,-4.3497,-4.3497,-4.3497,-4.3497,-4.3497,-4.3497,-4.3497,-4.3497,-4.3497,-4.3497,-4.3497,-4.3497,-4.3497,-4.3497,-4.3497,-4.3497,-4.3497,-4.3497,-4.3497,-4.3497,-4.3497,-4.3883,-4.469,-4.4892,-4.5681,-4.7113,-4.7205,-4.7609,-4.8306,-4.8306,-4.8306,-3.0435,-3.0918,-3.119,-3.119,-3.119,-3.119,-3.119,-3.119,-3.119,-3.119,0.0,0.0,0.0,0.0,0.0,0.0,-3.119,-3.119,-3.119,-3.119,-3.1099,-3.0813,-2.986,-2.8922,-2.8246,-2.7636,-2.7255,-2.721,-2.7051,-2.6873,-2.6725,-2.6873,-2.6873,-2.6691,-2.6691,-2.6691,-2.6691,-2.6691,-2.6539,-2.6297,-2.6297,-2.6297,-2.6297,-2.6297,-2.6838,-2.7823,-2.8653,-2.9414,-3.0176,-3.0903,-3.119,-3.1224,-3.1529,-3.2104,-3.2848,-3.3592,-3.4336,-3.5074,-3.5701,-3.6139,-3.658,-3.756,-3.8485,-3.9294,-3.9753,-4.0708,-4.1699,-4.2176,-4.2873,-4.3497,-4.3497,-4.3497,-4.3497,-4.3497,-4.3497,-4.3497,-4.3497,-4.3497,-4.3497,-4.3497,-4.3497,-4.3497,-4.3497,-4.3497,-4.3497,-4.3497,-4.3497,-4.3497,-4.3497,-4.3497,-4.3497,-4.3497,-4.3497,-4.3497,-4.3497,-4.3497,-4.3497,-4.3497,-4.3497,-4.3497,-4.3497,-4.3497,-4.3644,-4.3993,-4.447,-4.5039,-4.5718,-4.6195,-4.6838,-4.7627,-4.8086,-4.8306,-3.0293,-3.0757,-3.1015,-3.1151,-3.119,-3.119,-3.119,-3.119,-3.119,-3.119,-3.119,0.0,0.0,0.0,-3.119,-3.119,0.0,-3.119,-3.119,-3.119,-3.1004,-3.048,-2.9567,-2.8454,-2.6994,-2.7019,-2.7051,-2.6873,-2.6758,-2.6691,-2.6691,-2.6691,-2.6691,-2.6691,-2.6691,-2.6624,-2.6505,-2.6505,-2.6245,-2.5762,-2.5762,-2.5762,-2.5779,-2.5924,-2.6474,-2.7362,-2.8279,-2.9093,-2.9854,-3.0581,-3.1021,-3.119,-3.119,-3.1512,-3.2104,-3.3051,-3.3863,-3.4607,-3.5351,-3.6054,-3.6724,-3.747,-3.815,-3.8817,-3.9386,-4.0139,-4.0946,-4.1754,-4.2543,-4.3222,-4.3424,-4.3497,-4.3497,-4.3497,-4.3497,-4.3497,-4.3497,-4.3497,-4.3497,-4.3497,-4.3497,-4.3497,-4.3497,-4.3497,-4.3497,-4.3497,-4.3497,-4.3497,-4.3497,-4.3497,-4.3497,-4.3497,-4.3497,-4.3497,-4.3497,-4.3497,-4.3497,-4.3497,-4.3497,-4.3497,-4.3497,-4.3497,-4.3497,-4.3497,-4.4066,-4.4488,-4.4709,-4.5296,-4.5993,-4.6801,-4.7609,-4.8104,-3.0699,-3.0757,-3.0477,-3.1055,-3.119,-3.119,-3.119,-3.119,-3.119,-3.119,-3.119,-3.119,-3.119,-3.119,-3.119,-3.119,-3.119,0.0,0.0,-3.119,-3.119,-3.1157,-2.9871,-2.8543,-2.7379,-2.6939,-2.6873,-2.7241,-2.6939,-2.6691,-2.6691,-2.6691,-2.6691,-2.6691,-2.6691,-2.647,-2.6049,-2.5997,-2.5762,-2.5221,-2.5221,-2.5221,-2.5259,-2.5762,-2.603,-2.6115,-2.731,-2.8298,-2.9076,-2.9837,-3.0565,-3.119,-3.119,-3.1207,-3.141,-3.2865,-3.3863,-3.4607,-3.5351,-3.6291,-3.7173,-3.721,-3.7895,-3.8707,-3.8726,-3.9294,-4.0102,-4.0928,-4.1735,-4.2525,-4.3296,-4.3497,-4.3497,-4.3497,-4.3497,-4.3497,-4.3497,-4.3497,-4.3497,-4.3497,-4.3497,-4.3497,-4.3497,-4.3497,-4.3497,-4.3497,-4.3497,-4.3497,-4.3497,-4.3497,-4.3497,-4.3497,-4.3497,-4.3497,-4.3497,-4.3497,-4.3497,-4.3497,-4.3497,-4.3497,-4.3497,-4.3497,-4.3497,-4.3497,-4.3516,-4.392,-4.4709,-4.4745,-4.5149,-4.5957,-4.6764,-4.7572,-3.0838,-3.1055,-3.0918,-3.1151,-3.119,-3.119,-3.119,-3.119,-3.119,-3.119,-3.119,-3.119,-3.119,-3.119,-3.119,-3.119,-3.119,-3.119,0.0,-3.119,-3.0835,-2.9854,-2.9279,-2.8454,-2.7027,-2.6791,-2.6758,-2.6906,-2.6791,-2.6691,-2.6691,-2.6691,-2.6691,-2.6691,-2.6401,-2.6156,-2.6013,-2.5652,-2.5221,-2.4672,-2.4672,-2.4672,-2.4672,-2.4871,-2.5335,-2.6046,-2.6936,-2.7958,-2.9042,-2.9803,-3.0531,-3.119,-3.119,-3.119,-3.1309,-3.2307,-3.3136,-3.3947,-3.5182,-3.6054,-3.6724,-3.7058,-3.7632,-3.8234,-3.8578,-3.9258,-4.0065,-4.0873,-4.168,-4.2488,-4.3277,-4.3497,-4.3497,-4.3497,-4.3497,-4.3497,-4.3497,-4.3497,-4.3497,-4.3497,-4.3497,-4.3497,-4.3497,-4.3497,-4.3497,-4.3497,-4.3497,-4.3497,-4.3497,-4.3497,-4.3497,-4.3497,-4.3497,-4.3497,-4.3497,-4.3497,-4.3497,-4.3497,-4.3497,-4.3497,-4.3497,-4.3497,-4.3497,-4.3497,-4.3497,-4.3626,-4.3901,-4.3901,-4.4323,-4.5112,-4.5388,-4.625,-3.0878,-3.1055,-3.0918,-3.1151,-3.119,-3.119,-3.119,-3.119,-3.119,-3.119,-3.119,-3.119,-3.119,-3.119,-3.119,-3.119,-3.119,-3.119,0.0,-3.119,-3.0649,-2.9197,-2.9011,-2.8383,-2.6843,-2.6691,-2.6691,-2.6691,-2.6691,-2.6691,-2.6691,-2.6691,-2.6691,-2.6691,-2.6227,-2.5888,-2.5726,-2.5182,-2.4672,-2.4116,-2.4116,-2.4116,-2.4116,-2.4307,-2.4792,-2.5481,-2.6344,-2.747,-2.8753,-2.9407,-3.0294,-3.119,-3.119,-3.119,-3.1275,-3.2019,-3.2916,-3.4007,-3.5385,-3.6249,-3.6764,-3.7285,-3.7773,-3.8267,-3.8596,-3.9056,-3.9698,-4.0799,-4.1479,-4.2121,-4.3222,-4.3497,-4.3497,-4.3497,-4.3497,-4.3497,-4.3497,-4.3497,-4.3497,-4.3497,-4.3497,-4.3497,-4.3497,-4.3497,-4.3497,-4.3497,-4.3497,-4.3497,-4.3497,-4.3497,-4.3497,-4.3497,-4.3497,-4.3497,-4.3497,-4.3497,-4.3497,-4.3497,-4.3497,-4.3497,-4.3497,-4.3497,-4.3497,-4.3497,-4.3497,-4.3497,-4.3497,-4.3497,-4.3754,-4.4287,-4.458,-4.5278]}]]